<?xml version="1.0" encoding="UTF-8" standalone="no" ?><gpx xmlns="http://www.topografix.com/GPX/1/1" xmlns:gpxx="http://www.garmin.com/xmlschemas/GpxExtensions/v3" xmlns:wptx1="http://www.garmin.com/xmlschemas/WaypointExtension/v1" xmlns:gpxtpx="http://www.garmin.com/xmlschemas/TrackPointExtension/v1" creator="GuideVTT.com" version="1.1" xmlns:xsi="http://www.w3.org/2001/XMLSchema-instance" xsi:schemaLocation="http://www.topografix.com/GPX/1/1 http://www.topografix.com/GPX/1/1/gpx.xsd http://www.garmin.com/xmlschemas/GpxExtensions/v3 http://www8.garmin.com/xmlschemas/GpxExtensionsv3.xsd http://www.garmin.com/xmlschemas/WaypointExtension/v1 http://www8.garmin.com/xmlschemas/WaypointExtensionv1.xsd http://www.garmin.com/xmlschemas/TrackPointExtension/v1 http://www.garmin.com/xmlschemas/TrackPointExtensionv1.xsd">
<metadata><link href="http://www.garmin.com"><text>Garmin International</text></link><time>2013-06-22T15:13:50Z</time></metadata>
<trk><name>massongex_-_les_giettes.gpx</name><extensions><gpxx:TrackExtension><gpxx:DisplayColor>Cyan</gpxx:DisplayColor></gpxx:TrackExtension></extensions><trkseg>
<trkpt lat="46.2420768737793" lon="6.98733997344971"><ele></ele><time>2013-8-3T19:5:10Z</time></trkpt>
<trkpt lat="46.2420768737793" lon="6.98733806610107"><ele></ele><time>2013-8-3T19:5:13Z</time></trkpt>
<trkpt lat="46.2420692443848" lon="6.98732805252075"><ele></ele><time>2013-8-3T19:5:16Z</time></trkpt>
<trkpt lat="46.2420654296875" lon="6.98732376098633"><ele></ele><time>2013-8-3T19:5:19Z</time></trkpt>
<trkpt lat="46.2420616149902" lon="6.9873194694519"><ele></ele><time>2013-8-3T19:5:22Z</time></trkpt>
<trkpt lat="46.2420616149902" lon="6.98731374740601"><ele></ele><time>2013-8-3T19:5:25Z</time></trkpt>
<trkpt lat="46.2420501708984" lon="6.98729038238525"><ele></ele><time>2013-8-3T19:5:28Z</time></trkpt>
<trkpt lat="46.2420387268066" lon="6.98728132247925"><ele></ele><time>2013-8-3T19:5:31Z</time></trkpt>
<trkpt lat="46.2420234680176" lon="6.98721885681152"><ele></ele><time>2013-8-3T19:5:34Z</time></trkpt>
<trkpt lat="46.241943359375" lon="6.98710918426514"><ele></ele><time>2013-8-3T19:5:37Z</time></trkpt>
<trkpt lat="46.2418670654297" lon="6.98699808120728"><ele></ele><time>2013-8-3T19:5:40Z</time></trkpt>
<trkpt lat="46.2418746948242" lon="6.9869556427002"><ele></ele><time>2013-8-3T19:5:43Z</time></trkpt>
<trkpt lat="46.2418937683106" lon="6.9868745803833"><ele></ele><time>2013-8-3T19:5:46Z</time></trkpt>
<trkpt lat="46.2418174743652" lon="6.98672342300415"><ele></ele><time>2013-8-3T19:5:49Z</time></trkpt>
<trkpt lat="46.2417907714844" lon="6.98668432235718"><ele></ele><time>2013-8-3T19:5:52Z</time></trkpt>
<trkpt lat="46.2416801452637" lon="6.98642539978027"><ele></ele><time>2013-8-3T19:5:55Z</time></trkpt>
<trkpt lat="46.2415390014648" lon="6.98613548278809"><ele></ele><time>2013-8-3T19:5:58Z</time></trkpt>
<trkpt lat="46.2414932250977" lon="6.98606967926025"><ele></ele><time>2013-8-3T19:6:1Z</time></trkpt>
<trkpt lat="46.2414398193359" lon="6.9860029220581"><ele></ele><time>2013-8-3T19:6:4Z</time></trkpt>
<trkpt lat="46.2413597106934" lon="6.9858980178833"><ele></ele><time>2013-8-3T19:6:7Z</time></trkpt>
<trkpt lat="46.2412948608398" lon="6.98582935333252"><ele></ele><time>2013-8-3T19:6:10Z</time></trkpt>
<trkpt lat="46.2412796020508" lon="6.98580932617188"><ele></ele><time>2013-8-3T19:6:13Z</time></trkpt>
<trkpt lat="46.2412757873535" lon="6.98580646514893"><ele></ele><time>2013-8-3T19:6:16Z</time></trkpt>
<trkpt lat="46.2412757873535" lon="6.98580646514893"><ele></ele><time>2013-8-3T19:6:19Z</time></trkpt>
<trkpt lat="46.2412757873535" lon="6.98580646514893"><ele></ele><time>2013-8-3T19:6:22Z</time></trkpt>
<trkpt lat="46.2412757873535" lon="6.98580121994018"><ele></ele><time>2013-8-3T19:6:25Z</time></trkpt>
<trkpt lat="46.241268157959" lon="6.98579406738281"><ele></ele><time>2013-8-3T19:6:28Z</time></trkpt>
<trkpt lat="46.241268157959" lon="6.98579406738281"><ele></ele><time>2013-8-3T19:6:31Z</time></trkpt>
<trkpt lat="46.2408332824707" lon="6.98537445068359"><ele></ele><time>2013-8-3T19:6:34Z</time></trkpt>
<trkpt lat="46.2407913208008" lon="6.98534393310547"><ele></ele><time>2013-8-3T19:6:37Z</time></trkpt>
<trkpt lat="46.2405281066894" lon="6.98514127731323"><ele></ele><time>2013-8-3T19:6:40Z</time></trkpt>
<trkpt lat="46.240177154541" lon="6.9848575592041"><ele></ele><time>2013-8-3T19:6:43Z</time></trkpt>
<trkpt lat="46.2400016784668" lon="6.98461532592774"><ele></ele><time>2013-8-3T19:6:46Z</time></trkpt>
<trkpt lat="46.2399711608887" lon="6.98456430435181"><ele></ele><time>2013-8-3T19:6:49Z</time></trkpt>
<trkpt lat="46.2397499084473" lon="6.98409795761108"><ele></ele><time>2013-8-3T19:6:52Z</time></trkpt>
<trkpt lat="46.2395782470703" lon="6.9836893081665"><ele></ele><time>2013-8-3T19:6:55Z</time></trkpt>
<trkpt lat="46.2394371032715" lon="6.9833493232727"><ele></ele><time>2013-8-3T19:6:58Z</time></trkpt>
<trkpt lat="46.2393951416016" lon="6.98324489593506"><ele></ele><time>2013-8-3T19:7:1Z</time></trkpt>
<trkpt lat="46.239372253418" lon="6.98319959640503"><ele></ele><time>2013-8-3T19:7:4Z</time></trkpt>
<trkpt lat="46.2392463684082" lon="6.98310375213623"><ele></ele><time>2013-8-3T19:7:7Z</time></trkpt>
<trkpt lat="46.2392120361328" lon="6.98310422897339"><ele></ele><time>2013-8-3T19:7:10Z</time></trkpt>
<trkpt lat="46.2391777038574" lon="6.9831018447876"><ele></ele><time>2013-8-3T19:7:13Z</time></trkpt>
<trkpt lat="46.239143371582" lon="6.98310136795044"><ele></ele><time>2013-8-3T19:7:16Z</time></trkpt>
<trkpt lat="46.2391090393066" lon="6.98311376571655"><ele></ele><time>2013-8-3T19:7:19Z</time></trkpt>
<trkpt lat="46.2390785217285" lon="6.9831280708313"><ele></ele><time>2013-8-3T19:7:22Z</time></trkpt>
<trkpt lat="46.2389678955078" lon="6.9832353591919"><ele></ele><time>2013-8-3T19:7:25Z</time></trkpt>
<trkpt lat="46.238941192627" lon="6.98325538635254"><ele></ele><time>2013-8-3T19:7:28Z</time></trkpt>
<trkpt lat="46.2389221191406" lon="6.98327541351318"><ele></ele><time>2013-8-3T19:7:31Z</time></trkpt>
<trkpt lat="46.2389068603516" lon="6.98329544067383"><ele></ele><time>2013-8-3T19:7:34Z</time></trkpt>
<trkpt lat="46.2388916015625" lon="6.98331546783447"><ele></ele><time>2013-8-3T19:7:37Z</time></trkpt>
<trkpt lat="46.2388572692871" lon="6.98336601257324"><ele></ele><time>2013-8-3T19:7:40Z</time></trkpt>
<trkpt lat="46.2388114929199" lon="6.98342180252075"><ele></ele><time>2013-8-3T19:7:43Z</time></trkpt>
<trkpt lat="46.2387924194336" lon="6.98343896865845"><ele></ele><time>2013-8-3T19:7:46Z</time></trkpt>
<trkpt lat="46.23876953125" lon="6.98346281051636"><ele></ele><time>2013-8-3T19:7:49Z</time></trkpt>
<trkpt lat="46.2387466430664" lon="6.9834794998169"><ele></ele><time>2013-8-3T19:7:52Z</time></trkpt>
<trkpt lat="46.2387313842773" lon="6.98350095748901"><ele></ele><time>2013-8-3T19:7:55Z</time></trkpt>
<trkpt lat="46.2386283874512" lon="6.98357200622559"><ele></ele><time>2013-8-3T19:7:58Z</time></trkpt>
<trkpt lat="46.2386054992676" lon="6.98358345031738"><ele></ele><time>2013-8-3T19:8:1Z</time></trkpt>
<trkpt lat="46.2385940551758" lon="6.98359727859497"><ele></ele><time>2013-8-3T19:8:4Z</time></trkpt>
<trkpt lat="46.2385787963867" lon="6.98361825942993"><ele></ele><time>2013-8-3T19:8:7Z</time></trkpt>
<trkpt lat="46.2385597229004" lon="6.98363590240478"><ele></ele><time>2013-8-3T19:8:10Z</time></trkpt>
<trkpt lat="46.2385406494141" lon="6.98364686965942"><ele></ele><time>2013-8-3T19:8:13Z</time></trkpt>
<trkpt lat="46.2384605407715" lon="6.9837121963501"><ele></ele><time>2013-8-3T19:8:16Z</time></trkpt>
<trkpt lat="46.2384414672852" lon="6.98371839523315"><ele></ele><time>2013-8-3T19:8:19Z</time></trkpt>
<trkpt lat="46.2384262084961" lon="6.98373460769653"><ele></ele><time>2013-8-3T19:8:22Z</time></trkpt>
<trkpt lat="46.2384071350098" lon="6.98374509811401"><ele></ele><time>2013-8-3T19:8:25Z</time></trkpt>
<trkpt lat="46.238353729248" lon="6.98380422592163"><ele></ele><time>2013-8-3T19:8:28Z</time></trkpt>
<trkpt lat="46.2383155822754" lon="6.9838342666626"><ele></ele><time>2013-8-3T19:8:31Z</time></trkpt>
<trkpt lat="46.2383003234863" lon="6.98385095596314"><ele></ele><time>2013-8-3T19:8:34Z</time></trkpt>
<trkpt lat="46.2382926940918" lon="6.98385620117188"><ele></ele><time>2013-8-3T19:8:37Z</time></trkpt>
<trkpt lat="46.2382774353027" lon="6.98387432098389"><ele></ele><time>2013-8-3T19:8:40Z</time></trkpt>
<trkpt lat="46.2382621765137" lon="6.98388624191284"><ele></ele><time>2013-8-3T19:8:43Z</time></trkpt>
<trkpt lat="46.2382049560547" lon="6.98390626907349"><ele></ele><time>2013-8-3T19:8:46Z</time></trkpt>
<trkpt lat="46.2381973266602" lon="6.98390913009644"><ele></ele><time>2013-8-3T19:8:49Z</time></trkpt>
<trkpt lat="46.2381744384766" lon="6.98391485214233"><ele></ele><time>2013-8-3T19:8:52Z</time></trkpt>
<trkpt lat="46.2381553649902" lon="6.98392915725708"><ele></ele><time>2013-8-3T19:8:55Z</time></trkpt>
<trkpt lat="46.2381324768066" lon="6.98394775390625"><ele></ele><time>2013-8-3T19:8:58Z</time></trkpt>
<trkpt lat="46.2381210327148" lon="6.98395204544067"><ele></ele><time>2013-8-3T19:9:1Z</time></trkpt>
<trkpt lat="46.2380561828613" lon="6.98400592803955"><ele></ele><time>2013-8-3T19:9:4Z</time></trkpt>
<trkpt lat="46.238037109375" lon="6.98401927947998"><ele></ele><time>2013-8-3T19:9:7Z</time></trkpt>
<trkpt lat="46.2380180358887" lon="6.98403930664062"><ele></ele><time>2013-8-3T19:9:10Z</time></trkpt>
<trkpt lat="46.2379951477051" lon="6.98405265808106"><ele></ele><time>2013-8-3T19:9:13Z</time></trkpt>
<trkpt lat="46.2379760742188" lon="6.9840669631958"><ele></ele><time>2013-8-3T19:9:16Z</time></trkpt>
<trkpt lat="46.2379531860352" lon="6.98408842086792"><ele></ele><time>2013-8-3T19:9:19Z</time></trkpt>
<trkpt lat="46.2379188537598" lon="6.98410892486572"><ele></ele><time>2013-8-3T19:9:22Z</time></trkpt>
<trkpt lat="46.2378730773926" lon="6.98413419723511"><ele></ele><time>2013-8-3T19:9:25Z</time></trkpt>
<trkpt lat="46.2378540039062" lon="6.98413467407226"><ele></ele><time>2013-8-3T19:9:28Z</time></trkpt>
<trkpt lat="46.2378273010254" lon="6.98413133621216"><ele></ele><time>2013-8-3T19:9:31Z</time></trkpt>
<trkpt lat="46.2378044128418" lon="6.98413610458374"><ele></ele><time>2013-8-3T19:9:34Z</time></trkpt>
<trkpt lat="46.2377891540527" lon="6.98415088653564"><ele></ele><time>2013-8-3T19:9:37Z</time></trkpt>
<trkpt lat="46.237735748291" lon="6.9841890335083"><ele></ele><time>2013-8-3T19:9:40Z</time></trkpt>
<trkpt lat="46.2377014160156" lon="6.98419332504272"><ele></ele><time>2013-8-3T19:9:43Z</time></trkpt>
<trkpt lat="46.2376823425293" lon="6.98420524597168"><ele></ele><time>2013-8-3T19:9:46Z</time></trkpt>
<trkpt lat="46.237663269043" lon="6.98420476913452"><ele></ele><time>2013-8-3T19:9:49Z</time></trkpt>
<trkpt lat="46.2376480102539" lon="6.98421859741211"><ele></ele><time>2013-8-3T19:9:52Z</time></trkpt>
<trkpt lat="46.2376289367676" lon="6.98423385620117"><ele></ele><time>2013-8-3T19:9:55Z</time></trkpt>
<trkpt lat="46.2375984191894" lon="6.98426866531372"><ele></ele><time>2013-8-3T19:9:58Z</time></trkpt>
<trkpt lat="46.2375373840332" lon="6.98432683944702"><ele></ele><time>2013-8-3T19:10:1Z</time></trkpt>
<trkpt lat="46.2375221252441" lon="6.98434066772461"><ele></ele><time>2013-8-3T19:10:4Z</time></trkpt>
<trkpt lat="46.2375106811523" lon="6.98435401916504"><ele></ele><time>2013-8-3T19:10:7Z</time></trkpt>
<trkpt lat="46.2374992370606" lon="6.9843635559082"><ele></ele><time>2013-8-3T19:10:10Z</time></trkpt>
<trkpt lat="46.2374801635742" lon="6.98437452316284"><ele></ele><time>2013-8-3T19:10:13Z</time></trkpt>
<trkpt lat="46.2374229431152" lon="6.98442316055298"><ele></ele><time>2013-8-3T19:10:16Z</time></trkpt>
<trkpt lat="46.2373847961426" lon="6.98445749282837"><ele></ele><time>2013-8-3T19:10:19Z</time></trkpt>
<trkpt lat="46.2373657226562" lon="6.98446655273438"><ele></ele><time>2013-8-3T19:10:22Z</time></trkpt>
<trkpt lat="46.2373466491699" lon="6.98447370529175"><ele></ele><time>2013-8-3T19:10:25Z</time></trkpt>
<trkpt lat="46.2373275756836" lon="6.98448419570923"><ele></ele><time>2013-8-3T19:10:28Z</time></trkpt>
<trkpt lat="46.2373161315918" lon="6.98448801040649"><ele></ele><time>2013-8-3T19:10:31Z</time></trkpt>
<trkpt lat="46.2372703552246" lon="6.98451900482178"><ele></ele><time>2013-8-3T19:10:34Z</time></trkpt>
<trkpt lat="46.2372398376465" lon="6.98454809188843"><ele></ele><time>2013-8-3T19:10:37Z</time></trkpt>
<trkpt lat="46.2372207641602" lon="6.98455762863159"><ele></ele><time>2013-8-3T19:10:40Z</time></trkpt>
<trkpt lat="46.2371978759766" lon="6.98456382751465"><ele></ele><time>2013-8-3T19:10:43Z</time></trkpt>
<trkpt lat="46.2371788024902" lon="6.98456573486328"><ele></ele><time>2013-8-3T19:10:46Z</time></trkpt>
<trkpt lat="46.2371597290039" lon="6.98456811904907"><ele></ele><time>2013-8-3T19:10:49Z</time></trkpt>
<trkpt lat="46.237117767334" lon="6.98457288742065"><ele></ele><time>2013-8-3T19:10:52Z</time></trkpt>
<trkpt lat="46.2371025085449" lon="6.98457765579224"><ele></ele><time>2013-8-3T19:10:55Z</time></trkpt>
<trkpt lat="46.2370872497559" lon="6.98459005355835"><ele></ele><time>2013-8-3T19:10:58Z</time></trkpt>
<trkpt lat="46.2370758056641" lon="6.98459959030151"><ele></ele><time>2013-8-3T19:11:1Z</time></trkpt>
<trkpt lat="46.2370567321777" lon="6.98460817337036"><ele></ele><time>2013-8-3T19:11:4Z</time></trkpt>
<trkpt lat="46.2370262145996" lon="6.98461627960205"><ele></ele><time>2013-8-3T19:11:7Z</time></trkpt>
<trkpt lat="46.2369613647461" lon="6.98465490341186"><ele></ele><time>2013-8-3T19:11:10Z</time></trkpt>
<trkpt lat="46.2369422912598" lon="6.98465824127197"><ele></ele><time>2013-8-3T19:11:13Z</time></trkpt>
<trkpt lat="46.2369270324707" lon="6.98467111587524"><ele></ele><time>2013-8-3T19:11:16Z</time></trkpt>
<trkpt lat="46.2369079589844" lon="6.98468446731567"><ele></ele><time>2013-8-3T19:11:19Z</time></trkpt>
<trkpt lat="46.2368927001953" lon="6.98469114303589"><ele></ele><time>2013-8-3T19:11:22Z</time></trkpt>
<trkpt lat="46.2368850708008" lon="6.98470163345337"><ele></ele><time>2013-8-3T19:11:25Z</time></trkpt>
<trkpt lat="46.2368659973144" lon="6.98471403121948"><ele></ele><time>2013-8-3T19:11:28Z</time></trkpt>
<trkpt lat="46.2368316650391" lon="6.98473215103149"><ele></ele><time>2013-8-3T19:11:31Z</time></trkpt>
<trkpt lat="46.23681640625" lon="6.98474502563476"><ele></ele><time>2013-8-3T19:11:34Z</time></trkpt>
<trkpt lat="46.2368011474609" lon="6.98475933074951"><ele></ele><time>2013-8-3T19:11:37Z</time></trkpt>
<trkpt lat="46.2367858886719" lon="6.98476696014404"><ele></ele><time>2013-8-3T19:11:40Z</time></trkpt>
<trkpt lat="46.2367744445801" lon="6.98477792739868"><ele></ele><time>2013-8-3T19:11:43Z</time></trkpt>
<trkpt lat="46.236743927002" lon="6.98480415344238"><ele></ele><time>2013-8-3T19:11:46Z</time></trkpt>
<trkpt lat="46.236701965332" lon="6.98481702804565"><ele></ele><time>2013-8-3T19:11:49Z</time></trkpt>
<trkpt lat="46.2366561889648" lon="6.98483991622925"><ele></ele><time>2013-8-3T19:11:52Z</time></trkpt>
<trkpt lat="46.2366333007812" lon="6.98485231399536"><ele></ele><time>2013-8-3T19:11:55Z</time></trkpt>
<trkpt lat="46.2366218566894" lon="6.98486042022705"><ele></ele><time>2013-8-3T19:11:58Z</time></trkpt>
<trkpt lat="46.2366027832031" lon="6.98486185073852"><ele></ele><time>2013-8-3T19:12:1Z</time></trkpt>
<trkpt lat="46.2365837097168" lon="6.98486089706421"><ele></ele><time>2013-8-3T19:12:4Z</time></trkpt>
<trkpt lat="46.236515045166" lon="6.9848837852478"><ele></ele><time>2013-8-3T19:12:7Z</time></trkpt>
<trkpt lat="46.2364921569824" lon="6.98488998413086"><ele></ele><time>2013-8-3T19:12:10Z</time></trkpt>
<trkpt lat="46.2364768981934" lon="6.98488903045654"><ele></ele><time>2013-8-3T19:12:13Z</time></trkpt>
<trkpt lat="46.2364540100098" lon="6.98488569259644"><ele></ele><time>2013-8-3T19:12:16Z</time></trkpt>
<trkpt lat="46.2364349365234" lon="6.98488855361938"><ele></ele><time>2013-8-3T19:12:19Z</time></trkpt>
<trkpt lat="46.236385345459" lon="6.9848952293396"><ele></ele><time>2013-8-3T19:12:22Z</time></trkpt>
<trkpt lat="46.2363662719727" lon="6.98489475250244"><ele></ele><time>2013-8-3T19:12:25Z</time></trkpt>
<trkpt lat="46.2363510131836" lon="6.98489713668823"><ele></ele><time>2013-8-3T19:12:28Z</time></trkpt>
<trkpt lat="46.2363395690918" lon="6.98490142822266"><ele></ele><time>2013-8-3T19:12:31Z</time></trkpt>
<trkpt lat="46.2363243103027" lon="6.9848952293396"><ele></ele><time>2013-8-3T19:12:34Z</time></trkpt>
<trkpt lat="46.2362861633301" lon="6.98489809036255"><ele></ele><time>2013-8-3T19:12:37Z</time></trkpt>
<trkpt lat="46.2362327575684" lon="6.98488569259644"><ele></ele><time>2013-8-3T19:12:40Z</time></trkpt>
<trkpt lat="46.2362174987793" lon="6.98488855361938"><ele></ele><time>2013-8-3T19:12:43Z</time></trkpt>
<trkpt lat="46.236198425293" lon="6.98489427566528"><ele></ele><time>2013-8-3T19:12:46Z</time></trkpt>
<trkpt lat="46.2361831665039" lon="6.98489427566528"><ele></ele><time>2013-8-3T19:12:49Z</time></trkpt>
<trkpt lat="46.2361679077148" lon="6.98489427566528"><ele></ele><time>2013-8-3T19:12:52Z</time></trkpt>
<trkpt lat="46.2361068725586" lon="6.98489618301392"><ele></ele><time>2013-8-3T19:12:55Z</time></trkpt>
<trkpt lat="46.2360382080078" lon="6.98490810394287"><ele></ele><time>2013-8-3T19:12:58Z</time></trkpt>
<trkpt lat="46.2360191345215" lon="6.98491525650024"><ele></ele><time>2013-8-3T19:13:1Z</time></trkpt>
<trkpt lat="46.2360000610352" lon="6.98490953445435"><ele></ele><time>2013-8-3T19:13:4Z</time></trkpt>
<trkpt lat="46.2359771728516" lon="6.98491287231445"><ele></ele><time>2013-8-3T19:13:7Z</time></trkpt>
<trkpt lat="46.2358779907227" lon="6.98492908477783"><ele></ele><time>2013-8-3T19:13:10Z</time></trkpt>
<trkpt lat="46.2357749938965" lon="6.98494911193848"><ele></ele><time>2013-8-3T19:13:13Z</time></trkpt>
<trkpt lat="46.2357482910156" lon="6.98495864868164"><ele></ele><time>2013-8-3T19:13:16Z</time></trkpt>
<trkpt lat="46.235725402832" lon="6.98495721817017"><ele></ele><time>2013-8-3T19:13:19Z</time></trkpt>
<trkpt lat="46.2357025146484" lon="6.98495960235596"><ele></ele><time>2013-8-3T19:13:22Z</time></trkpt>
<trkpt lat="46.2356834411621" lon="6.98496198654175"><ele></ele><time>2013-8-3T19:13:25Z</time></trkpt>
<trkpt lat="46.2355842590332" lon="6.98499965667725"><ele></ele><time>2013-8-3T19:13:28Z</time></trkpt>
<trkpt lat="46.2355422973633" lon="6.98500967025757"><ele></ele><time>2013-8-3T19:13:31Z</time></trkpt>
<trkpt lat="46.2355194091797" lon="6.98502206802368"><ele></ele><time>2013-8-3T19:13:34Z</time></trkpt>
<trkpt lat="46.2354965209961" lon="6.98503494262695"><ele></ele><time>2013-8-3T19:13:37Z</time></trkpt>
<trkpt lat="46.2354774475098" lon="6.98504114151001"><ele></ele><time>2013-8-3T19:13:40Z</time></trkpt>
<trkpt lat="46.2354583740234" lon="6.98505401611328"><ele></ele><time>2013-8-3T19:13:43Z</time></trkpt>
<trkpt lat="46.2354164123535" lon="6.98507690429688"><ele></ele><time>2013-8-3T19:13:46Z</time></trkpt>
<trkpt lat="46.2352714538574" lon="6.98514175415039"><ele></ele><time>2013-8-3T19:13:49Z</time></trkpt>
<trkpt lat="46.2352485656738" lon="6.98515033721924"><ele></ele><time>2013-8-3T19:13:52Z</time></trkpt>
<trkpt lat="46.2352294921875" lon="6.98516511917114"><ele></ele><time>2013-8-3T19:13:55Z</time></trkpt>
<trkpt lat="46.2352066040039" lon="6.98517465591431"><ele></ele><time>2013-8-3T19:13:58Z</time></trkpt>
<trkpt lat="46.235179901123" lon="6.98518228530884"><ele></ele><time>2013-8-3T19:14:1Z</time></trkpt>
<trkpt lat="46.2351341247559" lon="6.9851861000061"><ele></ele><time>2013-8-3T19:14:4Z</time></trkpt>
<trkpt lat="46.2349853515625" lon="6.98519515991211"><ele></ele><time>2013-8-3T19:14:7Z</time></trkpt>
<trkpt lat="46.2349624633789" lon="6.98519420623779"><ele></ele><time>2013-8-3T19:14:10Z</time></trkpt>
<trkpt lat="46.2349395751953" lon="6.98520183563232"><ele></ele><time>2013-8-3T19:14:13Z</time></trkpt>
<trkpt lat="46.2349166870117" lon="6.98520421981812"><ele></ele><time>2013-8-3T19:14:16Z</time></trkpt>
<trkpt lat="46.2348937988281" lon="6.9852089881897"><ele></ele><time>2013-8-3T19:14:19Z</time></trkpt>
<trkpt lat="46.2348556518555" lon="6.98520517349243"><ele></ele><time>2013-8-3T19:14:22Z</time></trkpt>
<trkpt lat="46.2347717285156" lon="6.98519992828369"><ele></ele><time>2013-8-3T19:14:25Z</time></trkpt>
<trkpt lat="46.2347526550293" lon="6.98520565032959"><ele></ele><time>2013-8-3T19:14:28Z</time></trkpt>
<trkpt lat="46.2347297668457" lon="6.98521280288696"><ele></ele><time>2013-8-3T19:14:31Z</time></trkpt>
<trkpt lat="46.2347106933594" lon="6.98522090911865"><ele></ele><time>2013-8-3T19:14:34Z</time></trkpt>
<trkpt lat="46.2346954345703" lon="6.9852237701416"><ele></ele><time>2013-8-3T19:14:37Z</time></trkpt>
<trkpt lat="46.2346420288086" lon="6.98523044586182"><ele></ele><time>2013-8-3T19:14:40Z</time></trkpt>
<trkpt lat="46.2345657348633" lon="6.98524761199951"><ele></ele><time>2013-8-3T19:14:43Z</time></trkpt>
<trkpt lat="46.234546661377" lon="6.98525190353394"><ele></ele><time>2013-8-3T19:14:46Z</time></trkpt>
<trkpt lat="46.2345275878906" lon="6.98525953292847"><ele></ele><time>2013-8-3T19:14:49Z</time></trkpt>
<trkpt lat="46.2345123291016" lon="6.9852728843689"><ele></ele><time>2013-8-3T19:14:52Z</time></trkpt>
<trkpt lat="46.2344932556152" lon="6.98527479171753"><ele></ele><time>2013-8-3T19:14:55Z</time></trkpt>
<trkpt lat="46.2344398498535" lon="6.98529291152954"><ele></ele><time>2013-8-3T19:14:58Z</time></trkpt>
<trkpt lat="46.2344245910644" lon="6.9852933883667"><ele></ele><time>2013-8-3T19:15:1Z</time></trkpt>
<trkpt lat="46.2344093322754" lon="6.98528623580933"><ele></ele><time>2013-8-3T19:15:4Z</time></trkpt>
<trkpt lat="46.2343940734863" lon="6.9852876663208"><ele></ele><time>2013-8-3T19:15:7Z</time></trkpt>
<trkpt lat="46.2343711853027" lon="6.98529100418091"><ele></ele><time>2013-8-3T19:15:10Z</time></trkpt>
<trkpt lat="46.2343482971191" lon="6.98529386520386"><ele></ele><time>2013-8-3T19:15:13Z</time></trkpt>
<trkpt lat="46.2343292236328" lon="6.98529958724976"><ele></ele><time>2013-8-3T19:15:16Z</time></trkpt>
<trkpt lat="46.234260559082" lon="6.98529863357544"><ele></ele><time>2013-8-3T19:15:19Z</time></trkpt>
<trkpt lat="46.2342414855957" lon="6.9853048324585"><ele></ele><time>2013-8-3T19:15:22Z</time></trkpt>
<trkpt lat="46.2342262268066" lon="6.9852933883667"><ele></ele><time>2013-8-3T19:15:25Z</time></trkpt>
<trkpt lat="46.2342071533203" lon="6.9852876663208"><ele></ele><time>2013-8-3T19:15:28Z</time></trkpt>
<trkpt lat="46.2341842651367" lon="6.98528575897217"><ele></ele><time>2013-8-3T19:15:31Z</time></trkpt>
<trkpt lat="46.2340965270996" lon="6.98528003692627"><ele></ele><time>2013-8-3T19:15:34Z</time></trkpt>
<trkpt lat="46.2340774536133" lon="6.98528146743774"><ele></ele><time>2013-8-3T19:15:37Z</time></trkpt>
<trkpt lat="46.2340621948242" lon="6.98527479171753"><ele></ele><time>2013-8-3T19:15:40Z</time></trkpt>
<trkpt lat="46.2340469360352" lon="6.98527097702026"><ele></ele><time>2013-8-3T19:15:43Z</time></trkpt>
<trkpt lat="46.2340316772461" lon="6.98526906967163"><ele></ele><time>2013-8-3T19:15:46Z</time></trkpt>
<trkpt lat="46.2339820861816" lon="6.98527526855469"><ele></ele><time>2013-8-3T19:15:49Z</time></trkpt>
<trkpt lat="46.2339477539062" lon="6.98527479171753"><ele></ele><time>2013-8-3T19:15:52Z</time></trkpt>
<trkpt lat="46.2339286804199" lon="6.98527431488037"><ele></ele><time>2013-8-3T19:15:55Z</time></trkpt>
<trkpt lat="46.2339096069336" lon="6.98526811599732"><ele></ele><time>2013-8-3T19:15:58Z</time></trkpt>
<trkpt lat="46.2338905334473" lon="6.98527431488037"><ele></ele><time>2013-8-3T19:16:1Z</time></trkpt>
<trkpt lat="46.2338676452637" lon="6.98527145385742"><ele></ele><time>2013-8-3T19:16:4Z</time></trkpt>
<trkpt lat="46.233814239502" lon="6.9852876663208"><ele></ele><time>2013-8-3T19:16:7Z</time></trkpt>
<trkpt lat="46.2337837219238" lon="6.98527812957764"><ele></ele><time>2013-8-3T19:16:10Z</time></trkpt>
<trkpt lat="46.2337646484375" lon="6.98528575897217"><ele></ele><time>2013-8-3T19:16:13Z</time></trkpt>
<trkpt lat="46.2337455749512" lon="6.98528861999512"><ele></ele><time>2013-8-3T19:16:16Z</time></trkpt>
<trkpt lat="46.2337226867676" lon="6.9852933883667"><ele></ele><time>2013-8-3T19:16:19Z</time></trkpt>
<trkpt lat="46.2337036132812" lon="6.98528718948364"><ele></ele><time>2013-8-3T19:16:22Z</time></trkpt>
<trkpt lat="46.2336692810059" lon="6.98528003692627"><ele></ele><time>2013-8-3T19:16:25Z</time></trkpt>
<trkpt lat="46.2336044311523" lon="6.98527717590332"><ele></ele><time>2013-8-3T19:16:28Z</time></trkpt>
<trkpt lat="46.233585357666" lon="6.9852819442749"><ele></ele><time>2013-8-3T19:16:31Z</time></trkpt>
<trkpt lat="46.2335662841797" lon="6.98528289794922"><ele></ele><time>2013-8-3T19:16:34Z</time></trkpt>
<trkpt lat="46.2335472106934" lon="6.98528337478638"><ele></ele><time>2013-8-3T19:16:37Z</time></trkpt>
<trkpt lat="46.2334365844727" lon="6.98528289794922"><ele></ele><time>2013-8-3T19:16:40Z</time></trkpt>
<trkpt lat="46.2334175109863" lon="6.98528099060059"><ele></ele><time>2013-8-3T19:16:43Z</time></trkpt>
<trkpt lat="46.2333984375" lon="6.98527574539185"><ele></ele><time>2013-8-3T19:16:46Z</time></trkpt>
<trkpt lat="46.2333793640137" lon="6.98527765274048"><ele></ele><time>2013-8-3T19:16:49Z</time></trkpt>
<trkpt lat="46.2333602905273" lon="6.98528051376343"><ele></ele><time>2013-8-3T19:16:52Z</time></trkpt>
<trkpt lat="46.2333030700684" lon="6.98528051376343"><ele></ele><time>2013-8-3T19:16:55Z</time></trkpt>
<trkpt lat="46.2332992553711" lon="6.98528003692627"><ele></ele><time>2013-8-3T19:16:58Z</time></trkpt>
<trkpt lat="46.2332878112793" lon="6.98527097702026"><ele></ele><time>2013-8-3T19:17:1Z</time></trkpt>
<trkpt lat="46.2332725524902" lon="6.98525810241699"><ele></ele><time>2013-8-3T19:17:4Z</time></trkpt>
<trkpt lat="46.2332572937012" lon="6.98525953292847"><ele></ele><time>2013-8-3T19:17:7Z</time></trkpt>
<trkpt lat="46.2332458496094" lon="6.98526525497436"><ele></ele><time>2013-8-3T19:17:10Z</time></trkpt>
<trkpt lat="46.233211517334" lon="6.98526430130005"><ele></ele><time>2013-8-3T19:17:13Z</time></trkpt>
<trkpt lat="46.2331466674805" lon="6.98525905609131"><ele></ele><time>2013-8-3T19:17:16Z</time></trkpt>
<trkpt lat="46.2331314086914" lon="6.98525428771973"><ele></ele><time>2013-8-3T19:17:19Z</time></trkpt>
<trkpt lat="46.2331161499023" lon="6.98524045944214"><ele></ele><time>2013-8-3T19:17:22Z</time></trkpt>
<trkpt lat="46.2331047058106" lon="6.98522901535034"><ele></ele><time>2013-8-3T19:17:25Z</time></trkpt>
<trkpt lat="46.2330093383789" lon="6.98520755767822"><ele></ele><time>2013-8-3T19:17:28Z</time></trkpt>
<trkpt lat="46.232982635498" lon="6.98519992828369"><ele></ele><time>2013-8-3T19:17:31Z</time></trkpt>
<trkpt lat="46.232967376709" lon="6.98519229888916"><ele></ele><time>2013-8-3T19:17:34Z</time></trkpt>
<trkpt lat="46.2329483032227" lon="6.98519468307495"><ele></ele><time>2013-8-3T19:17:37Z</time></trkpt>
<trkpt lat="46.2329216003418" lon="6.98520088195801"><ele></ele><time>2013-8-3T19:17:40Z</time></trkpt>
<trkpt lat="46.2328796386719" lon="6.98519468307495"><ele></ele><time>2013-8-3T19:17:43Z</time></trkpt>
<trkpt lat="46.2328567504883" lon="6.98519897460938"><ele></ele><time>2013-8-3T19:17:46Z</time></trkpt>
<trkpt lat="46.2328186035156" lon="6.98519229888916"><ele></ele><time>2013-8-3T19:17:49Z</time></trkpt>
<trkpt lat="46.2327995300293" lon="6.98519086837768"><ele></ele><time>2013-8-3T19:17:52Z</time></trkpt>
<trkpt lat="46.2327842712402" lon="6.98518753051758"><ele></ele><time>2013-8-3T19:17:55Z</time></trkpt>
<trkpt lat="46.2327613830566" lon="6.985191822052"><ele></ele><time>2013-8-3T19:17:58Z</time></trkpt>
<trkpt lat="46.2327461242676" lon="6.98519134521484"><ele></ele><time>2013-8-3T19:18:1Z</time></trkpt>
<trkpt lat="46.2326698303223" lon="6.98520231246948"><ele></ele><time>2013-8-3T19:18:4Z</time></trkpt>
<trkpt lat="46.2326545715332" lon="6.98520088195801"><ele></ele><time>2013-8-3T19:18:7Z</time></trkpt>
<trkpt lat="46.2326354980469" lon="6.98520135879517"><ele></ele><time>2013-8-3T19:18:10Z</time></trkpt>
<trkpt lat="46.2326202392578" lon="6.98520183563232"><ele></ele><time>2013-8-3T19:18:13Z</time></trkpt>
<trkpt lat="46.2326011657715" lon="6.98519706726074"><ele></ele><time>2013-8-3T19:18:16Z</time></trkpt>
<trkpt lat="46.2325019836426" lon="6.98519325256348"><ele></ele><time>2013-8-3T19:18:19Z</time></trkpt>
<trkpt lat="46.2324867248535" lon="6.98518991470337"><ele></ele><time>2013-8-3T19:18:22Z</time></trkpt>
<trkpt lat="46.2324676513672" lon="6.98518371582031"><ele></ele><time>2013-8-3T19:18:25Z</time></trkpt>
<trkpt lat="46.2324523925781" lon="6.98518133163452"><ele></ele><time>2013-8-3T19:18:28Z</time></trkpt>
<trkpt lat="46.2324371337891" lon="6.98518562316894"><ele></ele><time>2013-8-3T19:18:31Z</time></trkpt>
<trkpt lat="46.2323532104492" lon="6.98516607284546"><ele></ele><time>2013-8-3T19:18:34Z</time></trkpt>
<trkpt lat="46.2323379516602" lon="6.98516321182251"><ele></ele><time>2013-8-3T19:18:37Z</time></trkpt>
<trkpt lat="46.2323188781738" lon="6.98515844345093"><ele></ele><time>2013-8-3T19:18:40Z</time></trkpt>
<trkpt lat="46.2322998046875" lon="6.98515176773071"><ele></ele><time>2013-8-3T19:18:43Z</time></trkpt>
<trkpt lat="46.2322807312012" lon="6.98514986038208"><ele></ele><time>2013-8-3T19:18:46Z</time></trkpt>
<trkpt lat="46.2322616577148" lon="6.98514556884766"><ele></ele><time>2013-8-3T19:18:49Z</time></trkpt>
<trkpt lat="46.2322082519531" lon="6.98513841629028"><ele></ele><time>2013-8-3T19:18:52Z</time></trkpt>
<trkpt lat="46.2321701049805" lon="6.98514795303345"><ele></ele><time>2013-8-3T19:18:55Z</time></trkpt>
<trkpt lat="46.2321510314941" lon="6.9851541519165"><ele></ele><time>2013-8-3T19:18:58Z</time></trkpt>
<trkpt lat="46.2321319580078" lon="6.98516273498535"><ele></ele><time>2013-8-3T19:19:1Z</time></trkpt>
<trkpt lat="46.2321166992188" lon="6.98517084121704"><ele></ele><time>2013-8-3T19:19:4Z</time></trkpt>
<trkpt lat="46.2320976257324" lon="6.98517942428589"><ele></ele><time>2013-8-3T19:19:7Z</time></trkpt>
<trkpt lat="46.2320823669434" lon="6.98518705368042"><ele></ele><time>2013-8-3T19:19:10Z</time></trkpt>
<trkpt lat="46.2319564819336" lon="6.98525714874268"><ele></ele><time>2013-8-3T19:19:13Z</time></trkpt>
<trkpt lat="46.2319374084473" lon="6.98526954650879"><ele></ele><time>2013-8-3T19:19:16Z</time></trkpt>
<trkpt lat="46.2319221496582" lon="6.98528003692627"><ele></ele><time>2013-8-3T19:19:19Z</time></trkpt>
<trkpt lat="46.2319068908691" lon="6.98528861999512"><ele></ele><time>2013-8-3T19:19:22Z</time></trkpt>
<trkpt lat="46.2318878173828" lon="6.98529815673828"><ele></ele><time>2013-8-3T19:19:25Z</time></trkpt>
<trkpt lat="46.2317810058594" lon="6.98533916473389"><ele></ele><time>2013-8-3T19:19:28Z</time></trkpt>
<trkpt lat="46.231761932373" lon="6.98534870147705"><ele></ele><time>2013-8-3T19:19:31Z</time></trkpt>
<trkpt lat="46.231746673584" lon="6.98535776138306"><ele></ele><time>2013-8-3T19:19:34Z</time></trkpt>
<trkpt lat="46.2317314147949" lon="6.98536682128906"><ele></ele><time>2013-8-3T19:19:37Z</time></trkpt>
<trkpt lat="46.2317123413086" lon="6.98537683486938"><ele></ele><time>2013-8-3T19:19:40Z</time></trkpt>
<trkpt lat="46.2316474914551" lon="6.9854154586792"><ele></ele><time>2013-8-3T19:19:43Z</time></trkpt>
<trkpt lat="46.2315940856934" lon="6.98545789718628"><ele></ele><time>2013-8-3T19:19:46Z</time></trkpt>
<trkpt lat="46.2315788269043" lon="6.98547220230102"><ele></ele><time>2013-8-3T19:19:49Z</time></trkpt>
<trkpt lat="46.2315635681152" lon="6.98548650741577"><ele></ele><time>2013-8-3T19:19:52Z</time></trkpt>
<trkpt lat="46.2315444946289" lon="6.98550033569336"><ele></ele><time>2013-8-3T19:19:55Z</time></trkpt>
<trkpt lat="46.2315292358398" lon="6.98551368713379"><ele></ele><time>2013-8-3T19:19:58Z</time></trkpt>
<trkpt lat="46.2314987182617" lon="6.9855489730835"><ele></ele><time>2013-8-3T19:20:1Z</time></trkpt>
<trkpt lat="46.2314796447754" lon="6.98556613922119"><ele></ele><time>2013-8-3T19:20:4Z</time></trkpt>
<trkpt lat="46.2314643859863" lon="6.98558235168457"><ele></ele><time>2013-8-3T19:20:7Z</time></trkpt>
<trkpt lat="46.2314491271973" lon="6.98560380935669"><ele></ele><time>2013-8-3T19:20:10Z</time></trkpt>
<trkpt lat="46.2314338684082" lon="6.98562622070312"><ele></ele><time>2013-8-3T19:20:13Z</time></trkpt>
<trkpt lat="46.2313995361328" lon="6.98569536209106"><ele></ele><time>2013-8-3T19:20:16Z</time></trkpt>
<trkpt lat="46.2313117980957" lon="6.98585557937622"><ele></ele><time>2013-8-3T19:20:19Z</time></trkpt>
<trkpt lat="46.2312965393066" lon="6.98587656021118"><ele></ele><time>2013-8-3T19:20:22Z</time></trkpt>
<trkpt lat="46.2312812805176" lon="6.98589611053467"><ele></ele><time>2013-8-3T19:20:25Z</time></trkpt>
<trkpt lat="46.2312622070312" lon="6.98591566085815"><ele></ele><time>2013-8-3T19:20:28Z</time></trkpt>
<trkpt lat="46.2312469482422" lon="6.98593378067017"><ele></ele><time>2013-8-3T19:20:31Z</time></trkpt>
<trkpt lat="46.2311935424805" lon="6.98598289489746"><ele></ele><time>2013-8-3T19:20:34Z</time></trkpt>
<trkpt lat="46.2310943603516" lon="6.98611450195312"><ele></ele><time>2013-8-3T19:20:37Z</time></trkpt>
<trkpt lat="46.231086730957" lon="6.98613977432251"><ele></ele><time>2013-8-3T19:20:40Z</time></trkpt>
<trkpt lat="46.2310791015625" lon="6.98616600036621"><ele></ele><time>2013-8-3T19:20:43Z</time></trkpt>
<trkpt lat="46.231071472168" lon="6.98619174957275"><ele></ele><time>2013-8-3T19:20:46Z</time></trkpt>
<trkpt lat="46.2310676574707" lon="6.98621845245361"><ele></ele><time>2013-8-3T19:20:49Z</time></trkpt>
<trkpt lat="46.2310638427734" lon="6.98630714416504"><ele></ele><time>2013-8-3T19:20:52Z</time></trkpt>
<trkpt lat="46.2310447692871" lon="6.98645877838135"><ele></ele><time>2013-8-3T19:20:55Z</time></trkpt>
<trkpt lat="46.2310409545898" lon="6.98648738861084"><ele></ele><time>2013-8-3T19:20:58Z</time></trkpt>
<trkpt lat="46.2310333251953" lon="6.98651504516602"><ele></ele><time>2013-8-3T19:21:1Z</time></trkpt>
<trkpt lat="46.2310256958008" lon="6.98654317855835"><ele></ele><time>2013-8-3T19:21:4Z</time></trkpt>
<trkpt lat="46.2310104370117" lon="6.98656940460205"><ele></ele><time>2013-8-3T19:21:7Z</time></trkpt>
<trkpt lat="46.2309875488281" lon="6.98661231994629"><ele></ele><time>2013-8-3T19:21:10Z</time></trkpt>
<trkpt lat="46.2308883666992" lon="6.9866886138916"><ele></ele><time>2013-8-3T19:21:13Z</time></trkpt>
<trkpt lat="46.2308731079102" lon="6.98668193817139"><ele></ele><time>2013-8-3T19:21:16Z</time></trkpt>
<trkpt lat="46.2308540344238" lon="6.9866738319397"><ele></ele><time>2013-8-3T19:21:19Z</time></trkpt>
<trkpt lat="46.2308387756348" lon="6.98666191101074"><ele></ele><time>2013-8-3T19:21:22Z</time></trkpt>
<trkpt lat="46.2308235168457" lon="6.98664999008179"><ele></ele><time>2013-8-3T19:21:25Z</time></trkpt>
<trkpt lat="46.2307891845703" lon="6.98661756515503"><ele></ele><time>2013-8-3T19:21:28Z</time></trkpt>
<trkpt lat="46.2306823730469" lon="6.98649883270264"><ele></ele><time>2013-8-3T19:21:31Z</time></trkpt>
<trkpt lat="46.2306671142578" lon="6.98647975921631"><ele></ele><time>2013-8-3T19:21:34Z</time></trkpt>
<trkpt lat="46.230655670166" lon="6.98646116256714"><ele></ele><time>2013-8-3T19:21:37Z</time></trkpt>
<trkpt lat="46.2306365966797" lon="6.98644351959228"><ele></ele><time>2013-8-3T19:21:40Z</time></trkpt>
<trkpt lat="46.2306213378906" lon="6.98642492294312"><ele></ele><time>2013-8-3T19:21:43Z</time></trkpt>
<trkpt lat="46.2306022644043" lon="6.98640823364258"><ele></ele><time>2013-8-3T19:21:46Z</time></trkpt>
<trkpt lat="46.2305870056152" lon="6.98638916015625"><ele></ele><time>2013-8-3T19:21:49Z</time></trkpt>
<trkpt lat="46.2304954528809" lon="6.98626375198364"><ele></ele><time>2013-8-3T19:21:52Z</time></trkpt>
<trkpt lat="46.2304611206055" lon="6.98623466491699"><ele></ele><time>2013-8-3T19:21:55Z</time></trkpt>
<trkpt lat="46.2304420471191" lon="6.98622512817383"><ele></ele><time>2013-8-3T19:21:58Z</time></trkpt>
<trkpt lat="46.2304191589356" lon="6.98621797561646"><ele></ele><time>2013-8-3T19:22:1Z</time></trkpt>
<trkpt lat="46.230396270752" lon="6.98621463775635"><ele></ele><time>2013-8-3T19:22:4Z</time></trkpt>
<trkpt lat="46.2303733825684" lon="6.98621416091919"><ele></ele><time>2013-8-3T19:22:7Z</time></trkpt>
<trkpt lat="46.2302742004394" lon="6.98630428314209"><ele></ele><time>2013-8-3T19:22:10Z</time></trkpt>
<trkpt lat="46.2302780151367" lon="6.98648405075073"><ele></ele><time>2013-8-3T19:22:13Z</time></trkpt>
<trkpt lat="46.230281829834" lon="6.98652076721191"><ele></ele><time>2013-8-3T19:22:16Z</time></trkpt>
<trkpt lat="46.2302856445312" lon="6.9865574836731"><ele></ele><time>2013-8-3T19:22:19Z</time></trkpt>
<trkpt lat="46.2302932739258" lon="6.98659133911133"><ele></ele><time>2013-8-3T19:22:22Z</time></trkpt>
<trkpt lat="46.2303047180176" lon="6.98662328720093"><ele></ele><time>2013-8-3T19:22:25Z</time></trkpt>
<trkpt lat="46.2303123474121" lon="6.98665761947632"><ele></ele><time>2013-8-3T19:22:28Z</time></trkpt>
<trkpt lat="46.2303199768066" lon="6.98669147491455"><ele></ele><time>2013-8-3T19:22:31Z</time></trkpt>
<trkpt lat="46.2303428649902" lon="6.98682594299316"><ele></ele><time>2013-8-3T19:22:34Z</time></trkpt>
<trkpt lat="46.230354309082" lon="6.98691844940186"><ele></ele><time>2013-8-3T19:22:37Z</time></trkpt>
<trkpt lat="46.2303657531738" lon="6.98697757720947"><ele></ele><time>2013-8-3T19:22:40Z</time></trkpt>
<trkpt lat="46.2303771972656" lon="6.98701000213623"><ele></ele><time>2013-8-3T19:22:43Z</time></trkpt>
<trkpt lat="46.2303810119629" lon="6.98703718185425"><ele></ele><time>2013-8-3T19:22:46Z</time></trkpt>
<trkpt lat="46.2303848266602" lon="6.9870662689209"><ele></ele><time>2013-8-3T19:22:49Z</time></trkpt>
<trkpt lat="46.2303848266602" lon="6.98709774017334"><ele></ele><time>2013-8-3T19:22:52Z</time></trkpt>
<trkpt lat="46.2303886413574" lon="6.9871301651001"><ele></ele><time>2013-8-3T19:22:55Z</time></trkpt>
<trkpt lat="46.2303466796875" lon="6.98720073699951"><ele></ele><time>2013-8-3T19:22:58Z</time></trkpt>
<trkpt lat="46.2303237915039" lon="6.98721218109131"><ele></ele><time>2013-8-3T19:23:1Z</time></trkpt>
<trkpt lat="46.2302513122559" lon="6.98717927932739"><ele></ele><time>2013-8-3T19:23:4Z</time></trkpt>
<trkpt lat="46.2302436828613" lon="6.9871678352356"><ele></ele><time>2013-8-3T19:23:7Z</time></trkpt>
<trkpt lat="46.2302360534668" lon="6.98715257644653"><ele></ele><time>2013-8-3T19:23:10Z</time></trkpt>
<trkpt lat="46.230224609375" lon="6.98713731765747"><ele></ele><time>2013-8-3T19:23:13Z</time></trkpt>
<trkpt lat="46.2302169799805" lon="6.98712301254272"><ele></ele><time>2013-8-3T19:23:16Z</time></trkpt>
<trkpt lat="46.2301788330078" lon="6.98705530166626"><ele></ele><time>2013-8-3T19:23:19Z</time></trkpt>
<trkpt lat="46.2301635742188" lon="6.98700666427612"><ele></ele><time>2013-8-3T19:23:22Z</time></trkpt>
<trkpt lat="46.2301559448242" lon="6.98698472976685"><ele></ele><time>2013-8-3T19:23:25Z</time></trkpt>
<trkpt lat="46.2301445007324" lon="6.9869647026062"><ele></ele><time>2013-8-3T19:23:28Z</time></trkpt>
<trkpt lat="46.2301368713379" lon="6.98694276809692"><ele></ele><time>2013-8-3T19:23:31Z</time></trkpt>
<trkpt lat="46.2301292419434" lon="6.98692417144775"><ele></ele><time>2013-8-3T19:23:34Z</time></trkpt>
<trkpt lat="46.2301177978516" lon="6.98690032958984"><ele></ele><time>2013-8-3T19:23:37Z</time></trkpt>
<trkpt lat="46.230110168457" lon="6.98688411712646"><ele></ele><time>2013-8-3T19:23:40Z</time></trkpt>
<trkpt lat="46.2301025390625" lon="6.98686170578003"><ele></ele><time>2013-8-3T19:23:43Z</time></trkpt>
<trkpt lat="46.230094909668" lon="6.98683643341064"><ele></ele><time>2013-8-3T19:23:46Z</time></trkpt>
<trkpt lat="46.2300872802734" lon="6.98681545257568"><ele></ele><time>2013-8-3T19:23:49Z</time></trkpt>
<trkpt lat="46.2300834655762" lon="6.98679494857788"><ele></ele><time>2013-8-3T19:23:52Z</time></trkpt>
<trkpt lat="46.2300796508789" lon="6.98677206039429"><ele></ele><time>2013-8-3T19:23:55Z</time></trkpt>
<trkpt lat="46.2300796508789" lon="6.98675441741943"><ele></ele><time>2013-8-3T19:23:58Z</time></trkpt>
<trkpt lat="46.2300796508789" lon="6.98673486709595"><ele></ele><time>2013-8-3T19:24:1Z</time></trkpt>
<trkpt lat="46.2300720214844" lon="6.9867148399353"><ele></ele><time>2013-8-3T19:24:4Z</time></trkpt>
<trkpt lat="46.2300262451172" lon="6.98666286468506"><ele></ele><time>2013-8-3T19:24:7Z</time></trkpt>
<trkpt lat="46.2300109863281" lon="6.98664379119873"><ele></ele><time>2013-8-3T19:24:10Z</time></trkpt>
<trkpt lat="46.2299652099609" lon="6.98656702041626"><ele></ele><time>2013-8-3T19:24:13Z</time></trkpt>
<trkpt lat="46.2299499511719" lon="6.98654651641846"><ele></ele><time>2013-8-3T19:24:16Z</time></trkpt>
<trkpt lat="46.2298889160156" lon="6.98645925521851"><ele></ele><time>2013-8-3T19:24:19Z</time></trkpt>
<trkpt lat="46.2298469543457" lon="6.98642683029175"><ele></ele><time>2013-8-3T19:24:22Z</time></trkpt>
<trkpt lat="46.2298240661621" lon="6.98641586303711"><ele></ele><time>2013-8-3T19:24:25Z</time></trkpt>
<trkpt lat="46.2298011779785" lon="6.986403465271"><ele></ele><time>2013-8-3T19:24:28Z</time></trkpt>
<trkpt lat="46.2297821044922" lon="6.98639297485352"><ele></ele><time>2013-8-3T19:24:31Z</time></trkpt>
<trkpt lat="46.2297630310059" lon="6.98638105392456"><ele></ele><time>2013-8-3T19:24:34Z</time></trkpt>
<trkpt lat="46.2297477722168" lon="6.98637056350708"><ele></ele><time>2013-8-3T19:24:37Z</time></trkpt>
<trkpt lat="46.2297286987305" lon="6.98636245727539"><ele></ele><time>2013-8-3T19:24:40Z</time></trkpt>
<trkpt lat="46.2296524047852" lon="6.98637390136719"><ele></ele><time>2013-8-3T19:24:43Z</time></trkpt>
<trkpt lat="46.2296180725098" lon="6.98639535903931"><ele></ele><time>2013-8-3T19:24:46Z</time></trkpt>
<trkpt lat="46.2295989990234" lon="6.98640727996826"><ele></ele><time>2013-8-3T19:24:49Z</time></trkpt>
<trkpt lat="46.2295837402344" lon="6.98642110824585"><ele></ele><time>2013-8-3T19:24:52Z</time></trkpt>
<trkpt lat="46.2295684814453" lon="6.98643636703491"><ele></ele><time>2013-8-3T19:24:55Z</time></trkpt>
<trkpt lat="46.2295608520508" lon="6.98644781112671"><ele></ele><time>2013-8-3T19:24:58Z</time></trkpt>
<trkpt lat="46.229549407959" lon="6.98645973205566"><ele></ele><time>2013-8-3T19:25:1Z</time></trkpt>
<trkpt lat="46.2295455932617" lon="6.98646354675293"><ele></ele><time>2013-8-3T19:25:4Z</time></trkpt>
<trkpt lat="46.2295341491699" lon="6.98646688461304"><ele></ele><time>2013-8-3T19:25:7Z</time></trkpt>
<trkpt lat="46.2294998168945" lon="6.98650312423706"><ele></ele><time>2013-8-3T19:25:10Z</time></trkpt>
<trkpt lat="46.2294883728027" lon="6.98652362823486"><ele></ele><time>2013-8-3T19:25:13Z</time></trkpt>
<trkpt lat="46.2294769287109" lon="6.98654222488403"><ele></ele><time>2013-8-3T19:25:16Z</time></trkpt>
<trkpt lat="46.2294654846191" lon="6.9865574836731"><ele></ele><time>2013-8-3T19:25:19Z</time></trkpt>
<trkpt lat="46.2294502258301" lon="6.98657608032226"><ele></ele><time>2013-8-3T19:25:22Z</time></trkpt>
<trkpt lat="46.2294311523438" lon="6.98658227920532"><ele></ele><time>2013-8-3T19:25:25Z</time></trkpt>
<trkpt lat="46.2294120788574" lon="6.98658132553101"><ele></ele><time>2013-8-3T19:25:28Z</time></trkpt>
<trkpt lat="46.2293739318848" lon="6.98657131195068"><ele></ele><time>2013-8-3T19:25:31Z</time></trkpt>
<trkpt lat="46.229362487793" lon="6.98656225204468"><ele></ele><time>2013-8-3T19:25:34Z</time></trkpt>
<trkpt lat="46.2293434143066" lon="6.98655939102173"><ele></ele><time>2013-8-3T19:25:37Z</time></trkpt>
<trkpt lat="46.229320526123" lon="6.98656558990478"><ele></ele><time>2013-8-3T19:25:40Z</time></trkpt>
<trkpt lat="46.2292976379394" lon="6.98656749725342"><ele></ele><time>2013-8-3T19:25:43Z</time></trkpt>
<trkpt lat="46.229248046875" lon="6.9865608215332"><ele></ele><time>2013-8-3T19:25:46Z</time></trkpt>
<trkpt lat="46.2292137145996" lon="6.98656368255615"><ele></ele><time>2013-8-3T19:25:49Z</time></trkpt>
<trkpt lat="46.2291870117188" lon="6.98655271530151"><ele></ele><time>2013-8-3T19:25:52Z</time></trkpt>
<trkpt lat="46.2291603088379" lon="6.98654127120972"><ele></ele><time>2013-8-3T19:25:55Z</time></trkpt>
<trkpt lat="46.2291412353516" lon="6.98653316497803"><ele></ele><time>2013-8-3T19:25:58Z</time></trkpt>
<trkpt lat="46.2291221618652" lon="6.98652172088623"><ele></ele><time>2013-8-3T19:26:1Z</time></trkpt>
<trkpt lat="46.2291030883789" lon="6.98650979995728"><ele></ele><time>2013-8-3T19:26:4Z</time></trkpt>
<trkpt lat="46.2290687561035" lon="6.98648262023926"><ele></ele><time>2013-8-3T19:26:7Z</time></trkpt>
<trkpt lat="46.2290496826172" lon="6.98647022247314"><ele></ele><time>2013-8-3T19:26:10Z</time></trkpt>
<trkpt lat="46.2290344238281" lon="6.98645305633545"><ele></ele><time>2013-8-3T19:26:13Z</time></trkpt>
<trkpt lat="46.2290229797363" lon="6.98643207550049"><ele></ele><time>2013-8-3T19:26:16Z</time></trkpt>
<trkpt lat="46.2289733886719" lon="6.98636817932129"><ele></ele><time>2013-8-3T19:26:19Z</time></trkpt>
<trkpt lat="46.2289581298828" lon="6.98634624481201"><ele></ele><time>2013-8-3T19:26:22Z</time></trkpt>
<trkpt lat="46.2289428710938" lon="6.98632669448852"><ele></ele><time>2013-8-3T19:26:25Z</time></trkpt>
<trkpt lat="46.2289276123047" lon="6.98631000518799"><ele></ele><time>2013-8-3T19:26:28Z</time></trkpt>
<trkpt lat="46.2289123535156" lon="6.98629379272461"><ele></ele><time>2013-8-3T19:26:31Z</time></trkpt>
<trkpt lat="46.228832244873" lon="6.98620462417602"><ele></ele><time>2013-8-3T19:26:34Z</time></trkpt>
<trkpt lat="46.228816986084" lon="6.98618459701538"><ele></ele><time>2013-8-3T19:26:37Z</time></trkpt>
<trkpt lat="46.2288055419922" lon="6.98616409301758"><ele></ele><time>2013-8-3T19:26:40Z</time></trkpt>
<trkpt lat="46.2287902832031" lon="6.98614454269409"><ele></ele><time>2013-8-3T19:26:43Z</time></trkpt>
<trkpt lat="46.2287750244141" lon="6.98613023757935"><ele></ele><time>2013-8-3T19:26:46Z</time></trkpt>
<trkpt lat="46.2287216186523" lon="6.9860634803772"><ele></ele><time>2013-8-3T19:26:49Z</time></trkpt>
<trkpt lat="46.2287101745606" lon="6.98604583740234"><ele></ele><time>2013-8-3T19:26:52Z</time></trkpt>
<trkpt lat="46.2286987304688" lon="6.98602676391602"><ele></ele><time>2013-8-3T19:26:55Z</time></trkpt>
<trkpt lat="46.228687286377" lon="6.98600578308106"><ele></ele><time>2013-8-3T19:26:58Z</time></trkpt>
<trkpt lat="46.228630065918" lon="6.98589086532593"><ele></ele><time>2013-8-3T19:27:1Z</time></trkpt>
<trkpt lat="46.2286186218262" lon="6.98586797714233"><ele></ele><time>2013-8-3T19:27:4Z</time></trkpt>
<trkpt lat="46.2286109924316" lon="6.98584461212158"><ele></ele><time>2013-8-3T19:27:7Z</time></trkpt>
<trkpt lat="46.2286033630371" lon="6.98582315444946"><ele></ele><time>2013-8-3T19:27:10Z</time></trkpt>
<trkpt lat="46.2285995483398" lon="6.98579692840576"><ele></ele><time>2013-8-3T19:27:13Z</time></trkpt>
<trkpt lat="46.2285804748535" lon="6.98569250106812"><ele></ele><time>2013-8-3T19:27:16Z</time></trkpt>
<trkpt lat="46.2285766601562" lon="6.9856653213501"><ele></ele><time>2013-8-3T19:27:19Z</time></trkpt>
<trkpt lat="46.2285690307617" lon="6.98564195632935"><ele></ele><time>2013-8-3T19:27:22Z</time></trkpt>
<trkpt lat="46.2285614013672" lon="6.98561763763428"><ele></ele><time>2013-8-3T19:27:25Z</time></trkpt>
<trkpt lat="46.2285499572754" lon="6.98559284210205"><ele></ele><time>2013-8-3T19:27:28Z</time></trkpt>
<trkpt lat="46.2285308837891" lon="6.98554229736328"><ele></ele><time>2013-8-3T19:27:31Z</time></trkpt>
<trkpt lat="46.2285003662109" lon="6.98547744750976"><ele></ele><time>2013-8-3T19:27:34Z</time></trkpt>
<trkpt lat="46.2284889221191" lon="6.98545742034912"><ele></ele><time>2013-8-3T19:27:37Z</time></trkpt>
<trkpt lat="46.2284774780273" lon="6.985435962677"><ele></ele><time>2013-8-3T19:27:40Z</time></trkpt>
<trkpt lat="46.2284622192383" lon="6.98541593551636"><ele></ele><time>2013-8-3T19:27:43Z</time></trkpt>
<trkpt lat="46.228401184082" lon="6.98530578613281"><ele></ele><time>2013-8-3T19:27:46Z</time></trkpt>
<trkpt lat="46.2283897399902" lon="6.98528671264648"><ele></ele><time>2013-8-3T19:27:49Z</time></trkpt>
<trkpt lat="46.2283782958984" lon="6.985267162323"><ele></ele><time>2013-8-3T19:27:52Z</time></trkpt>
<trkpt lat="46.2283706665039" lon="6.98524475097656"><ele></ele><time>2013-8-3T19:27:55Z</time></trkpt>
<trkpt lat="46.2283630371094" lon="6.98522758483887"><ele></ele><time>2013-8-3T19:27:58Z</time></trkpt>
<trkpt lat="46.2283172607422" lon="6.98514270782471"><ele></ele><time>2013-8-3T19:28:1Z</time></trkpt>
<trkpt lat="46.2283058166504" lon="6.98512172698975"><ele></ele><time>2013-8-3T19:28:4Z</time></trkpt>
<trkpt lat="46.2282905578613" lon="6.98509883880615"><ele></ele><time>2013-8-3T19:28:7Z</time></trkpt>
<trkpt lat="46.228271484375" lon="6.98507976531982"><ele></ele><time>2013-8-3T19:28:10Z</time></trkpt>
<trkpt lat="46.2282562255859" lon="6.98506355285644"><ele></ele><time>2013-8-3T19:28:13Z</time></trkpt>
<trkpt lat="46.2282218933106" lon="6.98501300811768"><ele></ele><time>2013-8-3T19:28:16Z</time></trkpt>
<trkpt lat="46.2282066345215" lon="6.98500299453735"><ele></ele><time>2013-8-3T19:28:19Z</time></trkpt>
<trkpt lat="46.2281875610352" lon="6.98499298095703"><ele></ele><time>2013-8-3T19:28:22Z</time></trkpt>
<trkpt lat="46.2281646728516" lon="6.98498344421387"><ele></ele><time>2013-8-3T19:28:25Z</time></trkpt>
<trkpt lat="46.2281455993652" lon="6.98497486114502"><ele></ele><time>2013-8-3T19:28:28Z</time></trkpt>
<trkpt lat="46.2281265258789" lon="6.9849681854248"><ele></ele><time>2013-8-3T19:28:31Z</time></trkpt>
<trkpt lat="46.2280693054199" lon="6.98495721817017"><ele></ele><time>2013-8-3T19:28:34Z</time></trkpt>
<trkpt lat="46.2280540466309" lon="6.98495674133301"><ele></ele><time>2013-8-3T19:28:37Z</time></trkpt>
<trkpt lat="46.2280387878418" lon="6.98495626449585"><ele></ele><time>2013-8-3T19:28:40Z</time></trkpt>
<trkpt lat="46.2280158996582" lon="6.98495721817017"><ele></ele><time>2013-8-3T19:28:43Z</time></trkpt>
<trkpt lat="46.2279968261719" lon="6.98495960235596"><ele></ele><time>2013-8-3T19:28:46Z</time></trkpt>
<trkpt lat="46.2279243469238" lon="6.98497295379639"><ele></ele><time>2013-8-3T19:28:49Z</time></trkpt>
<trkpt lat="46.2279090881348" lon="6.98497676849365"><ele></ele><time>2013-8-3T19:28:52Z</time></trkpt>
<trkpt lat="46.2278900146484" lon="6.98497724533081"><ele></ele><time>2013-8-3T19:28:55Z</time></trkpt>
<trkpt lat="46.2278709411621" lon="6.98498058319092"><ele></ele><time>2013-8-3T19:28:58Z</time></trkpt>
<trkpt lat="46.227855682373" lon="6.98498392105102"><ele></ele><time>2013-8-3T19:29:1Z</time></trkpt>
<trkpt lat="46.2278022766113" lon="6.98499631881714"><ele></ele><time>2013-8-3T19:29:4Z</time></trkpt>
<trkpt lat="46.2277374267578" lon="6.98500680923462"><ele></ele><time>2013-8-3T19:29:7Z</time></trkpt>
<trkpt lat="46.2277183532715" lon="6.98500728607178"><ele></ele><time>2013-8-3T19:29:10Z</time></trkpt>
<trkpt lat="46.2277030944824" lon="6.98500823974609"><ele></ele><time>2013-8-3T19:29:13Z</time></trkpt>
<trkpt lat="46.2276840209961" lon="6.98500776290894"><ele></ele><time>2013-8-3T19:29:16Z</time></trkpt>
<trkpt lat="46.227668762207" lon="6.98500823974609"><ele></ele><time>2013-8-3T19:29:19Z</time></trkpt>
<trkpt lat="46.2276153564453" lon="6.98500442504883"><ele></ele><time>2013-8-3T19:29:22Z</time></trkpt>
<trkpt lat="46.227596282959" lon="6.98500204086304"><ele></ele><time>2013-8-3T19:29:25Z</time></trkpt>
<trkpt lat="46.2275772094727" lon="6.98499917984009"><ele></ele><time>2013-8-3T19:29:28Z</time></trkpt>
<trkpt lat="46.2275581359863" lon="6.98499441146851"><ele></ele><time>2013-8-3T19:29:31Z</time></trkpt>
<trkpt lat="46.2275390625" lon="6.98498916625976"><ele></ele><time>2013-8-3T19:29:34Z</time></trkpt>
<trkpt lat="46.2275009155273" lon="6.98498201370239"><ele></ele><time>2013-8-3T19:29:37Z</time></trkpt>
<trkpt lat="46.227424621582" lon="6.98497772216797"><ele></ele><time>2013-8-3T19:29:40Z</time></trkpt>
<trkpt lat="46.2274055480957" lon="6.98498153686524"><ele></ele><time>2013-8-3T19:29:43Z</time></trkpt>
<trkpt lat="46.2273902893066" lon="6.98498487472534"><ele></ele><time>2013-8-3T19:29:46Z</time></trkpt>
<trkpt lat="46.227367401123" lon="6.98498916625976"><ele></ele><time>2013-8-3T19:29:49Z</time></trkpt>
<trkpt lat="46.2273483276367" lon="6.98499965667725"><ele></ele><time>2013-8-3T19:29:52Z</time></trkpt>
<trkpt lat="46.2272911071777" lon="6.98502731323242"><ele></ele><time>2013-8-3T19:29:55Z</time></trkpt>
<trkpt lat="46.2272682189941" lon="6.98504114151001"><ele></ele><time>2013-8-3T19:29:58Z</time></trkpt>
<trkpt lat="46.227222442627" lon="6.98509788513184"><ele></ele><time>2013-8-3T19:30:1Z</time></trkpt>
<trkpt lat="46.2272109985352" lon="6.9851188659668"><ele></ele><time>2013-8-3T19:30:4Z</time></trkpt>
<trkpt lat="46.2271957397461" lon="6.98514270782471"><ele></ele><time>2013-8-3T19:30:7Z</time></trkpt>
<trkpt lat="46.2271842956543" lon="6.98516654968262"><ele></ele><time>2013-8-3T19:30:10Z</time></trkpt>
<trkpt lat="46.2271728515625" lon="6.98519086837768"><ele></ele><time>2013-8-3T19:30:13Z</time></trkpt>
<trkpt lat="46.2271270751953" lon="6.98531675338745"><ele></ele><time>2013-8-3T19:30:16Z</time></trkpt>
<trkpt lat="46.227123260498" lon="6.98534727096558"><ele></ele><time>2013-8-3T19:30:19Z</time></trkpt>
<trkpt lat="46.2271156311035" lon="6.98537826538086"><ele></ele><time>2013-8-3T19:30:22Z</time></trkpt>
<trkpt lat="46.2271118164062" lon="6.98540878295898"><ele></ele><time>2013-8-3T19:30:25Z</time></trkpt>
<trkpt lat="46.227108001709" lon="6.98543834686279"><ele></ele><time>2013-8-3T19:30:28Z</time></trkpt>
<trkpt lat="46.2270660400391" lon="6.98556089401245"><ele></ele><time>2013-8-3T19:30:31Z</time></trkpt>
<trkpt lat="46.2270622253418" lon="6.98559141159058"><ele></ele><time>2013-8-3T19:30:34Z</time></trkpt>
<trkpt lat="46.22705078125" lon="6.98561906814575"><ele></ele><time>2013-8-3T19:30:37Z</time></trkpt>
<trkpt lat="46.2270431518555" lon="6.98564672470093"><ele></ele><time>2013-8-3T19:30:40Z</time></trkpt>
<trkpt lat="46.2270355224609" lon="6.98567390441894"><ele></ele><time>2013-8-3T19:30:43Z</time></trkpt>
<trkpt lat="46.2270011901856" lon="6.98575973510742"><ele></ele><time>2013-8-3T19:30:46Z</time></trkpt>
<trkpt lat="46.226936340332" lon="6.98594903945923"><ele></ele><time>2013-8-3T19:30:49Z</time></trkpt>
<trkpt lat="46.2269287109375" lon="6.98598194122314"><ele></ele><time>2013-8-3T19:30:52Z</time></trkpt>
<trkpt lat="46.2269248962402" lon="6.98601579666138"><ele></ele><time>2013-8-3T19:30:55Z</time></trkpt>
<trkpt lat="46.226921081543" lon="6.98604917526245"><ele></ele><time>2013-8-3T19:30:58Z</time></trkpt>
<trkpt lat="46.2269172668457" lon="6.98608207702637"><ele></ele><time>2013-8-3T19:31:1Z</time></trkpt>
<trkpt lat="46.2269172668457" lon="6.98611497879028"><ele></ele><time>2013-8-3T19:31:4Z</time></trkpt>
<trkpt lat="46.2269096374512" lon="6.98622035980225"><ele></ele><time>2013-8-3T19:31:7Z</time></trkpt>
<trkpt lat="46.2269554138184" lon="6.98641157150268"><ele></ele><time>2013-8-3T19:31:10Z</time></trkpt>
<trkpt lat="46.2269668579102" lon="6.98643922805786"><ele></ele><time>2013-8-3T19:31:13Z</time></trkpt>
<trkpt lat="46.226978302002" lon="6.98646545410156"><ele></ele><time>2013-8-3T19:31:16Z</time></trkpt>
<trkpt lat="46.2269897460938" lon="6.98649263381958"><ele></ele><time>2013-8-3T19:31:19Z</time></trkpt>
<trkpt lat="46.2270011901856" lon="6.98652172088623"><ele></ele><time>2013-8-3T19:31:22Z</time></trkpt>
<trkpt lat="46.22705078125" lon="6.98663949966431"><ele></ele><time>2013-8-3T19:31:25Z</time></trkpt>
<trkpt lat="46.2270736694336" lon="6.98668956756592"><ele></ele><time>2013-8-3T19:31:28Z</time></trkpt>
<trkpt lat="46.2270889282227" lon="6.98671388626099"><ele></ele><time>2013-8-3T19:31:31Z</time></trkpt>
<trkpt lat="46.2271041870117" lon="6.98673295974732"><ele></ele><time>2013-8-3T19:31:34Z</time></trkpt>
<trkpt lat="46.2271156311035" lon="6.98675346374512"><ele></ele><time>2013-8-3T19:31:37Z</time></trkpt>
<trkpt lat="46.2271308898926" lon="6.98677587509155"><ele></ele><time>2013-8-3T19:31:40Z</time></trkpt>
<trkpt lat="46.2271423339844" lon="6.98679971694946"><ele></ele><time>2013-8-3T19:31:43Z</time></trkpt>
<trkpt lat="46.2271957397461" lon="6.98693513870239"><ele></ele><time>2013-8-3T19:31:46Z</time></trkpt>
<trkpt lat="46.2272033691406" lon="6.98696279525757"><ele></ele><time>2013-8-3T19:31:49Z</time></trkpt>
<trkpt lat="46.2272071838379" lon="6.98698616027832"><ele></ele><time>2013-8-3T19:31:52Z</time></trkpt>
<trkpt lat="46.2272071838379" lon="6.98701333999634"><ele></ele><time>2013-8-3T19:31:55Z</time></trkpt>
<trkpt lat="46.2272071838379" lon="6.98704242706299"><ele></ele><time>2013-8-3T19:31:58Z</time></trkpt>
<trkpt lat="46.2271995544434" lon="6.98710203170776"><ele></ele><time>2013-8-3T19:32:1Z</time></trkpt>
<trkpt lat="46.227180480957" lon="6.98715353012085"><ele></ele><time>2013-8-3T19:32:4Z</time></trkpt>
<trkpt lat="46.2271728515625" lon="6.98717737197876"><ele></ele><time>2013-8-3T19:32:7Z</time></trkpt>
<trkpt lat="46.227165222168" lon="6.98720264434814"><ele></ele><time>2013-8-3T19:32:10Z</time></trkpt>
<trkpt lat="46.2271575927734" lon="6.98722505569458"><ele></ele><time>2013-8-3T19:32:13Z</time></trkpt>
<trkpt lat="46.2271499633789" lon="6.98724842071533"><ele></ele><time>2013-8-3T19:32:16Z</time></trkpt>
<trkpt lat="46.2271423339844" lon="6.98729944229126"><ele></ele><time>2013-8-3T19:32:19Z</time></trkpt>
<trkpt lat="46.2271461486816" lon="6.98736810684204"><ele></ele><time>2013-8-3T19:32:22Z</time></trkpt>
<trkpt lat="46.2271423339844" lon="6.98739051818848"><ele></ele><time>2013-8-3T19:32:25Z</time></trkpt>
<trkpt lat="46.2271385192871" lon="6.98741245269775"><ele></ele><time>2013-8-3T19:32:28Z</time></trkpt>
<trkpt lat="46.2271385192871" lon="6.98742485046387"><ele></ele><time>2013-8-3T19:32:31Z</time></trkpt>
<trkpt lat="46.2271347045898" lon="6.98744773864746"><ele></ele><time>2013-8-3T19:32:34Z</time></trkpt>
<trkpt lat="46.2271347045898" lon="6.98752117156982"><ele></ele><time>2013-8-3T19:32:37Z</time></trkpt>
<trkpt lat="46.2271385192871" lon="6.98756265640259"><ele></ele><time>2013-8-3T19:32:40Z</time></trkpt>
<trkpt lat="46.2271423339844" lon="6.98758840560913"><ele></ele><time>2013-8-3T19:32:43Z</time></trkpt>
<trkpt lat="46.2271385192871" lon="6.9876127243042"><ele></ele><time>2013-8-3T19:32:46Z</time></trkpt>
<trkpt lat="46.2271347045898" lon="6.98764133453369"><ele></ele><time>2013-8-3T19:32:49Z</time></trkpt>
<trkpt lat="46.2271308898926" lon="6.98767185211182"><ele></ele><time>2013-8-3T19:32:52Z</time></trkpt>
<trkpt lat="46.2271270751953" lon="6.98769569396973"><ele></ele><time>2013-8-3T19:32:55Z</time></trkpt>
<trkpt lat="46.2271194458008" lon="6.98781538009644"><ele></ele><time>2013-8-3T19:32:58Z</time></trkpt>
<trkpt lat="46.2271118164062" lon="6.9878420829773"><ele></ele><time>2013-8-3T19:33:1Z</time></trkpt>
<trkpt lat="46.2271156311035" lon="6.98787355422974"><ele></ele><time>2013-8-3T19:33:4Z</time></trkpt>
<trkpt lat="46.2271156311035" lon="6.98789882659912"><ele></ele><time>2013-8-3T19:33:7Z</time></trkpt>
<trkpt lat="46.2271156311035" lon="6.98792695999146"><ele></ele><time>2013-8-3T19:33:10Z</time></trkpt>
<trkpt lat="46.2271118164062" lon="6.98798322677612"><ele></ele><time>2013-8-3T19:33:13Z</time></trkpt>
<trkpt lat="46.2270660400391" lon="6.98809862136841"><ele></ele><time>2013-8-3T19:33:16Z</time></trkpt>
<trkpt lat="46.2270431518555" lon="6.98811149597168"><ele></ele><time>2013-8-3T19:33:19Z</time></trkpt>
<trkpt lat="46.2270240783691" lon="6.988112449646"><ele></ele><time>2013-8-3T19:33:22Z</time></trkpt>
<trkpt lat="46.2270050048828" lon="6.98810148239136"><ele></ele><time>2013-8-3T19:33:25Z</time></trkpt>
<trkpt lat="46.226993560791" lon="6.98808526992798"><ele></ele><time>2013-8-3T19:33:28Z</time></trkpt>
<trkpt lat="46.2269592285156" lon="6.9880428314209"><ele></ele><time>2013-8-3T19:33:31Z</time></trkpt>
<trkpt lat="46.2269439697266" lon="6.98802947998047"><ele></ele><time>2013-8-3T19:33:34Z</time></trkpt>
<trkpt lat="46.226936340332" lon="6.98801326751709"><ele></ele><time>2013-8-3T19:33:37Z</time></trkpt>
<trkpt lat="46.2269248962402" lon="6.98800849914551"><ele></ele><time>2013-8-3T19:33:40Z</time></trkpt>
<trkpt lat="46.2269096374512" lon="6.98799562454224"><ele></ele><time>2013-8-3T19:33:43Z</time></trkpt>
<trkpt lat="46.2268104553223" lon="6.98791551589966"><ele></ele><time>2013-8-3T19:33:46Z</time></trkpt>
<trkpt lat="46.2267951965332" lon="6.98789358139038"><ele></ele><time>2013-8-3T19:33:49Z</time></trkpt>
<trkpt lat="46.2267799377441" lon="6.98787641525268"><ele></ele><time>2013-8-3T19:33:52Z</time></trkpt>
<trkpt lat="46.2267646789551" lon="6.98786497116089"><ele></ele><time>2013-8-3T19:33:55Z</time></trkpt>
<trkpt lat="46.226749420166" lon="6.98784685134888"><ele></ele><time>2013-8-3T19:33:58Z</time></trkpt>
<trkpt lat="46.2267379760742" lon="6.98782539367676"><ele></ele><time>2013-8-3T19:34:1Z</time></trkpt>
<trkpt lat="46.2267227172852" lon="6.98780965805054"><ele></ele><time>2013-8-3T19:34:4Z</time></trkpt>
<trkpt lat="46.226692199707" lon="6.98776006698608"><ele></ele><time>2013-8-3T19:34:7Z</time></trkpt>
<trkpt lat="46.2266731262207" lon="6.98775100708008"><ele></ele><time>2013-8-3T19:34:10Z</time></trkpt>
<trkpt lat="46.2266502380371" lon="6.98773765563965"><ele></ele><time>2013-8-3T19:34:13Z</time></trkpt>
<trkpt lat="46.2266273498535" lon="6.98772859573364"><ele></ele><time>2013-8-3T19:34:16Z</time></trkpt>
<trkpt lat="46.2266006469727" lon="6.9877233505249"><ele></ele><time>2013-8-3T19:34:19Z</time></trkpt>
<trkpt lat="46.2265357971191" lon="6.98776245117188"><ele></ele><time>2013-8-3T19:34:22Z</time></trkpt>
<trkpt lat="46.2265129089356" lon="6.98782110214233"><ele></ele><time>2013-8-3T19:34:25Z</time></trkpt>
<trkpt lat="46.226505279541" lon="6.98785066604614"><ele></ele><time>2013-8-3T19:34:28Z</time></trkpt>
<trkpt lat="46.2265090942383" lon="6.98787593841553"><ele></ele><time>2013-8-3T19:34:31Z</time></trkpt>
<trkpt lat="46.2265205383301" lon="6.9879002571106"><ele></ele><time>2013-8-3T19:34:34Z</time></trkpt>
<trkpt lat="46.2265357971191" lon="6.98792219161987"><ele></ele><time>2013-8-3T19:34:37Z</time></trkpt>
<trkpt lat="46.2265815734863" lon="6.98799133300781"><ele></ele><time>2013-8-3T19:34:40Z</time></trkpt>
<trkpt lat="46.2266273498535" lon="6.98805999755859"><ele></ele><time>2013-8-3T19:34:43Z</time></trkpt>
<trkpt lat="46.2266540527344" lon="6.98810434341431"><ele></ele><time>2013-8-3T19:34:46Z</time></trkpt>
<trkpt lat="46.2266616821289" lon="6.98812675476074"><ele></ele><time>2013-8-3T19:34:49Z</time></trkpt>
<trkpt lat="46.2266654968262" lon="6.9881443977356"><ele></ele><time>2013-8-3T19:34:52Z</time></trkpt>
<trkpt lat="46.2266693115234" lon="6.98817253112793"><ele></ele><time>2013-8-3T19:34:55Z</time></trkpt>
<trkpt lat="46.2266807556152" lon="6.98819828033447"><ele></ele><time>2013-8-3T19:34:58Z</time></trkpt>
<trkpt lat="46.2266883850098" lon="6.9882287979126"><ele></ele><time>2013-8-3T19:35:1Z</time></trkpt>
<trkpt lat="46.2266960144043" lon="6.98839569091797"><ele></ele><time>2013-8-3T19:35:4Z</time></trkpt>
<trkpt lat="46.226692199707" lon="6.98842906951904"><ele></ele><time>2013-8-3T19:35:7Z</time></trkpt>
<trkpt lat="46.2266883850098" lon="6.98845434188843"><ele></ele><time>2013-8-3T19:35:10Z</time></trkpt>
<trkpt lat="46.2266845703125" lon="6.98847770690918"><ele></ele><time>2013-8-3T19:35:13Z</time></trkpt>
<trkpt lat="46.226676940918" lon="6.98850202560425"><ele></ele><time>2013-8-3T19:35:16Z</time></trkpt>
<trkpt lat="46.2266654968262" lon="6.98854827880859"><ele></ele><time>2013-8-3T19:35:19Z</time></trkpt>
<trkpt lat="46.2266502380371" lon="6.98860454559326"><ele></ele><time>2013-8-3T19:35:22Z</time></trkpt>
<trkpt lat="46.2266387939453" lon="6.98863172531128"><ele></ele><time>2013-8-3T19:35:25Z</time></trkpt>
<trkpt lat="46.2266273498535" lon="6.98865556716919"><ele></ele><time>2013-8-3T19:35:28Z</time></trkpt>
<trkpt lat="46.2266159057617" lon="6.98867702484131"><ele></ele><time>2013-8-3T19:35:31Z</time></trkpt>
<trkpt lat="46.2266082763672" lon="6.98869943618774"><ele></ele><time>2013-8-3T19:35:34Z</time></trkpt>
<trkpt lat="46.2265892028809" lon="6.98876810073852"><ele></ele><time>2013-8-3T19:35:37Z</time></trkpt>
<trkpt lat="46.2265739440918" lon="6.98881769180298"><ele></ele><time>2013-8-3T19:35:40Z</time></trkpt>
<trkpt lat="46.2265663146973" lon="6.98884725570679"><ele></ele><time>2013-8-3T19:35:43Z</time></trkpt>
<trkpt lat="46.2265625" lon="6.98887157440186"><ele></ele><time>2013-8-3T19:35:46Z</time></trkpt>
<trkpt lat="46.2265548706055" lon="6.98889255523682"><ele></ele><time>2013-8-3T19:35:49Z</time></trkpt>
<trkpt lat="46.2265472412109" lon="6.98891687393188"><ele></ele><time>2013-8-3T19:35:52Z</time></trkpt>
<trkpt lat="46.2265357971191" lon="6.98896884918213"><ele></ele><time>2013-8-3T19:35:55Z</time></trkpt>
<trkpt lat="46.2265167236328" lon="6.98907947540283"><ele></ele><time>2013-8-3T19:35:58Z</time></trkpt>
<trkpt lat="46.2265090942383" lon="6.98910140991211"><ele></ele><time>2013-8-3T19:36:1Z</time></trkpt>
<trkpt lat="46.2264862060547" lon="6.98912286758423"><ele></ele><time>2013-8-3T19:36:4Z</time></trkpt>
<trkpt lat="46.2264633178711" lon="6.98913812637329"><ele></ele><time>2013-8-3T19:36:7Z</time></trkpt>
<trkpt lat="46.2263717651367" lon="6.98914480209351"><ele></ele><time>2013-8-3T19:36:10Z</time></trkpt>
<trkpt lat="46.2263526916504" lon="6.98913812637329"><ele></ele><time>2013-8-3T19:36:13Z</time></trkpt>
<trkpt lat="46.2263374328613" lon="6.98912382125854"><ele></ele><time>2013-8-3T19:36:16Z</time></trkpt>
<trkpt lat="46.226318359375" lon="6.98910427093506"><ele></ele><time>2013-8-3T19:36:19Z</time></trkpt>
<trkpt lat="46.2263069152832" lon="6.98908615112305"><ele></ele><time>2013-8-3T19:36:22Z</time></trkpt>
<trkpt lat="46.2262916564941" lon="6.98906755447388"><ele></ele><time>2013-8-3T19:36:25Z</time></trkpt>
<trkpt lat="46.226261138916" lon="6.98902797698975"><ele></ele><time>2013-8-3T19:36:28Z</time></trkpt>
<trkpt lat="46.226245880127" lon="6.98901176452637"><ele></ele><time>2013-8-3T19:36:31Z</time></trkpt>
<trkpt lat="46.2262344360352" lon="6.98899412155151"><ele></ele><time>2013-8-3T19:36:34Z</time></trkpt>
<trkpt lat="46.2262191772461" lon="6.98898124694824"><ele></ele><time>2013-8-3T19:36:37Z</time></trkpt>
<trkpt lat="46.2262077331543" lon="6.98896408081055"><ele></ele><time>2013-8-3T19:36:40Z</time></trkpt>
<trkpt lat="46.2261505126953" lon="6.98889780044556"><ele></ele><time>2013-8-3T19:36:43Z</time></trkpt>
<trkpt lat="46.2261390686035" lon="6.98887777328491"><ele></ele><time>2013-8-3T19:36:46Z</time></trkpt>
<trkpt lat="46.2261238098144" lon="6.98885822296143"><ele></ele><time>2013-8-3T19:36:49Z</time></trkpt>
<trkpt lat="46.2261085510254" lon="6.98883819580078"><ele></ele><time>2013-8-3T19:36:52Z</time></trkpt>
<trkpt lat="46.2260971069336" lon="6.98882246017456"><ele></ele><time>2013-8-3T19:36:55Z</time></trkpt>
<trkpt lat="46.2260513305664" lon="6.98878383636475"><ele></ele><time>2013-8-3T19:36:58Z</time></trkpt>
<trkpt lat="46.2260360717773" lon="6.98876905441284"><ele></ele><time>2013-8-3T19:37:1Z</time></trkpt>
<trkpt lat="46.2260208129883" lon="6.98875665664673"><ele></ele><time>2013-8-3T19:37:4Z</time></trkpt>
<trkpt lat="46.2260055541992" lon="6.98874139785767"><ele></ele><time>2013-8-3T19:37:7Z</time></trkpt>
<trkpt lat="46.2259941101074" lon="6.9887228012085"><ele></ele><time>2013-8-3T19:37:10Z</time></trkpt>
<trkpt lat="46.2259521484375" lon="6.98867177963257"><ele></ele><time>2013-8-3T19:37:13Z</time></trkpt>
<trkpt lat="46.2259178161621" lon="6.98864984512329"><ele></ele><time>2013-8-3T19:37:16Z</time></trkpt>
<trkpt lat="46.2258987426758" lon="6.98863554000854"><ele></ele><time>2013-8-3T19:37:19Z</time></trkpt>
<trkpt lat="46.2258834838867" lon="6.98862361907959"><ele></ele><time>2013-8-3T19:37:22Z</time></trkpt>
<trkpt lat="46.2258682250977" lon="6.98861408233643"><ele></ele><time>2013-8-3T19:37:25Z</time></trkpt>
<trkpt lat="46.2258491516113" lon="6.98860120773315"><ele></ele><time>2013-8-3T19:37:28Z</time></trkpt>
<trkpt lat="46.2258338928223" lon="6.98858547210693"><ele></ele><time>2013-8-3T19:37:31Z</time></trkpt>
<trkpt lat="46.225757598877" lon="6.98848724365234"><ele></ele><time>2013-8-3T19:37:34Z</time></trkpt>
<trkpt lat="46.2257423400879" lon="6.98847341537476"><ele></ele><time>2013-8-3T19:37:37Z</time></trkpt>
<trkpt lat="46.2257232666016" lon="6.98845958709717"><ele></ele><time>2013-8-3T19:37:40Z</time></trkpt>
<trkpt lat="46.2257080078125" lon="6.98844528198242"><ele></ele><time>2013-8-3T19:37:43Z</time></trkpt>
<trkpt lat="46.2256927490234" lon="6.98843002319336"><ele></ele><time>2013-8-3T19:37:46Z</time></trkpt>
<trkpt lat="46.2256393432617" lon="6.98838090896606"><ele></ele><time>2013-8-3T19:37:49Z</time></trkpt>
<trkpt lat="46.2256278991699" lon="6.98836469650268"><ele></ele><time>2013-8-3T19:37:52Z</time></trkpt>
<trkpt lat="46.2256126403809" lon="6.98834609985352"><ele></ele><time>2013-8-3T19:37:55Z</time></trkpt>
<trkpt lat="46.2256011962891" lon="6.98833322525024"><ele></ele><time>2013-8-3T19:37:58Z</time></trkpt>
<trkpt lat="46.2255859375" lon="6.98832273483276"><ele></ele><time>2013-8-3T19:38:1Z</time></trkpt>
<trkpt lat="46.2255706787109" lon="6.98831081390381"><ele></ele><time>2013-8-3T19:38:4Z</time></trkpt>
<trkpt lat="46.2254867553711" lon="6.98824977874756"><ele></ele><time>2013-8-3T19:38:7Z</time></trkpt>
<trkpt lat="46.225471496582" lon="6.98824214935303"><ele></ele><time>2013-8-3T19:38:10Z</time></trkpt>
<trkpt lat="46.2254524230957" lon="6.98823881149292"><ele></ele><time>2013-8-3T19:38:13Z</time></trkpt>
<trkpt lat="46.2254371643066" lon="6.98823165893555"><ele></ele><time>2013-8-3T19:38:16Z</time></trkpt>
<trkpt lat="46.2254180908203" lon="6.98822546005249"><ele></ele><time>2013-8-3T19:38:19Z</time></trkpt>
<trkpt lat="46.2253608703613" lon="6.98821926116943"><ele></ele><time>2013-8-3T19:38:22Z</time></trkpt>
<trkpt lat="46.2253456115723" lon="6.9882287979126"><ele></ele><time>2013-8-3T19:38:25Z</time></trkpt>
<trkpt lat="46.2253227233887" lon="6.98825597763062"><ele></ele><time>2013-8-3T19:38:28Z</time></trkpt>
<trkpt lat="46.2253036499023" lon="6.98826885223389"><ele></ele><time>2013-8-3T19:38:31Z</time></trkpt>
<trkpt lat="46.225284576416" lon="6.98828077316284"><ele></ele><time>2013-8-3T19:38:34Z</time></trkpt>
<trkpt lat="46.2252655029297" lon="6.98829698562622"><ele></ele><time>2013-8-3T19:38:37Z</time></trkpt>
<trkpt lat="46.2252197265625" lon="6.98840951919556"><ele></ele><time>2013-8-3T19:38:40Z</time></trkpt>
<trkpt lat="46.2252159118652" lon="6.9884614944458"><ele></ele><time>2013-8-3T19:38:43Z</time></trkpt>
<trkpt lat="46.225212097168" lon="6.98848819732666"><ele></ele><time>2013-8-3T19:38:46Z</time></trkpt>
<trkpt lat="46.2252044677734" lon="6.98850917816162"><ele></ele><time>2013-8-3T19:38:49Z</time></trkpt>
<trkpt lat="46.2251968383789" lon="6.98853015899658"><ele></ele><time>2013-8-3T19:38:52Z</time></trkpt>
<trkpt lat="46.2251853942871" lon="6.98855018615723"><ele></ele><time>2013-8-3T19:38:55Z</time></trkpt>
<trkpt lat="46.2251243591309" lon="6.98856496810913"><ele></ele><time>2013-8-3T19:38:58Z</time></trkpt>
<trkpt lat="46.2251052856445" lon="6.98855018615723"><ele></ele><time>2013-8-3T19:39:1Z</time></trkpt>
<trkpt lat="46.2250900268555" lon="6.98852825164795"><ele></ele><time>2013-8-3T19:39:4Z</time></trkpt>
<trkpt lat="46.2250785827637" lon="6.98850679397583"><ele></ele><time>2013-8-3T19:39:7Z</time></trkpt>
<trkpt lat="46.2250671386719" lon="6.98847961425781"><ele></ele><time>2013-8-3T19:39:10Z</time></trkpt>
<trkpt lat="46.2250595092773" lon="6.98844766616821"><ele></ele><time>2013-8-3T19:39:13Z</time></trkpt>
<trkpt lat="46.2250556945801" lon="6.98842287063599"><ele></ele><time>2013-8-3T19:39:16Z</time></trkpt>
<trkpt lat="46.2250480651856" lon="6.98839139938354"><ele></ele><time>2013-8-3T19:39:19Z</time></trkpt>
<trkpt lat="46.2250366210938" lon="6.98836135864258"><ele></ele><time>2013-8-3T19:39:22Z</time></trkpt>
<trkpt lat="46.2250328063965" lon="6.98833703994751"><ele></ele><time>2013-8-3T19:39:25Z</time></trkpt>
<trkpt lat="46.225025177002" lon="6.98829889297485"><ele></ele><time>2013-8-3T19:39:28Z</time></trkpt>
<trkpt lat="46.2250137329102" lon="6.98827314376831"><ele></ele><time>2013-8-3T19:39:31Z</time></trkpt>
<trkpt lat="46.2250099182129" lon="6.98825025558472"><ele></ele><time>2013-8-3T19:39:34Z</time></trkpt>
<trkpt lat="46.2249984741211" lon="6.98822593688965"><ele></ele><time>2013-8-3T19:39:37Z</time></trkpt>
<trkpt lat="46.2249908447266" lon="6.98820161819458"><ele></ele><time>2013-8-3T19:39:40Z</time></trkpt>
<trkpt lat="46.2249526977539" lon="6.98814153671265"><ele></ele><time>2013-8-3T19:39:43Z</time></trkpt>
<trkpt lat="46.2249336242676" lon="6.98809909820557"><ele></ele><time>2013-8-3T19:39:46Z</time></trkpt>
<trkpt lat="46.2249221801758" lon="6.98807859420776"><ele></ele><time>2013-8-3T19:39:49Z</time></trkpt>
<trkpt lat="46.2249145507812" lon="6.9880576133728"><ele></ele><time>2013-8-3T19:39:52Z</time></trkpt>
<trkpt lat="46.2249069213867" lon="6.98803091049194"><ele></ele><time>2013-8-3T19:39:55Z</time></trkpt>
<trkpt lat="46.2248992919922" lon="6.98800182342529"><ele></ele><time>2013-8-3T19:39:58Z</time></trkpt>
<trkpt lat="46.2248725891113" lon="6.98790216445923"><ele></ele><time>2013-8-3T19:40:1Z</time></trkpt>
<trkpt lat="46.2248611450195" lon="6.98787689208984"><ele></ele><time>2013-8-3T19:40:4Z</time></trkpt>
<trkpt lat="46.2248573303223" lon="6.98785305023193"><ele></ele><time>2013-8-3T19:40:7Z</time></trkpt>
<trkpt lat="46.2248497009277" lon="6.98783111572266"><ele></ele><time>2013-8-3T19:40:10Z</time></trkpt>
<trkpt lat="46.2248420715332" lon="6.98780632019043"><ele></ele><time>2013-8-3T19:40:13Z</time></trkpt>
<trkpt lat="46.2248268127441" lon="6.98777914047241"><ele></ele><time>2013-8-3T19:40:16Z</time></trkpt>
<trkpt lat="46.2248001098633" lon="6.98770236968994"><ele></ele><time>2013-8-3T19:40:19Z</time></trkpt>
<trkpt lat="46.2247886657715" lon="6.98767948150635"><ele></ele><time>2013-8-3T19:40:22Z</time></trkpt>
<trkpt lat="46.2247772216797" lon="6.98766374588013"><ele></ele><time>2013-8-3T19:40:25Z</time></trkpt>
<trkpt lat="46.2247695922852" lon="6.9876446723938"><ele></ele><time>2013-8-3T19:40:28Z</time></trkpt>
<trkpt lat="46.2247581481934" lon="6.98761749267578"><ele></ele><time>2013-8-3T19:40:31Z</time></trkpt>
<trkpt lat="46.2247467041016" lon="6.98759126663208"><ele></ele><time>2013-8-3T19:40:34Z</time></trkpt>
<trkpt lat="46.224739074707" lon="6.98756694793701"><ele></ele><time>2013-8-3T19:40:37Z</time></trkpt>
<trkpt lat="46.2246704101562" lon="6.98745822906494"><ele></ele><time>2013-8-3T19:40:40Z</time></trkpt>
<trkpt lat="46.2246551513672" lon="6.98743343353272"><ele></ele><time>2013-8-3T19:40:43Z</time></trkpt>
<trkpt lat="46.2246437072754" lon="6.98741292953491"><ele></ele><time>2013-8-3T19:40:46Z</time></trkpt>
<trkpt lat="46.2246322631836" lon="6.98738479614258"><ele></ele><time>2013-8-3T19:40:49Z</time></trkpt>
<trkpt lat="46.2246246337891" lon="6.98735570907593"><ele></ele><time>2013-8-3T19:40:52Z</time></trkpt>
<trkpt lat="46.2246208190918" lon="6.98732614517212"><ele></ele><time>2013-8-3T19:40:55Z</time></trkpt>
<trkpt lat="46.2245979309082" lon="6.9872407913208"><ele></ele><time>2013-8-3T19:40:58Z</time></trkpt>
<trkpt lat="46.2245903015137" lon="6.98721551895142"><ele></ele><time>2013-8-3T19:41:1Z</time></trkpt>
<trkpt lat="46.2245903015137" lon="6.98718881607056"><ele></ele><time>2013-8-3T19:41:4Z</time></trkpt>
<trkpt lat="46.2245903015137" lon="6.9871621131897"><ele></ele><time>2013-8-3T19:41:7Z</time></trkpt>
<trkpt lat="46.2245864868164" lon="6.9871335029602"><ele></ele><time>2013-8-3T19:41:10Z</time></trkpt>
<trkpt lat="46.2245979309082" lon="6.98702383041382"><ele></ele><time>2013-8-3T19:41:13Z</time></trkpt>
<trkpt lat="46.2246017456055" lon="6.98699712753296"><ele></ele><time>2013-8-3T19:41:16Z</time></trkpt>
<trkpt lat="46.2246131896973" lon="6.98697280883789"><ele></ele><time>2013-8-3T19:41:19Z</time></trkpt>
<trkpt lat="46.2246246337891" lon="6.98695039749146"><ele></ele><time>2013-8-3T19:41:22Z</time></trkpt>
<trkpt lat="46.2246360778809" lon="6.98692989349365"><ele></ele><time>2013-8-3T19:41:25Z</time></trkpt>
<trkpt lat="46.2246971130371" lon="6.98685026168823"><ele></ele><time>2013-8-3T19:41:28Z</time></trkpt>
<trkpt lat="46.2247085571289" lon="6.98683071136475"><ele></ele><time>2013-8-3T19:41:31Z</time></trkpt>
<trkpt lat="46.224723815918" lon="6.98681640625"><ele></ele><time>2013-8-3T19:41:34Z</time></trkpt>
<trkpt lat="46.224739074707" lon="6.98680400848389"><ele></ele><time>2013-8-3T19:41:37Z</time></trkpt>
<trkpt lat="46.2247543334961" lon="6.9867901802063"><ele></ele><time>2013-8-3T19:41:40Z</time></trkpt>
<trkpt lat="46.2247924804688" lon="6.986741065979"><ele></ele><time>2013-8-3T19:41:43Z</time></trkpt>
<trkpt lat="46.2248382568359" lon="6.9866943359375"><ele></ele><time>2013-8-3T19:41:46Z</time></trkpt>
<trkpt lat="46.224853515625" lon="6.9866771697998"><ele></ele><time>2013-8-3T19:41:49Z</time></trkpt>
<trkpt lat="46.2248725891113" lon="6.98665475845337"><ele></ele><time>2013-8-3T19:41:52Z</time></trkpt>
<trkpt lat="46.2248916625977" lon="6.98663663864136"><ele></ele><time>2013-8-3T19:41:55Z</time></trkpt>
<trkpt lat="46.2249565124512" lon="6.98657178878784"><ele></ele><time>2013-8-3T19:41:58Z</time></trkpt>
<trkpt lat="46.2249717712402" lon="6.98655986785889"><ele></ele><time>2013-8-3T19:42:1Z</time></trkpt>
<trkpt lat="46.224983215332" lon="6.98654651641846"><ele></ele><time>2013-8-3T19:42:4Z</time></trkpt>
<trkpt lat="46.2249946594238" lon="6.98652744293213"><ele></ele><time>2013-8-3T19:42:7Z</time></trkpt>
<trkpt lat="46.2250061035156" lon="6.98649787902832"><ele></ele><time>2013-8-3T19:42:10Z</time></trkpt>
<trkpt lat="46.2250175476074" lon="6.98646640777588"><ele></ele><time>2013-8-3T19:42:13Z</time></trkpt>
<trkpt lat="46.2250328063965" lon="6.98639869689941"><ele></ele><time>2013-8-3T19:42:16Z</time></trkpt>
<trkpt lat="46.2250480651856" lon="6.98629760742188"><ele></ele><time>2013-8-3T19:42:19Z</time></trkpt>
<trkpt lat="46.2250518798828" lon="6.98626565933228"><ele></ele><time>2013-8-3T19:42:22Z</time></trkpt>
<trkpt lat="46.2250518798828" lon="6.98623085021973"><ele></ele><time>2013-8-3T19:42:25Z</time></trkpt>
<trkpt lat="46.2250556945801" lon="6.98619365692139"><ele></ele><time>2013-8-3T19:42:28Z</time></trkpt>
<trkpt lat="46.2250595092773" lon="6.98615598678589"><ele></ele><time>2013-8-3T19:42:31Z</time></trkpt>
<trkpt lat="46.2250556945801" lon="6.98612022399902"><ele></ele><time>2013-8-3T19:42:34Z</time></trkpt>
<trkpt lat="46.2250328063965" lon="6.98594427108765"><ele></ele><time>2013-8-3T19:42:37Z</time></trkpt>
<trkpt lat="46.2250289916992" lon="6.9859127998352"><ele></ele><time>2013-8-3T19:42:40Z</time></trkpt>
<trkpt lat="46.225025177002" lon="6.9858832359314"><ele></ele><time>2013-8-3T19:42:43Z</time></trkpt>
<trkpt lat="46.2250175476074" lon="6.98585271835327"><ele></ele><time>2013-8-3T19:42:46Z</time></trkpt>
<trkpt lat="46.2250099182129" lon="6.98582220077515"><ele></ele><time>2013-8-3T19:42:49Z</time></trkpt>
<trkpt lat="46.2250022888184" lon="6.9857931137085"><ele></ele><time>2013-8-3T19:42:52Z</time></trkpt>
<trkpt lat="46.2249794006348" lon="6.98568487167358"><ele></ele><time>2013-8-3T19:42:55Z</time></trkpt>
<trkpt lat="46.2249717712402" lon="6.98565626144409"><ele></ele><time>2013-8-3T19:42:58Z</time></trkpt>
<trkpt lat="46.2249641418457" lon="6.98563003540039"><ele></ele><time>2013-8-3T19:43:1Z</time></trkpt>
<trkpt lat="46.2249565124512" lon="6.98560285568237"><ele></ele><time>2013-8-3T19:43:4Z</time></trkpt>
<trkpt lat="46.2249450683594" lon="6.98557090759277"><ele></ele><time>2013-8-3T19:43:7Z</time></trkpt>
<trkpt lat="46.2249412536621" lon="6.98553705215454"><ele></ele><time>2013-8-3T19:43:10Z</time></trkpt>
<trkpt lat="46.224925994873" lon="6.98543977737427"><ele></ele><time>2013-8-3T19:43:13Z</time></trkpt>
<trkpt lat="46.2249603271484" lon="6.98522758483887"><ele></ele><time>2013-8-3T19:43:16Z</time></trkpt>
<trkpt lat="46.2249755859375" lon="6.98520517349243"><ele></ele><time>2013-8-3T19:43:19Z</time></trkpt>
<trkpt lat="46.2249946594238" lon="6.98518896102905"><ele></ele><time>2013-8-3T19:43:22Z</time></trkpt>
<trkpt lat="46.2250099182129" lon="6.98517560958862"><ele></ele><time>2013-8-3T19:43:25Z</time></trkpt>
<trkpt lat="46.2250747680664" lon="6.98513603210449"><ele></ele><time>2013-8-3T19:43:28Z</time></trkpt>
<trkpt lat="46.2251510620117" lon="6.98507261276245"><ele></ele><time>2013-8-3T19:43:31Z</time></trkpt>
<trkpt lat="46.225170135498" lon="6.9850549697876"><ele></ele><time>2013-8-3T19:43:34Z</time></trkpt>
<trkpt lat="46.2251853942871" lon="6.98503541946411"><ele></ele><time>2013-8-3T19:43:37Z</time></trkpt>
<trkpt lat="46.2252044677734" lon="6.98501634597778"><ele></ele><time>2013-8-3T19:43:40Z</time></trkpt>
<trkpt lat="46.2252235412598" lon="6.9850001335144"><ele></ele><time>2013-8-3T19:43:43Z</time></trkpt>
<trkpt lat="46.2252807617188" lon="6.98490762710571"><ele></ele><time>2013-8-3T19:43:46Z</time></trkpt>
<trkpt lat="46.2253227233887" lon="6.98468780517578"><ele></ele><time>2013-8-3T19:43:49Z</time></trkpt>
<trkpt lat="46.2253265380859" lon="6.98460531234741"><ele></ele><time>2013-8-3T19:43:52Z</time></trkpt>
<trkpt lat="46.2253303527832" lon="6.98456382751465"><ele></ele><time>2013-8-3T19:43:55Z</time></trkpt>
<trkpt lat="46.2253303527832" lon="6.9845232963562"><ele></ele><time>2013-8-3T19:43:58Z</time></trkpt>
<trkpt lat="46.2253341674805" lon="6.9844856262207"><ele></ele><time>2013-8-3T19:44:1Z</time></trkpt>
<trkpt lat="46.2253379821777" lon="6.98441171646118"><ele></ele><time>2013-8-3T19:44:4Z</time></trkpt>
<trkpt lat="46.2253570556641" lon="6.98416137695312"><ele></ele><time>2013-8-3T19:44:7Z</time></trkpt>
<trkpt lat="46.2253570556641" lon="6.9841251373291"><ele></ele><time>2013-8-3T19:44:10Z</time></trkpt>
<trkpt lat="46.2253608703613" lon="6.9840898513794"><ele></ele><time>2013-8-3T19:44:13Z</time></trkpt>
<trkpt lat="46.2253646850586" lon="6.9840579032898"><ele></ele><time>2013-8-3T19:44:16Z</time></trkpt>
<trkpt lat="46.2253684997559" lon="6.98402690887451"><ele></ele><time>2013-8-3T19:44:19Z</time></trkpt>
<trkpt lat="46.2253761291504" lon="6.98390102386475"><ele></ele><time>2013-8-3T19:44:22Z</time></trkpt>
<trkpt lat="46.2253913879394" lon="6.98380184173584"><ele></ele><time>2013-8-3T19:44:25Z</time></trkpt>
<trkpt lat="46.2253952026367" lon="6.98377561569214"><ele></ele><time>2013-8-3T19:44:28Z</time></trkpt>
<trkpt lat="46.225399017334" lon="6.98374319076538"><ele></ele><time>2013-8-3T19:44:31Z</time></trkpt>
<trkpt lat="46.225399017334" lon="6.98370885848999"><ele></ele><time>2013-8-3T19:44:34Z</time></trkpt>
<trkpt lat="46.2254066467285" lon="6.98367738723755"><ele></ele><time>2013-8-3T19:44:37Z</time></trkpt>
<trkpt lat="46.2254104614258" lon="6.98355197906494"><ele></ele><time>2013-8-3T19:44:40Z</time></trkpt>
<trkpt lat="46.2254180908203" lon="6.98351907730102"><ele></ele><time>2013-8-3T19:44:43Z</time></trkpt>
<trkpt lat="46.2254180908203" lon="6.98348569869995"><ele></ele><time>2013-8-3T19:44:46Z</time></trkpt>
<trkpt lat="46.2254219055176" lon="6.9834566116333"><ele></ele><time>2013-8-3T19:44:49Z</time></trkpt>
<trkpt lat="46.2254219055176" lon="6.98342561721802"><ele></ele><time>2013-8-3T19:44:52Z</time></trkpt>
<trkpt lat="46.2254180908203" lon="6.98327302932739"><ele></ele><time>2013-8-3T19:44:55Z</time></trkpt>
<trkpt lat="46.2254104614258" lon="6.98324155807495"><ele></ele><time>2013-8-3T19:44:58Z</time></trkpt>
<trkpt lat="46.2254066467285" lon="6.98320817947388"><ele></ele><time>2013-8-3T19:45:1Z</time></trkpt>
<trkpt lat="46.2254028320312" lon="6.98317575454712"><ele></ele><time>2013-8-3T19:45:4Z</time></trkpt>
<trkpt lat="46.225399017334" lon="6.98314809799194"><ele></ele><time>2013-8-3T19:45:7Z</time></trkpt>
<trkpt lat="46.225399017334" lon="6.98309469223022"><ele></ele><time>2013-8-3T19:45:10Z</time></trkpt>
<trkpt lat="46.2253952026367" lon="6.98304462432861"><ele></ele><time>2013-8-3T19:45:13Z</time></trkpt>
<trkpt lat="46.2253875732422" lon="6.982985496521"><ele></ele><time>2013-8-3T19:45:16Z</time></trkpt>
<trkpt lat="46.2253799438477" lon="6.9829568862915"><ele></ele><time>2013-8-3T19:45:19Z</time></trkpt>
<trkpt lat="46.2253761291504" lon="6.98292827606201"><ele></ele><time>2013-8-3T19:45:22Z</time></trkpt>
<trkpt lat="46.2253761291504" lon="6.98290205001831"><ele></ele><time>2013-8-3T19:45:25Z</time></trkpt>
<trkpt lat="46.2253684997559" lon="6.9828724861145"><ele></ele><time>2013-8-3T19:45:28Z</time></trkpt>
<trkpt lat="46.2253570556641" lon="6.98281669616699"><ele></ele><time>2013-8-3T19:45:31Z</time></trkpt>
<trkpt lat="46.2253456115723" lon="6.98278903961182"><ele></ele><time>2013-8-3T19:45:34Z</time></trkpt>
<trkpt lat="46.2253379821777" lon="6.98276138305664"><ele></ele><time>2013-8-3T19:45:37Z</time></trkpt>
<trkpt lat="46.2253227233887" lon="6.98273324966431"><ele></ele><time>2013-8-3T19:45:40Z</time></trkpt>
<trkpt lat="46.2253074645996" lon="6.98270988464356"><ele></ele><time>2013-8-3T19:45:43Z</time></trkpt>
<trkpt lat="46.2252922058106" lon="6.98268175125122"><ele></ele><time>2013-8-3T19:45:46Z</time></trkpt>
<trkpt lat="46.225269317627" lon="6.98262929916382"><ele></ele><time>2013-8-3T19:45:49Z</time></trkpt>
<trkpt lat="46.2252502441406" lon="6.9825325012207"><ele></ele><time>2013-8-3T19:45:52Z</time></trkpt>
<trkpt lat="46.2252502441406" lon="6.982506275177"><ele></ele><time>2013-8-3T19:45:55Z</time></trkpt>
<trkpt lat="46.2252426147461" lon="6.9824652671814"><ele></ele><time>2013-8-3T19:45:58Z</time></trkpt>
<trkpt lat="46.2252349853516" lon="6.98242282867432"><ele></ele><time>2013-8-3T19:46:1Z</time></trkpt>
<trkpt lat="46.2252235412598" lon="6.9823899269104"><ele></ele><time>2013-8-3T19:46:4Z</time></trkpt>
<trkpt lat="46.2251930236816" lon="6.98224067687988"><ele></ele><time>2013-8-3T19:46:7Z</time></trkpt>
<trkpt lat="46.2251892089844" lon="6.98204755783081"><ele></ele><time>2013-8-3T19:46:10Z</time></trkpt>
<trkpt lat="46.2251968383789" lon="6.98195934295654"><ele></ele><time>2013-8-3T19:46:13Z</time></trkpt>
<trkpt lat="46.2251930236816" lon="6.98191118240356"><ele></ele><time>2013-8-3T19:46:16Z</time></trkpt>
<trkpt lat="46.2251968383789" lon="6.98186826705933"><ele></ele><time>2013-8-3T19:46:19Z</time></trkpt>
<trkpt lat="46.2252044677734" lon="6.98182535171509"><ele></ele><time>2013-8-3T19:46:22Z</time></trkpt>
<trkpt lat="46.2252082824707" lon="6.98178482055664"><ele></ele><time>2013-8-3T19:46:25Z</time></trkpt>
<trkpt lat="46.2252502441406" lon="6.98156070709228"><ele></ele><time>2013-8-3T19:46:28Z</time></trkpt>
<trkpt lat="46.225269317627" lon="6.98149824142456"><ele></ele><time>2013-8-3T19:46:31Z</time></trkpt>
<trkpt lat="46.2252769470215" lon="6.98147058486938"><ele></ele><time>2013-8-3T19:46:34Z</time></trkpt>
<trkpt lat="46.225284576416" lon="6.98144245147705"><ele></ele><time>2013-8-3T19:46:37Z</time></trkpt>
<trkpt lat="46.2252922058106" lon="6.98141860961914"><ele></ele><time>2013-8-3T19:46:40Z</time></trkpt>
<trkpt lat="46.2252998352051" lon="6.98139667510986"><ele></ele><time>2013-8-3T19:46:43Z</time></trkpt>
<trkpt lat="46.2253532409668" lon="6.98130941390991"><ele></ele><time>2013-8-3T19:46:46Z</time></trkpt>
<trkpt lat="46.2253646850586" lon="6.981285572052"><ele></ele><time>2013-8-3T19:46:49Z</time></trkpt>
<trkpt lat="46.2253723144531" lon="6.9812593460083"><ele></ele><time>2013-8-3T19:46:52Z</time></trkpt>
<trkpt lat="46.2253875732422" lon="6.9812331199646"><ele></ele><time>2013-8-3T19:46:55Z</time></trkpt>
<trkpt lat="46.2254028320312" lon="6.98121166229248"><ele></ele><time>2013-8-3T19:46:58Z</time></trkpt>
<trkpt lat="46.2254333496094" lon="6.98117065429688"><ele></ele><time>2013-8-3T19:47:1Z</time></trkpt>
<trkpt lat="46.2255058288574" lon="6.98105192184448"><ele></ele><time>2013-8-3T19:47:4Z</time></trkpt>
<trkpt lat="46.2255172729492" lon="6.9810299873352"><ele></ele><time>2013-8-3T19:47:7Z</time></trkpt>
<trkpt lat="46.2255325317383" lon="6.98100852966309"><ele></ele><time>2013-8-3T19:47:10Z</time></trkpt>
<trkpt lat="46.2255477905273" lon="6.98098134994507"><ele></ele><time>2013-8-3T19:47:13Z</time></trkpt>
<trkpt lat="46.2255592346191" lon="6.98096084594726"><ele></ele><time>2013-8-3T19:47:16Z</time></trkpt>
<trkpt lat="46.2256240844727" lon="6.98086452484131"><ele></ele><time>2013-8-3T19:47:19Z</time></trkpt>
<trkpt lat="46.2256546020508" lon="6.9808144569397"><ele></ele><time>2013-8-3T19:47:22Z</time></trkpt>
<trkpt lat="46.2256698608398" lon="6.98079633712768"><ele></ele><time>2013-8-3T19:47:25Z</time></trkpt>
<trkpt lat="46.2256851196289" lon="6.98077774047852"><ele></ele><time>2013-8-3T19:47:28Z</time></trkpt>
<trkpt lat="46.2257041931152" lon="6.98075819015503"><ele></ele><time>2013-8-3T19:47:31Z</time></trkpt>
<trkpt lat="46.2257423400879" lon="6.98070478439331"><ele></ele><time>2013-8-3T19:47:34Z</time></trkpt>
<trkpt lat="46.2257881164551" lon="6.98062562942505"><ele></ele><time>2013-8-3T19:47:37Z</time></trkpt>
<trkpt lat="46.2258033752441" lon="6.98060417175293"><ele></ele><time>2013-8-3T19:47:40Z</time></trkpt>
<trkpt lat="46.2258148193359" lon="6.98058700561524"><ele></ele><time>2013-8-3T19:47:43Z</time></trkpt>
<trkpt lat="46.225830078125" lon="6.98056745529175"><ele></ele><time>2013-8-3T19:47:46Z</time></trkpt>
<trkpt lat="46.2258453369141" lon="6.98054790496826"><ele></ele><time>2013-8-3T19:47:49Z</time></trkpt>
<trkpt lat="46.2258644104004" lon="6.98052597045898"><ele></ele><time>2013-8-3T19:47:52Z</time></trkpt>
<trkpt lat="46.2259407043457" lon="6.98044490814209"><ele></ele><time>2013-8-3T19:47:55Z</time></trkpt>
<trkpt lat="46.2259559631348" lon="6.98042488098144"><ele></ele><time>2013-8-3T19:47:58Z</time></trkpt>
<trkpt lat="46.2259674072266" lon="6.98039674758911"><ele></ele><time>2013-8-3T19:48:1Z</time></trkpt>
<trkpt lat="46.2259788513184" lon="6.9803729057312"><ele></ele><time>2013-8-3T19:48:4Z</time></trkpt>
<trkpt lat="46.2259902954102" lon="6.98034429550171"><ele></ele><time>2013-8-3T19:48:7Z</time></trkpt>
<trkpt lat="46.226001739502" lon="6.98025226593018"><ele></ele><time>2013-8-3T19:48:10Z</time></trkpt>
<trkpt lat="46.2259788513184" lon="6.98016738891602"><ele></ele><time>2013-8-3T19:48:13Z</time></trkpt>
<trkpt lat="46.225959777832" lon="6.98014974594116"><ele></ele><time>2013-8-3T19:48:16Z</time></trkpt>
<trkpt lat="46.2259368896484" lon="6.98014163970947"><ele></ele><time>2013-8-3T19:48:19Z</time></trkpt>
<trkpt lat="46.2259101867676" lon="6.98014116287232"><ele></ele><time>2013-8-3T19:48:22Z</time></trkpt>
<trkpt lat="46.2258262634277" lon="6.98019218444824"><ele></ele><time>2013-8-3T19:48:25Z</time></trkpt>
<trkpt lat="46.2257919311523" lon="6.98026371002197"><ele></ele><time>2013-8-3T19:48:28Z</time></trkpt>
<trkpt lat="46.2257766723633" lon="6.98029565811157"><ele></ele><time>2013-8-3T19:48:31Z</time></trkpt>
<trkpt lat="46.2257652282715" lon="6.98031759262085"><ele></ele><time>2013-8-3T19:48:34Z</time></trkpt>
<trkpt lat="46.2257461547852" lon="6.98033571243286"><ele></ele><time>2013-8-3T19:48:37Z</time></trkpt>
<trkpt lat="46.2257270812988" lon="6.98035669326782"><ele></ele><time>2013-8-3T19:48:40Z</time></trkpt>
<trkpt lat="46.225643157959" lon="6.98043727874756"><ele></ele><time>2013-8-3T19:48:43Z</time></trkpt>
<trkpt lat="46.2256050109863" lon="6.98047208786011"><ele></ele><time>2013-8-3T19:48:46Z</time></trkpt>
<trkpt lat="46.2255859375" lon="6.98048877716064"><ele></ele><time>2013-8-3T19:48:49Z</time></trkpt>
<trkpt lat="46.2255630493164" lon="6.98050355911255"><ele></ele><time>2013-8-3T19:48:52Z</time></trkpt>
<trkpt lat="46.2255439758301" lon="6.98052024841309"><ele></ele><time>2013-8-3T19:48:55Z</time></trkpt>
<trkpt lat="46.2255058288574" lon="6.98055267333984"><ele></ele><time>2013-8-3T19:48:58Z</time></trkpt>
<trkpt lat="46.2254104614258" lon="6.98063898086548"><ele></ele><time>2013-8-3T19:49:1Z</time></trkpt>
<trkpt lat="46.2253952026367" lon="6.98065710067749"><ele></ele><time>2013-8-3T19:49:4Z</time></trkpt>
<trkpt lat="46.2253761291504" lon="6.98067092895508"><ele></ele><time>2013-8-3T19:49:7Z</time></trkpt>
<trkpt lat="46.2253608703613" lon="6.98068618774414"><ele></ele><time>2013-8-3T19:49:10Z</time></trkpt>
<trkpt lat="46.2253456115723" lon="6.9807014465332"><ele></ele><time>2013-8-3T19:49:13Z</time></trkpt>
<trkpt lat="46.2252655029297" lon="6.98076438903809"><ele></ele><time>2013-8-3T19:49:16Z</time></trkpt>
<trkpt lat="46.2252502441406" lon="6.98078012466431"><ele></ele><time>2013-8-3T19:49:19Z</time></trkpt>
<trkpt lat="46.225227355957" lon="6.98079442977905"><ele></ele><time>2013-8-3T19:49:22Z</time></trkpt>
<trkpt lat="46.225212097168" lon="6.98081254959106"><ele></ele><time>2013-8-3T19:49:25Z</time></trkpt>
<trkpt lat="46.2251930236816" lon="6.98082876205444"><ele></ele><time>2013-8-3T19:49:28Z</time></trkpt>
<trkpt lat="46.2251739501953" lon="6.98084592819214"><ele></ele><time>2013-8-3T19:49:31Z</time></trkpt>
<trkpt lat="46.2251510620117" lon="6.98085927963257"><ele></ele><time>2013-8-3T19:49:34Z</time></trkpt>
<trkpt lat="46.2250823974609" lon="6.98090410232544"><ele></ele><time>2013-8-3T19:49:37Z</time></trkpt>
<trkpt lat="46.2250671386719" lon="6.98092031478882"><ele></ele><time>2013-8-3T19:49:40Z</time></trkpt>
<trkpt lat="46.2250442504883" lon="6.98092746734619"><ele></ele><time>2013-8-3T19:49:43Z</time></trkpt>
<trkpt lat="46.225025177002" lon="6.9809365272522"><ele></ele><time>2013-8-3T19:49:46Z</time></trkpt>
<trkpt lat="46.2250022888184" lon="6.98095035552978"><ele></ele><time>2013-8-3T19:49:49Z</time></trkpt>
<trkpt lat="46.2249145507812" lon="6.98103761672974"><ele></ele><time>2013-8-3T19:49:52Z</time></trkpt>
<trkpt lat="46.2248992919922" lon="6.98105764389038"><ele></ele><time>2013-8-3T19:49:55Z</time></trkpt>
<trkpt lat="46.2248840332031" lon="6.98107576370239"><ele></ele><time>2013-8-3T19:49:58Z</time></trkpt>
<trkpt lat="46.2248687744141" lon="6.98109292984009"><ele></ele><time>2013-8-3T19:50:1Z</time></trkpt>
<trkpt lat="46.2248573303223" lon="6.98111057281494"><ele></ele><time>2013-8-3T19:50:4Z</time></trkpt>
<trkpt lat="46.2247734069824" lon="6.981201171875"><ele></ele><time>2013-8-3T19:50:7Z</time></trkpt>
<trkpt lat="46.2247543334961" lon="6.98122024536133"><ele></ele><time>2013-8-3T19:50:10Z</time></trkpt>
<trkpt lat="46.2247352600098" lon="6.98123741149902"><ele></ele><time>2013-8-3T19:50:13Z</time></trkpt>
<trkpt lat="46.2247161865234" lon="6.98126697540283"><ele></ele><time>2013-8-3T19:50:16Z</time></trkpt>
<trkpt lat="46.2246971130371" lon="6.98129415512085"><ele></ele><time>2013-8-3T19:50:19Z</time></trkpt>
<trkpt lat="46.2246398925781" lon="6.98136186599732"><ele></ele><time>2013-8-3T19:50:22Z</time></trkpt>
<trkpt lat="46.224536895752" lon="6.98154354095459"><ele></ele><time>2013-8-3T19:50:25Z</time></trkpt>
<trkpt lat="46.2244682312012" lon="6.98170185089111"><ele></ele><time>2013-8-3T19:50:28Z</time></trkpt>
<trkpt lat="46.2244529724121" lon="6.98173332214356"><ele></ele><time>2013-8-3T19:50:31Z</time></trkpt>
<trkpt lat="46.224437713623" lon="6.98176670074463"><ele></ele><time>2013-8-3T19:50:34Z</time></trkpt>
<trkpt lat="46.224422454834" lon="6.98180198669434"><ele></ele><time>2013-8-3T19:50:37Z</time></trkpt>
<trkpt lat="46.2244033813477" lon="6.98183870315552"><ele></ele><time>2013-8-3T19:50:40Z</time></trkpt>
<trkpt lat="46.2243461608887" lon="6.98204755783081"><ele></ele><time>2013-8-3T19:50:43Z</time></trkpt>
<trkpt lat="46.2243003845215" lon="6.98221921920776"><ele></ele><time>2013-8-3T19:50:46Z</time></trkpt>
<trkpt lat="46.2241706848144" lon="6.98248386383057"><ele></ele><time>2013-8-3T19:50:49Z</time></trkpt>
<trkpt lat="46.2240219116211" lon="6.98266267776489"><ele></ele><time>2013-8-3T19:50:52Z</time></trkpt>
<trkpt lat="46.2237701416016" lon="6.98289680480957"><ele></ele><time>2013-8-3T19:50:55Z</time></trkpt>
<trkpt lat="46.2236862182617" lon="6.98297834396362"><ele></ele><time>2013-8-3T19:50:58Z</time></trkpt>
<trkpt lat="46.2236557006836" lon="6.98300123214722"><ele></ele><time>2013-8-3T19:51:1Z</time></trkpt>
<trkpt lat="46.2236213684082" lon="6.98302030563354"><ele></ele><time>2013-8-3T19:51:4Z</time></trkpt>
<trkpt lat="46.2235908508301" lon="6.98304128646851"><ele></ele><time>2013-8-3T19:51:7Z</time></trkpt>
<trkpt lat="46.2234230041504" lon="6.98315525054932"><ele></ele><time>2013-8-3T19:51:10Z</time></trkpt>
<trkpt lat="46.2233734130859" lon="6.98319816589356"><ele></ele><time>2013-8-3T19:51:13Z</time></trkpt>
<trkpt lat="46.2233467102051" lon="6.98321533203125"><ele></ele><time>2013-8-3T19:51:16Z</time></trkpt>
<trkpt lat="46.2233200073242" lon="6.98323154449463"><ele></ele><time>2013-8-3T19:51:19Z</time></trkpt>
<trkpt lat="46.2232933044434" lon="6.98325109481812"><ele></ele><time>2013-8-3T19:51:22Z</time></trkpt>
<trkpt lat="46.2232627868652" lon="6.98326921463013"><ele></ele><time>2013-8-3T19:51:25Z</time></trkpt>
<trkpt lat="46.2231636047363" lon="6.98333168029785"><ele></ele><time>2013-8-3T19:51:28Z</time></trkpt>
<trkpt lat="46.2230415344238" lon="6.98340749740601"><ele></ele><time>2013-8-3T19:51:31Z</time></trkpt>
<trkpt lat="46.2230186462402" lon="6.98342609405518"><ele></ele><time>2013-8-3T19:51:34Z</time></trkpt>
<trkpt lat="46.2229881286621" lon="6.98344612121582"><ele></ele><time>2013-8-3T19:51:37Z</time></trkpt>
<trkpt lat="46.222957611084" lon="6.98346662521362"><ele></ele><time>2013-8-3T19:51:40Z</time></trkpt>
<trkpt lat="46.2229309082031" lon="6.983482837677"><ele></ele><time>2013-8-3T19:51:43Z</time></trkpt>
<trkpt lat="46.2227630615234" lon="6.98358869552612"><ele></ele><time>2013-8-3T19:51:46Z</time></trkpt>
<trkpt lat="46.2226295471191" lon="6.98372411727905"><ele></ele><time>2013-8-3T19:51:49Z</time></trkpt>
<trkpt lat="46.2226104736328" lon="6.98375749588013"><ele></ele><time>2013-8-3T19:51:52Z</time></trkpt>
<trkpt lat="46.2225875854492" lon="6.98379755020142"><ele></ele><time>2013-8-3T19:51:55Z</time></trkpt>
<trkpt lat="46.2225685119629" lon="6.98383617401123"><ele></ele><time>2013-8-3T19:51:58Z</time></trkpt>
<trkpt lat="46.2225532531738" lon="6.98387479782104"><ele></ele><time>2013-8-3T19:52:1Z</time></trkpt>
<trkpt lat="46.2224617004394" lon="6.98409271240234"><ele></ele><time>2013-8-3T19:52:4Z</time></trkpt>
<trkpt lat="46.2223892211914" lon="6.98439168930054"><ele></ele><time>2013-8-3T19:52:7Z</time></trkpt>
<trkpt lat="46.2223663330078" lon="6.98466300964356"><ele></ele><time>2013-8-3T19:52:10Z</time></trkpt>
<trkpt lat="46.2223663330078" lon="6.98472023010254"><ele></ele><time>2013-8-3T19:52:13Z</time></trkpt>
<trkpt lat="46.2223701477051" lon="6.98478078842163"><ele></ele><time>2013-8-3T19:52:16Z</time></trkpt>
<trkpt lat="46.2223815917969" lon="6.98495531082153"><ele></ele><time>2013-8-3T19:52:19Z</time></trkpt>
<trkpt lat="46.2223968505859" lon="6.98501682281494"><ele></ele><time>2013-8-3T19:52:22Z</time></trkpt>
<trkpt lat="46.2224464416504" lon="6.98538589477539"><ele></ele><time>2013-8-3T19:52:25Z</time></trkpt>
<trkpt lat="46.2224502563477" lon="6.98545789718628"><ele></ele><time>2013-8-3T19:52:28Z</time></trkpt>
<trkpt lat="46.2224502563477" lon="6.98552179336548"><ele></ele><time>2013-8-3T19:52:31Z</time></trkpt>
<trkpt lat="46.2224464416504" lon="6.98558568954468"><ele></ele><time>2013-8-3T19:52:34Z</time></trkpt>
<trkpt lat="46.2224311828613" lon="6.98564434051514"><ele></ele><time>2013-8-3T19:52:37Z</time></trkpt>
<trkpt lat="46.222412109375" lon="6.9857029914856"><ele></ele><time>2013-8-3T19:52:40Z</time></trkpt>
<trkpt lat="46.2223854064941" lon="6.985755443573"><ele></ele><time>2013-8-3T19:52:43Z</time></trkpt>
<trkpt lat="46.2222671508789" lon="6.98586368560791"><ele></ele><time>2013-8-3T19:52:46Z</time></trkpt>
<trkpt lat="46.2219619750977" lon="6.98614883422852"><ele></ele><time>2013-8-3T19:52:49Z</time></trkpt>
<trkpt lat="46.2217102050781" lon="6.9863691329956"><ele></ele><time>2013-8-3T19:52:52Z</time></trkpt>
<trkpt lat="46.2216033935547" lon="6.9864706993103"><ele></ele><time>2013-8-3T19:52:55Z</time></trkpt>
<trkpt lat="46.221565246582" lon="6.98650360107422"><ele></ele><time>2013-8-3T19:52:58Z</time></trkpt>
<trkpt lat="46.2215232849121" lon="6.98653507232666"><ele></ele><time>2013-8-3T19:53:1Z</time></trkpt>
<trkpt lat="46.2214851379394" lon="6.98656558990478"><ele></ele><time>2013-8-3T19:53:4Z</time></trkpt>
<trkpt lat="46.2214050292969" lon="6.98662328720093"><ele></ele><time>2013-8-3T19:53:7Z</time></trkpt>
<trkpt lat="46.2210998535156" lon="6.98684167861938"><ele></ele><time>2013-8-3T19:53:10Z</time></trkpt>
<trkpt lat="46.2208366394043" lon="6.98698711395264"><ele></ele><time>2013-8-3T19:53:13Z</time></trkpt>
<trkpt lat="46.2208023071289" lon="6.98700428009033"><ele></ele><time>2013-8-3T19:53:16Z</time></trkpt>
<trkpt lat="46.2207679748535" lon="6.9870195388794"><ele></ele><time>2013-8-3T19:53:19Z</time></trkpt>
<trkpt lat="46.2207336425781" lon="6.98703479766846"><ele></ele><time>2013-8-3T19:53:22Z</time></trkpt>
<trkpt lat="46.2206954956055" lon="6.98704624176025"><ele></ele><time>2013-8-3T19:53:25Z</time></trkpt>
<trkpt lat="46.2206573486328" lon="6.98705673217774"><ele></ele><time>2013-8-3T19:53:28Z</time></trkpt>
<trkpt lat="46.2205238342285" lon="6.98708581924438"><ele></ele><time>2013-8-3T19:53:31Z</time></trkpt>
<trkpt lat="46.220344543457" lon="6.98714828491211"><ele></ele><time>2013-8-3T19:53:34Z</time></trkpt>
<trkpt lat="46.2203140258789" lon="6.98715686798096"><ele></ele><time>2013-8-3T19:53:37Z</time></trkpt>
<trkpt lat="46.2202796936035" lon="6.98716831207275"><ele></ele><time>2013-8-3T19:53:40Z</time></trkpt>
<trkpt lat="46.2202453613281" lon="6.98717975616455"><ele></ele><time>2013-8-3T19:53:43Z</time></trkpt>
<trkpt lat="46.22021484375" lon="6.98718976974487"><ele></ele><time>2013-8-3T19:53:46Z</time></trkpt>
<trkpt lat="46.2200088500977" lon="6.98725843429565"><ele></ele><time>2013-8-3T19:53:49Z</time></trkpt>
<trkpt lat="46.2197570800781" lon="6.9873948097229"><ele></ele><time>2013-8-3T19:53:52Z</time></trkpt>
<trkpt lat="46.2197189331055" lon="6.98741388320923"><ele></ele><time>2013-8-3T19:53:55Z</time></trkpt>
<trkpt lat="46.2196846008301" lon="6.98743391036987"><ele></ele><time>2013-8-3T19:53:58Z</time></trkpt>
<trkpt lat="46.2196502685547" lon="6.98746204376221"><ele></ele><time>2013-8-3T19:54:1Z</time></trkpt>
<trkpt lat="46.2196159362793" lon="6.9874849319458"><ele></ele><time>2013-8-3T19:54:4Z</time></trkpt>
<trkpt lat="46.2195777893066" lon="6.98751068115234"><ele></ele><time>2013-8-3T19:54:7Z</time></trkpt>
<trkpt lat="46.2195434570312" lon="6.98753690719604"><ele></ele><time>2013-8-3T19:54:10Z</time></trkpt>
<trkpt lat="46.2192459106445" lon="6.98780536651611"><ele></ele><time>2013-8-3T19:54:13Z</time></trkpt>
<trkpt lat="46.2192115783691" lon="6.98783874511719"><ele></ele><time>2013-8-3T19:54:16Z</time></trkpt>
<trkpt lat="46.2191848754883" lon="6.98786878585815"><ele></ele><time>2013-8-3T19:54:19Z</time></trkpt>
<trkpt lat="46.2191543579102" lon="6.98789834976196"><ele></ele><time>2013-8-3T19:54:22Z</time></trkpt>
<trkpt lat="46.219123840332" lon="6.98792505264282"><ele></ele><time>2013-8-3T19:54:25Z</time></trkpt>
<trkpt lat="46.2190628051758" lon="6.98798704147339"><ele></ele><time>2013-8-3T19:54:28Z</time></trkpt>
<trkpt lat="46.2188377380371" lon="6.98817348480225"><ele></ele><time>2013-8-3T19:54:31Z</time></trkpt>
<trkpt lat="46.2188034057617" lon="6.98820066452026"><ele></ele><time>2013-8-3T19:54:34Z</time></trkpt>
<trkpt lat="46.2187728881836" lon="6.98822689056396"><ele></ele><time>2013-8-3T19:54:37Z</time></trkpt>
<trkpt lat="46.2187423706055" lon="6.98825120925903"><ele></ele><time>2013-8-3T19:54:40Z</time></trkpt>
<trkpt lat="46.2187080383301" lon="6.98827695846558"><ele></ele><time>2013-8-3T19:54:43Z</time></trkpt>
<trkpt lat="46.2185325622559" lon="6.98840570449829"><ele></ele><time>2013-8-3T19:54:46Z</time></trkpt>
<trkpt lat="46.2184638977051" lon="6.9884524345398"><ele></ele><time>2013-8-3T19:54:49Z</time></trkpt>
<trkpt lat="46.2182350158691" lon="6.98855209350586"><ele></ele><time>2013-8-3T19:54:52Z</time></trkpt>
<trkpt lat="46.2179145812988" lon="6.98868417739868"><ele></ele><time>2013-8-3T19:54:55Z</time></trkpt>
<trkpt lat="46.2178764343262" lon="6.98870038986206"><ele></ele><time>2013-8-3T19:54:58Z</time></trkpt>
<trkpt lat="46.2178382873535" lon="6.98871517181396"><ele></ele><time>2013-8-3T19:55:1Z</time></trkpt>
<trkpt lat="46.2178001403809" lon="6.98872709274292"><ele></ele><time>2013-8-3T19:55:4Z</time></trkpt>
<trkpt lat="46.2177658081055" lon="6.98874139785767"><ele></ele><time>2013-8-3T19:55:7Z</time></trkpt>
<trkpt lat="46.2176513671875" lon="6.98879861831665"><ele></ele><time>2013-8-3T19:55:10Z</time></trkpt>
<trkpt lat="46.2173843383789" lon="6.98890209197998"><ele></ele><time>2013-8-3T19:55:13Z</time></trkpt>
<trkpt lat="46.2171936035156" lon="6.98895502090454"><ele></ele><time>2013-8-3T19:55:16Z</time></trkpt>
<trkpt lat="46.217155456543" lon="6.98896646499634"><ele></ele><time>2013-8-3T19:55:19Z</time></trkpt>
<trkpt lat="46.2171211242676" lon="6.9889726638794"><ele></ele><time>2013-8-3T19:55:22Z</time></trkpt>
<trkpt lat="46.2170867919922" lon="6.98897838592529"><ele></ele><time>2013-8-3T19:55:25Z</time></trkpt>
<trkpt lat="46.2169952392578" lon="6.98899602890015"><ele></ele><time>2013-8-3T19:55:28Z</time></trkpt>
<trkpt lat="46.2169647216797" lon="6.98900175094604"><ele></ele><time>2013-8-3T19:55:31Z</time></trkpt>
<trkpt lat="46.2169342041016" lon="6.98900842666626"><ele></ele><time>2013-8-3T19:55:34Z</time></trkpt>
<trkpt lat="46.2169036865234" lon="6.98901653289795"><ele></ele><time>2013-8-3T19:55:37Z</time></trkpt>
<trkpt lat="46.2168731689453" lon="6.9890193939209"><ele></ele><time>2013-8-3T19:55:40Z</time></trkpt>
<trkpt lat="46.2167854309082" lon="6.98902750015259"><ele></ele><time>2013-8-3T19:55:43Z</time></trkpt>
<trkpt lat="46.2167549133301" lon="6.98902368545532"><ele></ele><time>2013-8-3T19:55:46Z</time></trkpt>
<trkpt lat="46.2167205810547" lon="6.98903179168701"><ele></ele><time>2013-8-3T19:55:49Z</time></trkpt>
<trkpt lat="46.2166938781738" lon="6.98903751373291"><ele></ele><time>2013-8-3T19:55:52Z</time></trkpt>
<trkpt lat="46.216667175293" lon="6.98904085159302"><ele></ele><time>2013-8-3T19:55:55Z</time></trkpt>
<trkpt lat="46.216609954834" lon="6.98904943466186"><ele></ele><time>2013-8-3T19:55:58Z</time></trkpt>
<trkpt lat="46.2164115905762" lon="6.98906946182251"><ele></ele><time>2013-8-3T19:56:1Z</time></trkpt>
<trkpt lat="46.216381072998" lon="6.98907518386841"><ele></ele><time>2013-8-3T19:56:4Z</time></trkpt>
<trkpt lat="46.2163581848144" lon="6.98907995223999"><ele></ele><time>2013-8-3T19:56:7Z</time></trkpt>
<trkpt lat="46.2163314819336" lon="6.98909187316894"><ele></ele><time>2013-8-3T19:56:10Z</time></trkpt>
<trkpt lat="46.2162437438965" lon="6.98910617828369"><ele></ele><time>2013-8-3T19:56:13Z</time></trkpt>
<trkpt lat="46.2161521911621" lon="6.98911619186401"><ele></ele><time>2013-8-3T19:56:16Z</time></trkpt>
<trkpt lat="46.2161254882812" lon="6.98912286758423"><ele></ele><time>2013-8-3T19:56:19Z</time></trkpt>
<trkpt lat="46.2160987854004" lon="6.98912858963013"><ele></ele><time>2013-8-3T19:56:22Z</time></trkpt>
<trkpt lat="46.2160682678223" lon="6.98913478851318"><ele></ele><time>2013-8-3T19:56:25Z</time></trkpt>
<trkpt lat="46.2160415649414" lon="6.98914003372192"><ele></ele><time>2013-8-3T19:56:28Z</time></trkpt>
<trkpt lat="46.2159271240234" lon="6.98914527893066"><ele></ele><time>2013-8-3T19:56:31Z</time></trkpt>
<trkpt lat="46.2159004211426" lon="6.98915243148804"><ele></ele><time>2013-8-3T19:56:34Z</time></trkpt>
<trkpt lat="46.2158699035644" lon="6.98915815353394"><ele></ele><time>2013-8-3T19:56:37Z</time></trkpt>
<trkpt lat="46.2158432006836" lon="6.98916387557983"><ele></ele><time>2013-8-3T19:56:40Z</time></trkpt>
<trkpt lat="46.2158088684082" lon="6.98916959762573"><ele></ele><time>2013-8-3T19:56:43Z</time></trkpt>
<trkpt lat="46.2157287597656" lon="6.98917722702026"><ele></ele><time>2013-8-3T19:56:46Z</time></trkpt>
<trkpt lat="46.2156181335449" lon="6.98920106887817"><ele></ele><time>2013-8-3T19:56:49Z</time></trkpt>
<trkpt lat="46.2155838012695" lon="6.98920392990112"><ele></ele><time>2013-8-3T19:56:52Z</time></trkpt>
<trkpt lat="46.2155532836914" lon="6.98920631408691"><ele></ele><time>2013-8-3T19:56:55Z</time></trkpt>
<trkpt lat="46.2155265808106" lon="6.98920488357544"><ele></ele><time>2013-8-3T19:56:58Z</time></trkpt>
<trkpt lat="46.2154121398926" lon="6.98921632766724"><ele></ele><time>2013-8-3T19:57:1Z</time></trkpt>
<trkpt lat="46.2153511047363" lon="6.98922824859619"><ele></ele><time>2013-8-3T19:57:4Z</time></trkpt>
<trkpt lat="46.2153205871582" lon="6.98923254013062"><ele></ele><time>2013-8-3T19:57:7Z</time></trkpt>
<trkpt lat="46.2152976989746" lon="6.9892373085022"><ele></ele><time>2013-8-3T19:57:10Z</time></trkpt>
<trkpt lat="46.2152709960938" lon="6.9892430305481"><ele></ele><time>2013-8-3T19:57:13Z</time></trkpt>
<trkpt lat="46.2152442932129" lon="6.9892463684082"><ele></ele><time>2013-8-3T19:57:16Z</time></trkpt>
<trkpt lat="46.2150955200195" lon="6.98926258087158"><ele></ele><time>2013-8-3T19:57:19Z</time></trkpt>
<trkpt lat="46.2150688171387" lon="6.98926687240601"><ele></ele><time>2013-8-3T19:57:22Z</time></trkpt>
<trkpt lat="46.2150382995606" lon="6.98927116394043"><ele></ele><time>2013-8-3T19:57:25Z</time></trkpt>
<trkpt lat="46.2150077819824" lon="6.98927450180054"><ele></ele><time>2013-8-3T19:57:28Z</time></trkpt>
<trkpt lat="46.2149772644043" lon="6.98927640914917"><ele></ele><time>2013-8-3T19:57:31Z</time></trkpt>
<trkpt lat="46.2148933410644" lon="6.9892897605896"><ele></ele><time>2013-8-3T19:57:34Z</time></trkpt>
<trkpt lat="46.2148666381836" lon="6.98929214477539"><ele></ele><time>2013-8-3T19:57:37Z</time></trkpt>
<trkpt lat="46.2148399353027" lon="6.98929786682129"><ele></ele><time>2013-8-3T19:57:40Z</time></trkpt>
<trkpt lat="46.2148132324219" lon="6.98929929733276"><ele></ele><time>2013-8-3T19:57:43Z</time></trkpt>
<trkpt lat="46.214786529541" lon="6.98930072784424"><ele></ele><time>2013-8-3T19:57:46Z</time></trkpt>
<trkpt lat="46.2146530151367" lon="6.98932361602783"><ele></ele><time>2013-8-3T19:57:49Z</time></trkpt>
<trkpt lat="46.2146034240723" lon="6.98933267593384"><ele></ele><time>2013-8-3T19:57:52Z</time></trkpt>
<trkpt lat="46.2145767211914" lon="6.98933362960815"><ele></ele><time>2013-8-3T19:57:55Z</time></trkpt>
<trkpt lat="46.2145500183106" lon="6.98933935165405"><ele></ele><time>2013-8-3T19:57:58Z</time></trkpt>
<trkpt lat="46.2145195007324" lon="6.98934459686279"><ele></ele><time>2013-8-3T19:58:1Z</time></trkpt>
<trkpt lat="46.2144927978516" lon="6.98935031890869"><ele></ele><time>2013-8-3T19:58:4Z</time></trkpt>
<trkpt lat="46.2144355773926" lon="6.98935699462891"><ele></ele><time>2013-8-3T19:58:7Z</time></trkpt>
<trkpt lat="46.2143058776856" lon="6.98937082290649"><ele></ele><time>2013-8-3T19:58:10Z</time></trkpt>
<trkpt lat="46.214282989502" lon="6.98937129974365"><ele></ele><time>2013-8-3T19:58:13Z</time></trkpt>
<trkpt lat="46.2142562866211" lon="6.98937511444092"><ele></ele><time>2013-8-3T19:58:16Z</time></trkpt>
<trkpt lat="46.2142295837402" lon="6.98937654495239"><ele></ele><time>2013-8-3T19:58:19Z</time></trkpt>
<trkpt lat="46.2140769958496" lon="6.98940372467041"><ele></ele><time>2013-8-3T19:58:22Z</time></trkpt>
<trkpt lat="46.2140502929688" lon="6.98940896987915"><ele></ele><time>2013-8-3T19:58:25Z</time></trkpt>
<trkpt lat="46.2140235900879" lon="6.98941326141357"><ele></ele><time>2013-8-3T19:58:28Z</time></trkpt>
<trkpt lat="46.2139930725098" lon="6.98941946029663"><ele></ele><time>2013-8-3T19:58:31Z</time></trkpt>
<trkpt lat="46.2139663696289" lon="6.98942470550537"><ele></ele><time>2013-8-3T19:58:34Z</time></trkpt>
<trkpt lat="46.2138595581055" lon="6.9894289970398"><ele></ele><time>2013-8-3T19:58:37Z</time></trkpt>
<trkpt lat="46.213752746582" lon="6.989426612854"><ele></ele><time>2013-8-3T19:58:40Z</time></trkpt>
<trkpt lat="46.2137298583984" lon="6.98942756652832"><ele></ele><time>2013-8-3T19:58:43Z</time></trkpt>
<trkpt lat="46.2137031555176" lon="6.98942422866821"><ele></ele><time>2013-8-3T19:58:46Z</time></trkpt>
<trkpt lat="46.213680267334" lon="6.98941612243652"><ele></ele><time>2013-8-3T19:58:49Z</time></trkpt>
<trkpt lat="46.2136535644531" lon="6.98940420150757"><ele></ele><time>2013-8-3T19:58:52Z</time></trkpt>
<trkpt lat="46.2135543823242" lon="6.98934268951416"><ele></ele><time>2013-8-3T19:58:55Z</time></trkpt>
<trkpt lat="46.2135353088379" lon="6.9893274307251"><ele></ele><time>2013-8-3T19:58:58Z</time></trkpt>
<trkpt lat="46.2135200500488" lon="6.9893069267273"><ele></ele><time>2013-8-3T19:59:1Z</time></trkpt>
<trkpt lat="46.2135047912598" lon="6.98928928375244"><ele></ele><time>2013-8-3T19:59:4Z</time></trkpt>
<trkpt lat="46.2134895324707" lon="6.98926639556885"><ele></ele><time>2013-8-3T19:59:7Z</time></trkpt>
<trkpt lat="46.2134742736816" lon="6.98924112319946"><ele></ele><time>2013-8-3T19:59:10Z</time></trkpt>
<trkpt lat="46.2134552001953" lon="6.98921060562134"><ele></ele><time>2013-8-3T19:59:13Z</time></trkpt>
<trkpt lat="46.2133560180664" lon="6.98898029327393"><ele></ele><time>2013-8-3T19:59:16Z</time></trkpt>
<trkpt lat="46.2133483886719" lon="6.98894500732422"><ele></ele><time>2013-8-3T19:59:19Z</time></trkpt>
<trkpt lat="46.2133407592773" lon="6.9889063835144"><ele></ele><time>2013-8-3T19:59:22Z</time></trkpt>
<trkpt lat="46.2133407592773" lon="6.98887300491333"><ele></ele><time>2013-8-3T19:59:25Z</time></trkpt>
<trkpt lat="46.2133407592773" lon="6.98883628845215"><ele></ele><time>2013-8-3T19:59:28Z</time></trkpt>
<trkpt lat="46.2133331298828" lon="6.98879957199097"><ele></ele><time>2013-8-3T19:59:31Z</time></trkpt>
<trkpt lat="46.2133255004883" lon="6.98872756958008"><ele></ele><time>2013-8-3T19:59:34Z</time></trkpt>
<trkpt lat="46.213321685791" lon="6.9886531829834"><ele></ele><time>2013-8-3T19:59:37Z</time></trkpt>
<trkpt lat="46.2133255004883" lon="6.98861598968506"><ele></ele><time>2013-8-3T19:59:40Z</time></trkpt>
<trkpt lat="46.213321685791" lon="6.98857736587524"><ele></ele><time>2013-8-3T19:59:43Z</time></trkpt>
<trkpt lat="46.213321685791" lon="6.98853874206543"><ele></ele><time>2013-8-3T19:59:46Z</time></trkpt>
<trkpt lat="46.2133178710938" lon="6.98849678039551"><ele></ele><time>2013-8-3T19:59:49Z</time></trkpt>
<trkpt lat="46.2133140563965" lon="6.98845911026001"><ele></ele><time>2013-8-3T19:59:52Z</time></trkpt>
<trkpt lat="46.213306427002" lon="6.98824167251587"><ele></ele><time>2013-8-3T19:59:55Z</time></trkpt>
<trkpt lat="46.213306427002" lon="6.98820447921753"><ele></ele><time>2013-8-3T19:59:58Z</time></trkpt>
<trkpt lat="46.2133026123047" lon="6.98816680908203"><ele></ele><time>2013-8-3T20:0:1Z</time></trkpt>
<trkpt lat="46.2132949829102" lon="6.98812913894653"><ele></ele><time>2013-8-3T20:0:4Z</time></trkpt>
<trkpt lat="46.2132911682129" lon="6.98809146881104"><ele></ele><time>2013-8-3T20:0:7Z</time></trkpt>
<trkpt lat="46.2132606506348" lon="6.98798608779907"><ele></ele><time>2013-8-3T20:0:10Z</time></trkpt>
<trkpt lat="46.2131729125977" lon="6.9878396987915"><ele></ele><time>2013-8-3T20:0:13Z</time></trkpt>
<trkpt lat="46.2131500244141" lon="6.98781251907349"><ele></ele><time>2013-8-3T20:0:16Z</time></trkpt>
<trkpt lat="46.2131233215332" lon="6.98778867721558"><ele></ele><time>2013-8-3T20:0:19Z</time></trkpt>
<trkpt lat="46.2130966186523" lon="6.98777198791504"><ele></ele><time>2013-8-3T20:0:22Z</time></trkpt>
<trkpt lat="46.2130241394043" lon="6.98771333694458"><ele></ele><time>2013-8-3T20:0:25Z</time></trkpt>
<trkpt lat="46.2128944396973" lon="6.98761606216431"><ele></ele><time>2013-8-3T20:0:28Z</time></trkpt>
<trkpt lat="46.2128677368164" lon="6.98759698867798"><ele></ele><time>2013-8-3T20:0:31Z</time></trkpt>
<trkpt lat="46.2128410339356" lon="6.98757457733154"><ele></ele><time>2013-8-3T20:0:34Z</time></trkpt>
<trkpt lat="46.2128105163574" lon="6.98755931854248"><ele></ele><time>2013-8-3T20:0:37Z</time></trkpt>
<trkpt lat="46.2127876281738" lon="6.98753452301025"><ele></ele><time>2013-8-3T20:0:40Z</time></trkpt>
<trkpt lat="46.2127151489258" lon="6.98748445510864"><ele></ele><time>2013-8-3T20:0:43Z</time></trkpt>
<trkpt lat="46.2125930786133" lon="6.98738718032837"><ele></ele><time>2013-8-3T20:0:46Z</time></trkpt>
<trkpt lat="46.2125663757324" lon="6.98736763000488"><ele></ele><time>2013-8-3T20:0:49Z</time></trkpt>
<trkpt lat="46.2125396728516" lon="6.98734998703003"><ele></ele><time>2013-8-3T20:0:52Z</time></trkpt>
<trkpt lat="46.2125129699707" lon="6.98733186721802"><ele></ele><time>2013-8-3T20:0:55Z</time></trkpt>
<trkpt lat="46.2123107910156" lon="6.98718357086182"><ele></ele><time>2013-8-3T20:0:58Z</time></trkpt>
<trkpt lat="46.2122840881348" lon="6.9871621131897"><ele></ele><time>2013-8-3T20:1:1Z</time></trkpt>
<trkpt lat="46.2122535705566" lon="6.98714637756348"><ele></ele><time>2013-8-3T20:1:4Z</time></trkpt>
<trkpt lat="46.2122268676758" lon="6.98713302612305"><ele></ele><time>2013-8-3T20:1:7Z</time></trkpt>
<trkpt lat="46.2122001647949" lon="6.98711919784546"><ele></ele><time>2013-8-3T20:1:10Z</time></trkpt>
<trkpt lat="46.2121696472168" lon="6.98711061477661"><ele></ele><time>2013-8-3T20:1:13Z</time></trkpt>
<trkpt lat="46.2121391296387" lon="6.98710060119629"><ele></ele><time>2013-8-3T20:1:16Z</time></trkpt>
<trkpt lat="46.2119522094727" lon="6.98710107803345"><ele></ele><time>2013-8-3T20:1:19Z</time></trkpt>
<trkpt lat="46.2119216918945" lon="6.98710870742798"><ele></ele><time>2013-8-3T20:1:22Z</time></trkpt>
<trkpt lat="46.2118949890137" lon="6.98711776733398"><ele></ele><time>2013-8-3T20:1:25Z</time></trkpt>
<trkpt lat="46.2118682861328" lon="6.98712873458862"><ele></ele><time>2013-8-3T20:1:28Z</time></trkpt>
<trkpt lat="46.211841583252" lon="6.98714542388916"><ele></ele><time>2013-8-3T20:1:31Z</time></trkpt>
<trkpt lat="46.2117576599121" lon="6.98719358444214"><ele></ele><time>2013-8-3T20:1:34Z</time></trkpt>
<trkpt lat="46.2116432189941" lon="6.98725891113281"><ele></ele><time>2013-8-3T20:1:37Z</time></trkpt>
<trkpt lat="46.2116203308106" lon="6.98727178573608"><ele></ele><time>2013-8-3T20:1:40Z</time></trkpt>
<trkpt lat="46.2115936279297" lon="6.9872841835022"><ele></ele><time>2013-8-3T20:1:43Z</time></trkpt>
<trkpt lat="46.2115631103516" lon="6.98730421066284"><ele></ele><time>2013-8-3T20:1:46Z</time></trkpt>
<trkpt lat="46.2115364074707" lon="6.98732328414917"><ele></ele><time>2013-8-3T20:1:49Z</time></trkpt>
<trkpt lat="46.2114219665527" lon="6.98741245269775"><ele></ele><time>2013-8-3T20:1:52Z</time></trkpt>
<trkpt lat="46.2113952636719" lon="6.98742341995239"><ele></ele><time>2013-8-3T20:1:55Z</time></trkpt>
<trkpt lat="46.2113723754883" lon="6.98741960525513"><ele></ele><time>2013-8-3T20:1:58Z</time></trkpt>
<trkpt lat="46.2113571166992" lon="6.98739719390869"><ele></ele><time>2013-8-3T20:2:1Z</time></trkpt>
<trkpt lat="46.2113418579102" lon="6.98736810684204"><ele></ele><time>2013-8-3T20:2:4Z</time></trkpt>
<trkpt lat="46.2113380432129" lon="6.98733520507812"><ele></ele><time>2013-8-3T20:2:7Z</time></trkpt>
<trkpt lat="46.2113647460938" lon="6.98724794387817"><ele></ele><time>2013-8-3T20:2:10Z</time></trkpt>
<trkpt lat="46.2113761901856" lon="6.98721981048584"><ele></ele><time>2013-8-3T20:2:13Z</time></trkpt>
<trkpt lat="46.2113876342773" lon="6.98719024658203"><ele></ele><time>2013-8-3T20:2:16Z</time></trkpt>
<trkpt lat="46.2113952636719" lon="6.98716259002686"><ele></ele><time>2013-8-3T20:2:19Z</time></trkpt>
<trkpt lat="46.21142578125" lon="6.98707866668701"><ele></ele><time>2013-8-3T20:2:22Z</time></trkpt>
<trkpt lat="46.2114372253418" lon="6.98705148696899"><ele></ele><time>2013-8-3T20:2:25Z</time></trkpt>
<trkpt lat="46.2114486694336" lon="6.98702526092529"><ele></ele><time>2013-8-3T20:2:28Z</time></trkpt>
<trkpt lat="46.2114562988281" lon="6.98699426651001"><ele></ele><time>2013-8-3T20:2:31Z</time></trkpt>
<trkpt lat="46.2114639282227" lon="6.98696184158325"><ele></ele><time>2013-8-3T20:2:34Z</time></trkpt>
<trkpt lat="46.2115325927734" lon="6.98672962188721"><ele></ele><time>2013-8-3T20:2:37Z</time></trkpt>
<trkpt lat="46.2115440368652" lon="6.98667097091675"><ele></ele><time>2013-8-3T20:2:40Z</time></trkpt>
<trkpt lat="46.2115516662598" lon="6.98663711547852"><ele></ele><time>2013-8-3T20:2:43Z</time></trkpt>
<trkpt lat="46.2115592956543" lon="6.98660087585449"><ele></ele><time>2013-8-3T20:2:46Z</time></trkpt>
<trkpt lat="46.2115745544434" lon="6.98656988143921"><ele></ele><time>2013-8-3T20:2:49Z</time></trkpt>
<trkpt lat="46.2115898132324" lon="6.98654413223267"><ele></ele><time>2013-8-3T20:2:52Z</time></trkpt>
<trkpt lat="46.2116317749023" lon="6.98646831512451"><ele></ele><time>2013-8-3T20:2:55Z</time></trkpt>
<trkpt lat="46.2116394042969" lon="6.9864444732666"><ele></ele><time>2013-8-3T20:2:58Z</time></trkpt>
<trkpt lat="46.2116508483887" lon="6.98641490936279"><ele></ele><time>2013-8-3T20:3:1Z</time></trkpt>
<trkpt lat="46.211669921875" lon="6.98638677597046"><ele></ele><time>2013-8-3T20:3:4Z</time></trkpt>
<trkpt lat="46.2116889953613" lon="6.98636341094971"><ele></ele><time>2013-8-3T20:3:7Z</time></trkpt>
<trkpt lat="46.2117118835449" lon="6.98631620407104"><ele></ele><time>2013-8-3T20:3:10Z</time></trkpt>
<trkpt lat="46.211727142334" lon="6.98629379272461"><ele></ele><time>2013-8-3T20:3:13Z</time></trkpt>
<trkpt lat="46.2117500305176" lon="6.98627185821533"><ele></ele><time>2013-8-3T20:3:16Z</time></trkpt>
<trkpt lat="46.2117691040039" lon="6.98624420166016"><ele></ele><time>2013-8-3T20:3:19Z</time></trkpt>
<trkpt lat="46.211784362793" lon="6.98622226715088"><ele></ele><time>2013-8-3T20:3:22Z</time></trkpt>
<trkpt lat="46.2117958068848" lon="6.98619747161865"><ele></ele><time>2013-8-3T20:3:25Z</time></trkpt>
<trkpt lat="46.2118339538574" lon="6.98613357543945"><ele></ele><time>2013-8-3T20:3:28Z</time></trkpt>
<trkpt lat="46.2118453979492" lon="6.98611545562744"><ele></ele><time>2013-8-3T20:3:31Z</time></trkpt>
<trkpt lat="46.2118606567383" lon="6.98609304428101"><ele></ele><time>2013-8-3T20:3:34Z</time></trkpt>
<trkpt lat="46.2118721008301" lon="6.9860725402832"><ele></ele><time>2013-8-3T20:3:37Z</time></trkpt>
<trkpt lat="46.2118873596191" lon="6.98605298995972"><ele></ele><time>2013-8-3T20:3:40Z</time></trkpt>
<trkpt lat="46.2119026184082" lon="6.98603391647339"><ele></ele><time>2013-8-3T20:3:43Z</time></trkpt>
<trkpt lat="46.2119636535644" lon="6.98595762252808"><ele></ele><time>2013-8-3T20:3:46Z</time></trkpt>
<trkpt lat="46.2119941711426" lon="6.98592567443848"><ele></ele><time>2013-8-3T20:3:49Z</time></trkpt>
<trkpt lat="46.2120132446289" lon="6.9859094619751"><ele></ele><time>2013-8-3T20:3:52Z</time></trkpt>
<trkpt lat="46.2121391296387" lon="6.98584985733032"><ele></ele><time>2013-8-3T20:3:55Z</time></trkpt>
<trkpt lat="46.212158203125" lon="6.98584794998169"><ele></ele><time>2013-8-3T20:3:58Z</time></trkpt>
<trkpt lat="46.2121810913086" lon="6.98584794998169"><ele></ele><time>2013-8-3T20:4:1Z</time></trkpt>
<trkpt lat="46.2122039794922" lon="6.98584699630737"><ele></ele><time>2013-8-3T20:4:4Z</time></trkpt>
<trkpt lat="46.2122268676758" lon="6.98584032058716"><ele></ele><time>2013-8-3T20:4:7Z</time></trkpt>
<trkpt lat="46.2122459411621" lon="6.98584365844726"><ele></ele><time>2013-8-3T20:4:10Z</time></trkpt>
<trkpt lat="46.2123947143555" lon="6.98585224151611"><ele></ele><time>2013-8-3T20:4:13Z</time></trkpt>
<trkpt lat="46.2124176025391" lon="6.98585033416748"><ele></ele><time>2013-8-3T20:4:16Z</time></trkpt>
<trkpt lat="46.2124366760254" lon="6.98585033416748"><ele></ele><time>2013-8-3T20:4:19Z</time></trkpt>
<trkpt lat="46.212459564209" lon="6.98585033416748"><ele></ele><time>2013-8-3T20:4:22Z</time></trkpt>
<trkpt lat="46.2124786376953" lon="6.98585796356201"><ele></ele><time>2013-8-3T20:4:25Z</time></trkpt>
<trkpt lat="46.2125587463379" lon="6.98584890365601"><ele></ele><time>2013-8-3T20:4:28Z</time></trkpt>
<trkpt lat="46.2126617431641" lon="6.98583650588989"><ele></ele><time>2013-8-3T20:4:31Z</time></trkpt>
<trkpt lat="46.2126884460449" lon="6.98583030700684"><ele></ele><time>2013-8-3T20:4:34Z</time></trkpt>
<trkpt lat="46.2127113342285" lon="6.9858283996582"><ele></ele><time>2013-8-3T20:4:37Z</time></trkpt>
<trkpt lat="46.2127380371094" lon="6.98582744598389"><ele></ele><time>2013-8-3T20:4:40Z</time></trkpt>
<trkpt lat="46.2127647399902" lon="6.98582363128662"><ele></ele><time>2013-8-3T20:4:43Z</time></trkpt>
<trkpt lat="46.212947845459" lon="6.98579788208008"><ele></ele><time>2013-8-3T20:4:46Z</time></trkpt>
<trkpt lat="46.213077545166" lon="6.98576784133911"><ele></ele><time>2013-8-3T20:4:49Z</time></trkpt>
<trkpt lat="46.2131042480469" lon="6.98576259613037"><ele></ele><time>2013-8-3T20:4:52Z</time></trkpt>
<trkpt lat="46.2131271362305" lon="6.98574781417847"><ele></ele><time>2013-8-3T20:4:55Z</time></trkpt>
<trkpt lat="46.2131538391113" lon="6.9857292175293"><ele></ele><time>2013-8-3T20:4:58Z</time></trkpt>
<trkpt lat="46.2131805419922" lon="6.9857177734375"><ele></ele><time>2013-8-3T20:5:1Z</time></trkpt>
<trkpt lat="46.2132225036621" lon="6.98567724227905"><ele></ele><time>2013-8-3T20:5:4Z</time></trkpt>
<trkpt lat="46.2133598327637" lon="6.9854474067688"><ele></ele><time>2013-8-3T20:5:7Z</time></trkpt>
<trkpt lat="46.2134857177734" lon="6.98519992828369"><ele></ele><time>2013-8-3T20:5:10Z</time></trkpt>
<trkpt lat="46.2136764526367" lon="6.985032081604"><ele></ele><time>2013-8-3T20:5:13Z</time></trkpt>
<trkpt lat="46.2138252258301" lon="6.98492670059204"><ele></ele><time>2013-8-3T20:5:16Z</time></trkpt>
<trkpt lat="46.2138557434082" lon="6.98490142822266"><ele></ele><time>2013-8-3T20:5:19Z</time></trkpt>
<trkpt lat="46.2138862609863" lon="6.98487901687622"><ele></ele><time>2013-8-3T20:5:22Z</time></trkpt>
<trkpt lat="46.2139167785644" lon="6.98486375808716"><ele></ele><time>2013-8-3T20:5:25Z</time></trkpt>
<trkpt lat="46.2139434814453" lon="6.98484420776367"><ele></ele><time>2013-8-3T20:5:28Z</time></trkpt>
<trkpt lat="46.2140350341797" lon="6.98474454879761"><ele></ele><time>2013-8-3T20:5:31Z</time></trkpt>
<trkpt lat="46.214111328125" lon="6.98461961746216"><ele></ele><time>2013-8-3T20:5:34Z</time></trkpt>
<trkpt lat="46.2141304016113" lon="6.98458957672119"><ele></ele><time>2013-8-3T20:5:37Z</time></trkpt>
<trkpt lat="46.2141456604004" lon="6.98455381393433"><ele></ele><time>2013-8-3T20:5:40Z</time></trkpt>
<trkpt lat="46.2141609191894" lon="6.98452091217041"><ele></ele><time>2013-8-3T20:5:43Z</time></trkpt>
<trkpt lat="46.2141761779785" lon="6.98448991775513"><ele></ele><time>2013-8-3T20:5:46Z</time></trkpt>
<trkpt lat="46.2142601013184" lon="6.98430061340332"><ele></ele><time>2013-8-3T20:5:49Z</time></trkpt>
<trkpt lat="46.2142753601074" lon="6.98426914215088"><ele></ele><time>2013-8-3T20:5:52Z</time></trkpt>
<trkpt lat="46.2142868041992" lon="6.98424005508423"><ele></ele><time>2013-8-3T20:5:55Z</time></trkpt>
<trkpt lat="46.214298248291" lon="6.98421239852905"><ele></ele><time>2013-8-3T20:5:58Z</time></trkpt>
<trkpt lat="46.2143669128418" lon="6.98406934738159"><ele></ele><time>2013-8-3T20:6:1Z</time></trkpt>
<trkpt lat="46.2144050598144" lon="6.98397541046143"><ele></ele><time>2013-8-3T20:6:4Z</time></trkpt>
<trkpt lat="46.2144203186035" lon="6.98394584655762"><ele></ele><time>2013-8-3T20:6:7Z</time></trkpt>
<trkpt lat="46.2144355773926" lon="6.98391819000244"><ele></ele><time>2013-8-3T20:6:10Z</time></trkpt>
<trkpt lat="46.2144470214844" lon="6.98388719558716"><ele></ele><time>2013-8-3T20:6:13Z</time></trkpt>
<trkpt lat="46.2144660949707" lon="6.9838604927063"><ele></ele><time>2013-8-3T20:6:16Z</time></trkpt>
<trkpt lat="46.2145347595215" lon="6.98370027542114"><ele></ele><time>2013-8-3T20:6:19Z</time></trkpt>
<trkpt lat="46.2145462036133" lon="6.98366355895996"><ele></ele><time>2013-8-3T20:6:22Z</time></trkpt>
<trkpt lat="46.2145538330078" lon="6.98362588882446"><ele></ele><time>2013-8-3T20:6:25Z</time></trkpt>
<trkpt lat="46.2145576477051" lon="6.98358678817749"><ele></ele><time>2013-8-3T20:6:28Z</time></trkpt>
<trkpt lat="46.2145652770996" lon="6.9835467338562"><ele></ele><time>2013-8-3T20:6:31Z</time></trkpt>
<trkpt lat="46.2145690917969" lon="6.98343515396118"><ele></ele><time>2013-8-3T20:6:34Z</time></trkpt>
<trkpt lat="46.2146148681641" lon="6.98318862915039"><ele></ele><time>2013-8-3T20:6:37Z</time></trkpt>
<trkpt lat="46.2146224975586" lon="6.98315525054932"><ele></ele><time>2013-8-3T20:6:40Z</time></trkpt>
<trkpt lat="46.2146339416504" lon="6.98311853408814"><ele></ele><time>2013-8-3T20:6:43Z</time></trkpt>
<trkpt lat="46.2146530151367" lon="6.98308849334717"><ele></ele><time>2013-8-3T20:6:46Z</time></trkpt>
<trkpt lat="46.214672088623" lon="6.98306179046631"><ele></ele><time>2013-8-3T20:6:49Z</time></trkpt>
<trkpt lat="46.2146873474121" lon="6.98302698135376"><ele></ele><time>2013-8-3T20:6:52Z</time></trkpt>
<trkpt lat="46.2146987915039" lon="6.98299503326416"><ele></ele><time>2013-8-3T20:6:55Z</time></trkpt>
<trkpt lat="46.2147521972656" lon="6.98287343978882"><ele></ele><time>2013-8-3T20:6:58Z</time></trkpt>
<trkpt lat="46.2147674560547" lon="6.98284435272217"><ele></ele><time>2013-8-3T20:7:1Z</time></trkpt>
<trkpt lat="46.2147827148438" lon="6.98281240463257"><ele></ele><time>2013-8-3T20:7:4Z</time></trkpt>
<trkpt lat="46.2147941589356" lon="6.98277902603149"><ele></ele><time>2013-8-3T20:7:7Z</time></trkpt>
<trkpt lat="46.2148094177246" lon="6.9827446937561"><ele></ele><time>2013-8-3T20:7:10Z</time></trkpt>
<trkpt lat="46.2148666381836" lon="6.98260688781738"><ele></ele><time>2013-8-3T20:7:13Z</time></trkpt>
<trkpt lat="46.2148857116699" lon="6.98257350921631"><ele></ele><time>2013-8-3T20:7:16Z</time></trkpt>
<trkpt lat="46.2148971557617" lon="6.98253726959228"><ele></ele><time>2013-8-3T20:7:19Z</time></trkpt>
<trkpt lat="46.2149200439453" lon="6.98250818252564"><ele></ele><time>2013-8-3T20:7:22Z</time></trkpt>
<trkpt lat="46.2149391174316" lon="6.98247814178467"><ele></ele><time>2013-8-3T20:7:25Z</time></trkpt>
<trkpt lat="46.2150421142578" lon="6.98237562179565"><ele></ele><time>2013-8-3T20:7:28Z</time></trkpt>
<trkpt lat="46.215087890625" lon="6.98234272003174"><ele></ele><time>2013-8-3T20:7:31Z</time></trkpt>
<trkpt lat="46.2151107788086" lon="6.98233366012573"><ele></ele><time>2013-8-3T20:7:34Z</time></trkpt>
<trkpt lat="46.2151374816894" lon="6.9823145866394"><ele></ele><time>2013-8-3T20:7:37Z</time></trkpt>
<trkpt lat="46.215160369873" lon="6.98229789733887"><ele></ele><time>2013-8-3T20:7:40Z</time></trkpt>
<trkpt lat="46.2151832580566" lon="6.98228359222412"><ele></ele><time>2013-8-3T20:7:43Z</time></trkpt>
<trkpt lat="46.2152328491211" lon="6.98225545883179"><ele></ele><time>2013-8-3T20:7:46Z</time></trkpt>
<trkpt lat="46.2153854370117" lon="6.98217058181763"><ele></ele><time>2013-8-3T20:7:49Z</time></trkpt>
<trkpt lat="46.2154083251953" lon="6.98215532302856"><ele></ele><time>2013-8-3T20:7:52Z</time></trkpt>
<trkpt lat="46.2154388427734" lon="6.98214626312256"><ele></ele><time>2013-8-3T20:7:55Z</time></trkpt>
<trkpt lat="46.2154655456543" lon="6.98213195800781"><ele></ele><time>2013-8-3T20:7:58Z</time></trkpt>
<trkpt lat="46.2154884338379" lon="6.98212099075317"><ele></ele><time>2013-8-3T20:8:1Z</time></trkpt>
<trkpt lat="46.2155799865723" lon="6.98201990127564"><ele></ele><time>2013-8-3T20:8:4Z</time></trkpt>
<trkpt lat="46.215576171875" lon="6.98184537887573"><ele></ele><time>2013-8-3T20:8:7Z</time></trkpt>
<trkpt lat="46.2155227661133" lon="6.98178768157959"><ele></ele><time>2013-8-3T20:8:10Z</time></trkpt>
<trkpt lat="46.2154579162598" lon="6.98176193237305"><ele></ele><time>2013-8-3T20:8:13Z</time></trkpt>
<trkpt lat="46.2153854370117" lon="6.98174715042114"><ele></ele><time>2013-8-3T20:8:16Z</time></trkpt>
<trkpt lat="46.215217590332" lon="6.98174381256104"><ele></ele><time>2013-8-3T20:8:19Z</time></trkpt>
<trkpt lat="46.2151832580566" lon="6.9817419052124"><ele></ele><time>2013-8-3T20:8:22Z</time></trkpt>
<trkpt lat="46.2151489257812" lon="6.98174142837524"><ele></ele><time>2013-8-3T20:8:25Z</time></trkpt>
<trkpt lat="46.2151145935059" lon="6.98174524307251"><ele></ele><time>2013-8-3T20:8:28Z</time></trkpt>
<trkpt lat="46.2150840759277" lon="6.98175001144409"><ele></ele><time>2013-8-3T20:8:31Z</time></trkpt>
<trkpt lat="46.2149848937988" lon="6.98173904418945"><ele></ele><time>2013-8-3T20:8:34Z</time></trkpt>
<trkpt lat="46.214729309082" lon="6.98173904418945"><ele></ele><time>2013-8-3T20:8:37Z</time></trkpt>
<trkpt lat="46.2146644592285" lon="6.98173761367798"><ele></ele><time>2013-8-3T20:8:40Z</time></trkpt>
<trkpt lat="46.2146339416504" lon="6.98173809051514"><ele></ele><time>2013-8-3T20:8:43Z</time></trkpt>
<trkpt lat="46.2146034240723" lon="6.98173713684082"><ele></ele><time>2013-8-3T20:8:46Z</time></trkpt>
<trkpt lat="46.2145729064941" lon="6.98173332214356"><ele></ele><time>2013-8-3T20:8:49Z</time></trkpt>
<trkpt lat="46.214542388916" lon="6.98173475265503"><ele></ele><time>2013-8-3T20:8:52Z</time></trkpt>
<trkpt lat="46.2144165039062" lon="6.9817328453064"><ele></ele><time>2013-8-3T20:8:55Z</time></trkpt>
<trkpt lat="46.2142677307129" lon="6.98171615600586"><ele></ele><time>2013-8-3T20:8:58Z</time></trkpt>
<trkpt lat="46.214241027832" lon="6.98171329498291"><ele></ele><time>2013-8-3T20:9:1Z</time></trkpt>
<trkpt lat="46.2142066955566" lon="6.98170852661133"><ele></ele><time>2013-8-3T20:9:4Z</time></trkpt>
<trkpt lat="46.2141799926758" lon="6.98169898986816"><ele></ele><time>2013-8-3T20:9:7Z</time></trkpt>
<trkpt lat="46.2141532897949" lon="6.98168325424194"><ele></ele><time>2013-8-3T20:9:10Z</time></trkpt>
<trkpt lat="46.2141227722168" lon="6.98166275024414"><ele></ele><time>2013-8-3T20:9:13Z</time></trkpt>
<trkpt lat="46.2138786315918" lon="6.98151159286499"><ele></ele><time>2013-8-3T20:9:16Z</time></trkpt>
<trkpt lat="46.2138481140137" lon="6.98149156570435"><ele></ele><time>2013-8-3T20:9:19Z</time></trkpt>
<trkpt lat="46.2138175964356" lon="6.98147630691528"><ele></ele><time>2013-8-3T20:9:22Z</time></trkpt>
<trkpt lat="46.2137832641602" lon="6.98145771026611"><ele></ele><time>2013-8-3T20:9:25Z</time></trkpt>
<trkpt lat="46.213752746582" lon="6.98144912719726"><ele></ele><time>2013-8-3T20:9:28Z</time></trkpt>
<trkpt lat="46.2137184143066" lon="6.9814395904541"><ele></ele><time>2013-8-3T20:9:31Z</time></trkpt>
<trkpt lat="46.2136535644531" lon="6.98145866394043"><ele></ele><time>2013-8-3T20:9:34Z</time></trkpt>
<trkpt lat="46.213451385498" lon="6.98159313201904"><ele></ele><time>2013-8-3T20:9:37Z</time></trkpt>
<trkpt lat="46.2134246826172" lon="6.98160743713379"><ele></ele><time>2013-8-3T20:9:40Z</time></trkpt>
<trkpt lat="46.2133941650391" lon="6.98161745071411"><ele></ele><time>2013-8-3T20:9:43Z</time></trkpt>
<trkpt lat="46.2133712768555" lon="6.9816370010376"><ele></ele><time>2013-8-3T20:9:46Z</time></trkpt>
<trkpt lat="46.2133445739746" lon="6.98165416717529"><ele></ele><time>2013-8-3T20:9:49Z</time></trkpt>
<trkpt lat="46.2133178710938" lon="6.98166799545288"><ele></ele><time>2013-8-3T20:9:52Z</time></trkpt>
<trkpt lat="46.2131271362305" lon="6.98171424865723"><ele></ele><time>2013-8-3T20:9:55Z</time></trkpt>
<trkpt lat="46.2130966186523" lon="6.98172903060913"><ele></ele><time>2013-8-3T20:9:58Z</time></trkpt>
<trkpt lat="46.2130661010742" lon="6.98174142837524"><ele></ele><time>2013-8-3T20:10:1Z</time></trkpt>
<trkpt lat="46.2130432128906" lon="6.98174524307251"><ele></ele><time>2013-8-3T20:10:4Z</time></trkpt>
<trkpt lat="46.2130126953125" lon="6.98175811767578"><ele></ele><time>2013-8-3T20:10:7Z</time></trkpt>
<trkpt lat="46.2129707336426" lon="6.98177433013916"><ele></ele><time>2013-8-3T20:10:10Z</time></trkpt>
<trkpt lat="46.212947845459" lon="6.98178291320801"><ele></ele><time>2013-8-3T20:10:13Z</time></trkpt>
<trkpt lat="46.2129211425781" lon="6.9817852973938"><ele></ele><time>2013-8-3T20:10:16Z</time></trkpt>
<trkpt lat="46.2128982543945" lon="6.98179531097412"><ele></ele><time>2013-8-3T20:10:19Z</time></trkpt>
<trkpt lat="46.2128677368164" lon="6.98180627822876"><ele></ele><time>2013-8-3T20:10:22Z</time></trkpt>
<trkpt lat="46.2128143310547" lon="6.98183059692383"><ele></ele><time>2013-8-3T20:10:25Z</time></trkpt>
<trkpt lat="46.2127151489258" lon="6.98185539245606"><ele></ele><time>2013-8-3T20:10:28Z</time></trkpt>
<trkpt lat="46.2126884460449" lon="6.98186779022217"><ele></ele><time>2013-8-3T20:10:31Z</time></trkpt>
<trkpt lat="46.2126693725586" lon="6.98188018798828"><ele></ele><time>2013-8-3T20:10:34Z</time></trkpt>
<trkpt lat="46.212646484375" lon="6.98189544677734"><ele></ele><time>2013-8-3T20:10:37Z</time></trkpt>
<trkpt lat="46.2126235961914" lon="6.9819130897522"><ele></ele><time>2013-8-3T20:10:40Z</time></trkpt>
<trkpt lat="46.212532043457" lon="6.98200702667236"><ele></ele><time>2013-8-3T20:10:43Z</time></trkpt>
<trkpt lat="46.2125091552734" lon="6.98203897476196"><ele></ele><time>2013-8-3T20:10:46Z</time></trkpt>
<trkpt lat="46.2124938964844" lon="6.98206853866577"><ele></ele><time>2013-8-3T20:10:49Z</time></trkpt>
<trkpt lat="46.2124824523926" lon="6.98210000991821"><ele></ele><time>2013-8-3T20:10:52Z</time></trkpt>
<trkpt lat="46.2124671936035" lon="6.98213338851929"><ele></ele><time>2013-8-3T20:10:55Z</time></trkpt>
<trkpt lat="46.2124366760254" lon="6.98222875595093"><ele></ele><time>2013-8-3T20:10:58Z</time></trkpt>
<trkpt lat="46.2124252319336" lon="6.98226547241211"><ele></ele><time>2013-8-3T20:11:1Z</time></trkpt>
<trkpt lat="46.2124137878418" lon="6.98230075836182"><ele></ele><time>2013-8-3T20:11:4Z</time></trkpt>
<trkpt lat="46.2124061584473" lon="6.98233795166016"><ele></ele><time>2013-8-3T20:11:7Z</time></trkpt>
<trkpt lat="46.212329864502" lon="6.98251152038574"><ele></ele><time>2013-8-3T20:11:10Z</time></trkpt>
<trkpt lat="46.2122230529785" lon="6.98256540298462"><ele></ele><time>2013-8-3T20:11:13Z</time></trkpt>
<trkpt lat="46.2121124267578" lon="6.98264455795288"><ele></ele><time>2013-8-3T20:11:16Z</time></trkpt>
<trkpt lat="46.212085723877" lon="6.98265695571899"><ele></ele><time>2013-8-3T20:11:19Z</time></trkpt>
<trkpt lat="46.2120552062988" lon="6.98267269134522"><ele></ele><time>2013-8-3T20:11:22Z</time></trkpt>
<trkpt lat="46.212028503418" lon="6.98268985748291"><ele></ele><time>2013-8-3T20:11:25Z</time></trkpt>
<trkpt lat="46.2120056152344" lon="6.98270750045776"><ele></ele><time>2013-8-3T20:11:28Z</time></trkpt>
<trkpt lat="46.2118530273438" lon="6.98276376724243"><ele></ele><time>2013-8-3T20:11:31Z</time></trkpt>
<trkpt lat="46.2118263244629" lon="6.98276662826538"><ele></ele><time>2013-8-3T20:11:34Z</time></trkpt>
<trkpt lat="46.2118034362793" lon="6.98276901245117"><ele></ele><time>2013-8-3T20:11:37Z</time></trkpt>
<trkpt lat="46.2117767333984" lon="6.98277568817139"><ele></ele><time>2013-8-3T20:11:40Z</time></trkpt>
<trkpt lat="46.2116775512695" lon="6.98279428482056"><ele></ele><time>2013-8-3T20:11:43Z</time></trkpt>
<trkpt lat="46.2116241455078" lon="6.98280191421509"><ele></ele><time>2013-8-3T20:11:46Z</time></trkpt>
<trkpt lat="46.211597442627" lon="6.98280620574951"><ele></ele><time>2013-8-3T20:11:49Z</time></trkpt>
<trkpt lat="46.2115669250488" lon="6.98280906677246"><ele></ele><time>2013-8-3T20:11:52Z</time></trkpt>
<trkpt lat="46.211540222168" lon="6.98281764984131"><ele></ele><time>2013-8-3T20:11:55Z</time></trkpt>
<trkpt lat="46.2115135192871" lon="6.98281812667847"><ele></ele><time>2013-8-3T20:11:58Z</time></trkpt>
<trkpt lat="46.2114524841309" lon="6.98282957077026"><ele></ele><time>2013-8-3T20:12:1Z</time></trkpt>
<trkpt lat="46.2112846374512" lon="6.98287773132324"><ele></ele><time>2013-8-3T20:12:4Z</time></trkpt>
<trkpt lat="46.2112579345703" lon="6.98289108276367"><ele></ele><time>2013-8-3T20:12:7Z</time></trkpt>
<trkpt lat="46.2112274169922" lon="6.98290061950684"><ele></ele><time>2013-8-3T20:12:10Z</time></trkpt>
<trkpt lat="46.2112007141113" lon="6.98291635513306"><ele></ele><time>2013-8-3T20:12:13Z</time></trkpt>
<trkpt lat="46.2111740112305" lon="6.98293876647949"><ele></ele><time>2013-8-3T20:12:16Z</time></trkpt>
<trkpt lat="46.2110824584961" lon="6.98300361633301"><ele></ele><time>2013-8-3T20:12:19Z</time></trkpt>
<trkpt lat="46.2109489440918" lon="6.98300361633301"><ele></ele><time>2013-8-3T20:12:22Z</time></trkpt>
<trkpt lat="46.2109222412109" lon="6.9829044342041"><ele></ele><time>2013-8-3T20:12:25Z</time></trkpt>
<trkpt lat="46.2109298706055" lon="6.98287010192871"><ele></ele><time>2013-8-3T20:12:28Z</time></trkpt>
<trkpt lat="46.2109298706055" lon="6.9828372001648"><ele></ele><time>2013-8-3T20:12:31Z</time></trkpt>
<trkpt lat="46.2109375" lon="6.98280334472656"><ele></ele><time>2013-8-3T20:12:34Z</time></trkpt>
<trkpt lat="46.2109413146973" lon="6.98277425765991"><ele></ele><time>2013-8-3T20:12:37Z</time></trkpt>
<trkpt lat="46.2109565734863" lon="6.9827070236206"><ele></ele><time>2013-8-3T20:12:40Z</time></trkpt>
<trkpt lat="46.2109603881836" lon="6.98266792297363"><ele></ele><time>2013-8-3T20:12:43Z</time></trkpt>
<trkpt lat="46.2109718322754" lon="6.98263120651245"><ele></ele><time>2013-8-3T20:12:46Z</time></trkpt>
<trkpt lat="46.2109756469727" lon="6.98259401321411"><ele></ele><time>2013-8-3T20:12:49Z</time></trkpt>
<trkpt lat="46.2109832763672" lon="6.98255634307861"><ele></ele><time>2013-8-3T20:12:52Z</time></trkpt>
<trkpt lat="46.2109985351562" lon="6.98252010345459"><ele></ele><time>2013-8-3T20:12:55Z</time></trkpt>
<trkpt lat="46.2110404968262" lon="6.98242282867432"><ele></ele><time>2013-8-3T20:12:58Z</time></trkpt>
<trkpt lat="46.2110595703125" lon="6.98238754272461"><ele></ele><time>2013-8-3T20:13:1Z</time></trkpt>
<trkpt lat="46.2110748291016" lon="6.9823489189148"><ele></ele><time>2013-8-3T20:13:4Z</time></trkpt>
<trkpt lat="46.2110824584961" lon="6.98230695724487"><ele></ele><time>2013-8-3T20:13:7Z</time></trkpt>
<trkpt lat="46.2111129760742" lon="6.98219299316406"><ele></ele><time>2013-8-3T20:13:10Z</time></trkpt>
<trkpt lat="46.211124420166" lon="6.98216152191162"><ele></ele><time>2013-8-3T20:13:13Z</time></trkpt>
<trkpt lat="46.2111320495606" lon="6.98212957382202"><ele></ele><time>2013-8-3T20:13:16Z</time></trkpt>
<trkpt lat="46.2111434936523" lon="6.98209142684936"><ele></ele><time>2013-8-3T20:13:19Z</time></trkpt>
<trkpt lat="46.2111511230469" lon="6.98205804824829"><ele></ele><time>2013-8-3T20:13:22Z</time></trkpt>
<trkpt lat="46.2111587524414" lon="6.98202753067017"><ele></ele><time>2013-8-3T20:13:25Z</time></trkpt>
<trkpt lat="46.2112007141113" lon="6.98189449310303"><ele></ele><time>2013-8-3T20:13:28Z</time></trkpt>
<trkpt lat="46.2112121582031" lon="6.98185634613037"><ele></ele><time>2013-8-3T20:13:31Z</time></trkpt>
<trkpt lat="46.2112274169922" lon="6.98182058334351"><ele></ele><time>2013-8-3T20:13:34Z</time></trkpt>
<trkpt lat="46.2112426757812" lon="6.98178052902222"><ele></ele><time>2013-8-3T20:13:37Z</time></trkpt>
<trkpt lat="46.2112693786621" lon="6.98173904418945"><ele></ele><time>2013-8-3T20:13:40Z</time></trkpt>
<trkpt lat="46.2112808227539" lon="6.98169612884522"><ele></ele><time>2013-8-3T20:13:43Z</time></trkpt>
<trkpt lat="46.211296081543" lon="6.9816632270813"><ele></ele><time>2013-8-3T20:13:46Z</time></trkpt>
<trkpt lat="46.2113304138184" lon="6.98160791397095"><ele></ele><time>2013-8-3T20:13:49Z</time></trkpt>
<trkpt lat="46.2113456726074" lon="6.98157453536987"><ele></ele><time>2013-8-3T20:13:52Z</time></trkpt>
<trkpt lat="46.2113647460938" lon="6.98154258728027"><ele></ele><time>2013-8-3T20:13:55Z</time></trkpt>
<trkpt lat="46.2113800048828" lon="6.98151159286499"><ele></ele><time>2013-8-3T20:13:58Z</time></trkpt>
<trkpt lat="46.2115097045898" lon="6.98131084442139"><ele></ele><time>2013-8-3T20:14:1Z</time></trkpt>
<trkpt lat="46.2115287780762" lon="6.98128080368042"><ele></ele><time>2013-8-3T20:14:4Z</time></trkpt>
<trkpt lat="46.2115478515625" lon="6.9812502861023"><ele></ele><time>2013-8-3T20:14:7Z</time></trkpt>
<trkpt lat="46.2115669250488" lon="6.98122119903564"><ele></ele><time>2013-8-3T20:14:10Z</time></trkpt>
<trkpt lat="46.2115859985352" lon="6.98119020462036"><ele></ele><time>2013-8-3T20:14:13Z</time></trkpt>
<trkpt lat="46.2116355895996" lon="6.98108005523682"><ele></ele><time>2013-8-3T20:14:16Z</time></trkpt>
<trkpt lat="46.2117500305176" lon="6.98090839385986"><ele></ele><time>2013-8-3T20:14:19Z</time></trkpt>
<trkpt lat="46.2118186950684" lon="6.98079586029053"><ele></ele><time>2013-8-3T20:14:22Z</time></trkpt>
<trkpt lat="46.2118682861328" lon="6.98072099685669"><ele></ele><time>2013-8-3T20:14:25Z</time></trkpt>
<trkpt lat="46.2118949890137" lon="6.98067951202393"><ele></ele><time>2013-8-3T20:14:28Z</time></trkpt>
<trkpt lat="46.2119216918945" lon="6.98063373565674"><ele></ele><time>2013-8-3T20:14:31Z</time></trkpt>
<trkpt lat="46.2119560241699" lon="6.9805965423584"><ele></ele><time>2013-8-3T20:14:34Z</time></trkpt>
<trkpt lat="46.2120170593262" lon="6.98051691055298"><ele></ele><time>2013-8-3T20:14:37Z</time></trkpt>
<trkpt lat="46.2122116088867" lon="6.98023366928101"><ele></ele><time>2013-8-3T20:14:40Z</time></trkpt>
<trkpt lat="46.2123374938965" lon="6.98005676269531"><ele></ele><time>2013-8-3T20:14:43Z</time></trkpt>
<trkpt lat="46.2123680114746" lon="6.9800238609314"><ele></ele><time>2013-8-3T20:14:46Z</time></trkpt>
<trkpt lat="46.2123908996582" lon="6.97998809814453"><ele></ele><time>2013-8-3T20:14:49Z</time></trkpt>
<trkpt lat="46.2124176025391" lon="6.97995471954346"><ele></ele><time>2013-8-3T20:14:52Z</time></trkpt>
<trkpt lat="46.2124404907227" lon="6.97991561889648"><ele></ele><time>2013-8-3T20:14:55Z</time></trkpt>
<trkpt lat="46.2125396728516" lon="6.9797887802124"><ele></ele><time>2013-8-3T20:14:58Z</time></trkpt>
<trkpt lat="46.2126655578613" lon="6.97962045669556"><ele></ele><time>2013-8-3T20:15:1Z</time></trkpt>
<trkpt lat="46.2126884460449" lon="6.97959136962891"><ele></ele><time>2013-8-3T20:15:4Z</time></trkpt>
<trkpt lat="46.2127113342285" lon="6.97955942153931"><ele></ele><time>2013-8-3T20:15:7Z</time></trkpt>
<trkpt lat="46.2127265930176" lon="6.97952890396118"><ele></ele><time>2013-8-3T20:15:10Z</time></trkpt>
<trkpt lat="46.2127494812012" lon="6.97949886322022"><ele></ele><time>2013-8-3T20:15:13Z</time></trkpt>
<trkpt lat="46.2127876281738" lon="6.97945070266724"><ele></ele><time>2013-8-3T20:15:16Z</time></trkpt>
<trkpt lat="46.2128028869629" lon="6.97942686080933"><ele></ele><time>2013-8-3T20:15:19Z</time></trkpt>
<trkpt lat="46.2128219604492" lon="6.97940063476562"><ele></ele><time>2013-8-3T20:15:22Z</time></trkpt>
<trkpt lat="46.2128410339356" lon="6.97937154769898"><ele></ele><time>2013-8-3T20:15:25Z</time></trkpt>
<trkpt lat="46.2128601074219" lon="6.97934627532959"><ele></ele><time>2013-8-3T20:15:28Z</time></trkpt>
<trkpt lat="46.212963104248" lon="6.97918701171875"><ele></ele><time>2013-8-3T20:15:31Z</time></trkpt>
<trkpt lat="46.2129745483398" lon="6.97915983200073"><ele></ele><time>2013-8-3T20:15:34Z</time></trkpt>
<trkpt lat="46.2129898071289" lon="6.97913360595703"><ele></ele><time>2013-8-3T20:15:37Z</time></trkpt>
<trkpt lat="46.213005065918" lon="6.97910451889038"><ele></ele><time>2013-8-3T20:15:40Z</time></trkpt>
<trkpt lat="46.2130851745606" lon="6.97898483276367"><ele></ele><time>2013-8-3T20:15:43Z</time></trkpt>
<trkpt lat="46.2131042480469" lon="6.97895765304565"><ele></ele><time>2013-8-3T20:15:46Z</time></trkpt>
<trkpt lat="46.2131195068359" lon="6.9789309501648"><ele></ele><time>2013-8-3T20:15:49Z</time></trkpt>
<trkpt lat="46.213134765625" lon="6.97890996932983"><ele></ele><time>2013-8-3T20:15:52Z</time></trkpt>
<trkpt lat="46.2131538391113" lon="6.97889184951782"><ele></ele><time>2013-8-3T20:15:55Z</time></trkpt>
<trkpt lat="46.213191986084" lon="6.9788498878479"><ele></ele><time>2013-8-3T20:15:58Z</time></trkpt>
<trkpt lat="46.2132415771484" lon="6.97879600524902"><ele></ele><time>2013-8-3T20:16:1Z</time></trkpt>
<trkpt lat="46.2132530212402" lon="6.9787802696228"><ele></ele><time>2013-8-3T20:16:4Z</time></trkpt>
<trkpt lat="46.2132682800293" lon="6.97875642776489"><ele></ele><time>2013-8-3T20:16:7Z</time></trkpt>
<trkpt lat="46.2132873535156" lon="6.97873067855835"><ele></ele><time>2013-8-3T20:16:10Z</time></trkpt>
<trkpt lat="46.213306427002" lon="6.97870445251465"><ele></ele><time>2013-8-3T20:16:13Z</time></trkpt>
<trkpt lat="46.2133903503418" lon="6.97862911224365"><ele></ele><time>2013-8-3T20:16:16Z</time></trkpt>
<trkpt lat="46.2134208679199" lon="6.97857475280762"><ele></ele><time>2013-8-3T20:16:19Z</time></trkpt>
<trkpt lat="46.213436126709" lon="6.97854375839233"><ele></ele><time>2013-8-3T20:16:22Z</time></trkpt>
<trkpt lat="46.2134552001953" lon="6.97851610183716"><ele></ele><time>2013-8-3T20:16:25Z</time></trkpt>
<trkpt lat="46.2134742736816" lon="6.9784836769104"><ele></ele><time>2013-8-3T20:16:28Z</time></trkpt>
<trkpt lat="46.2134857177734" lon="6.97845411300659"><ele></ele><time>2013-8-3T20:16:31Z</time></trkpt>
<trkpt lat="46.2135162353516" lon="6.97827816009522"><ele></ele><time>2013-8-3T20:16:34Z</time></trkpt>
<trkpt lat="46.2135238647461" lon="6.97824668884277"><ele></ele><time>2013-8-3T20:16:37Z</time></trkpt>
<trkpt lat="46.2135238647461" lon="6.97821521759033"><ele></ele><time>2013-8-3T20:16:40Z</time></trkpt>
<trkpt lat="46.2135238647461" lon="6.97818470001221"><ele></ele><time>2013-8-3T20:16:43Z</time></trkpt>
<trkpt lat="46.2135314941406" lon="6.97816324234009"><ele></ele><time>2013-8-3T20:16:46Z</time></trkpt>
<trkpt lat="46.2135276794434" lon="6.97812843322754"><ele></ele><time>2013-8-3T20:16:49Z</time></trkpt>
<trkpt lat="46.213508605957" lon="6.97809457778931"><ele></ele><time>2013-8-3T20:16:52Z</time></trkpt>
<trkpt lat="46.2134742736816" lon="6.97796058654785"><ele></ele><time>2013-8-3T20:16:55Z</time></trkpt>
<trkpt lat="46.2134590148926" lon="6.97793245315552"><ele></ele><time>2013-8-3T20:16:58Z</time></trkpt>
<trkpt lat="46.2134552001953" lon="6.9778995513916"><ele></ele><time>2013-8-3T20:17:1Z</time></trkpt>
<trkpt lat="46.2134437561035" lon="6.97786951065064"><ele></ele><time>2013-8-3T20:17:4Z</time></trkpt>
<trkpt lat="46.213451385498" lon="6.97785043716431"><ele></ele><time>2013-8-3T20:17:7Z</time></trkpt>
<trkpt lat="46.213451385498" lon="6.97779273986816"><ele></ele><time>2013-8-3T20:17:10Z</time></trkpt>
<trkpt lat="46.2134628295898" lon="6.97778129577637"><ele></ele><time>2013-8-3T20:17:13Z</time></trkpt>
<trkpt lat="46.2134666442871" lon="6.97776031494141"><ele></ele><time>2013-8-3T20:17:16Z</time></trkpt>
<trkpt lat="46.2134704589844" lon="6.97774887084961"><ele></ele><time>2013-8-3T20:17:19Z</time></trkpt>
<trkpt lat="46.2134780883789" lon="6.97775173187256"><ele></ele><time>2013-8-3T20:17:22Z</time></trkpt>
<trkpt lat="46.213493347168" lon="6.97774505615234"><ele></ele><time>2013-8-3T20:17:25Z</time></trkpt>
<trkpt lat="46.2135238647461" lon="6.97773122787476"><ele></ele><time>2013-8-3T20:17:28Z</time></trkpt>
<trkpt lat="46.2135467529297" lon="6.97771263122559"><ele></ele><time>2013-8-3T20:17:31Z</time></trkpt>
<trkpt lat="46.2135581970215" lon="6.97770547866821"><ele></ele><time>2013-8-3T20:17:34Z</time></trkpt>
<trkpt lat="46.2135734558106" lon="6.97770261764526"><ele></ele><time>2013-8-3T20:17:37Z</time></trkpt>
<trkpt lat="46.2135848999023" lon="6.97769117355347"><ele></ele><time>2013-8-3T20:17:40Z</time></trkpt>
<trkpt lat="46.2135963439941" lon="6.97768926620483"><ele></ele><time>2013-8-3T20:17:43Z</time></trkpt>
<trkpt lat="46.2136192321777" lon="6.97768688201904"><ele></ele><time>2013-8-3T20:17:46Z</time></trkpt>
<trkpt lat="46.2136688232422" lon="6.97765207290649"><ele></ele><time>2013-8-3T20:17:49Z</time></trkpt>
<trkpt lat="46.2136993408203" lon="6.97762775421143"><ele></ele><time>2013-8-3T20:17:52Z</time></trkpt>
<trkpt lat="46.2137184143066" lon="6.97760200500488"><ele></ele><time>2013-8-3T20:17:55Z</time></trkpt>
<trkpt lat="46.2137489318848" lon="6.97757625579834"><ele></ele><time>2013-8-3T20:17:58Z</time></trkpt>
<trkpt lat="46.2137718200684" lon="6.9775562286377"><ele></ele><time>2013-8-3T20:18:1Z</time></trkpt>
<trkpt lat="46.2138710021973" lon="6.97749757766724"><ele></ele><time>2013-8-3T20:18:4Z</time></trkpt>
<trkpt lat="46.2138862609863" lon="6.97748565673828"><ele></ele><time>2013-8-3T20:18:7Z</time></trkpt>
<trkpt lat="46.2138938903809" lon="6.97747278213501"><ele></ele><time>2013-8-3T20:18:10Z</time></trkpt>
<trkpt lat="46.2139091491699" lon="6.97746658325195"><ele></ele><time>2013-8-3T20:18:13Z</time></trkpt>
<trkpt lat="46.2139167785644" lon="6.97746753692627"><ele></ele><time>2013-8-3T20:18:16Z</time></trkpt>
<trkpt lat="46.2139282226562" lon="6.97744989395142"><ele></ele><time>2013-8-3T20:18:19Z</time></trkpt>
<trkpt lat="46.2139930725098" lon="6.97744035720825"><ele></ele><time>2013-8-3T20:18:22Z</time></trkpt>
<trkpt lat="46.2140464782715" lon="6.97740793228149"><ele></ele><time>2013-8-3T20:18:25Z</time></trkpt>
<trkpt lat="46.2140617370606" lon="6.97740030288696"><ele></ele><time>2013-8-3T20:18:28Z</time></trkpt>
<trkpt lat="46.2140769958496" lon="6.97739410400391"><ele></ele><time>2013-8-3T20:18:31Z</time></trkpt>
<trkpt lat="46.2140922546387" lon="6.97737979888916"><ele></ele><time>2013-8-3T20:18:34Z</time></trkpt>
<trkpt lat="46.2140998840332" lon="6.97738313674927"><ele></ele><time>2013-8-3T20:18:37Z</time></trkpt>
<trkpt lat="46.214241027832" lon="6.97729635238648"><ele></ele><time>2013-8-3T20:18:40Z</time></trkpt>
<trkpt lat="46.2143058776856" lon="6.9772744178772"><ele></ele><time>2013-8-3T20:18:43Z</time></trkpt>
<trkpt lat="46.2143249511719" lon="6.97726917266846"><ele></ele><time>2013-8-3T20:18:46Z</time></trkpt>
<trkpt lat="46.2143440246582" lon="6.9772629737854"><ele></ele><time>2013-8-3T20:18:49Z</time></trkpt>
<trkpt lat="46.2143707275391" lon="6.97725486755371"><ele></ele><time>2013-8-3T20:18:52Z</time></trkpt>
<trkpt lat="46.2144088745117" lon="6.97724866867065"><ele></ele><time>2013-8-3T20:18:55Z</time></trkpt>
<trkpt lat="46.2145652770996" lon="6.97713613510132"><ele></ele><time>2013-8-3T20:18:58Z</time></trkpt>
<trkpt lat="46.2145957946777" lon="6.97711753845215"><ele></ele><time>2013-8-3T20:19:1Z</time></trkpt>
<trkpt lat="46.2146148681641" lon="6.97709894180298"><ele></ele><time>2013-8-3T20:19:4Z</time></trkpt>
<trkpt lat="46.2146377563477" lon="6.97707271575928"><ele></ele><time>2013-8-3T20:19:7Z</time></trkpt>
<trkpt lat="46.2146606445312" lon="6.97704744338989"><ele></ele><time>2013-8-3T20:19:10Z</time></trkpt>
<trkpt lat="46.2148017883301" lon="6.97692394256592"><ele></ele><time>2013-8-3T20:19:13Z</time></trkpt>
<trkpt lat="46.2148323059082" lon="6.97689628601074"><ele></ele><time>2013-8-3T20:19:16Z</time></trkpt>
<trkpt lat="46.2148628234863" lon="6.9768705368042"><ele></ele><time>2013-8-3T20:19:19Z</time></trkpt>
<trkpt lat="46.2148895263672" lon="6.97684669494629"><ele></ele><time>2013-8-3T20:19:22Z</time></trkpt>
<trkpt lat="46.2149124145508" lon="6.97682428359985"><ele></ele><time>2013-8-3T20:19:25Z</time></trkpt>
<trkpt lat="46.2149696350098" lon="6.97679233551025"><ele></ele><time>2013-8-3T20:19:28Z</time></trkpt>
<trkpt lat="46.2150268554688" lon="6.97674369812012"><ele></ele><time>2013-8-3T20:19:31Z</time></trkpt>
<trkpt lat="46.2151107788086" lon="6.97664070129394"><ele></ele><time>2013-8-3T20:19:34Z</time></trkpt>
<trkpt lat="46.2151260375977" lon="6.97661447525024"><ele></ele><time>2013-8-3T20:19:37Z</time></trkpt>
<trkpt lat="46.2151374816894" lon="6.97659111022949"><ele></ele><time>2013-8-3T20:19:40Z</time></trkpt>
<trkpt lat="46.2151489257812" lon="6.97657632827759"><ele></ele><time>2013-8-3T20:19:43Z</time></trkpt>
<trkpt lat="46.2151679992676" lon="6.97655916213989"><ele></ele><time>2013-8-3T20:19:46Z</time></trkpt>
<trkpt lat="46.215202331543" lon="6.97653102874756"><ele></ele><time>2013-8-3T20:19:49Z</time></trkpt>
<trkpt lat="46.215217590332" lon="6.97650957107544"><ele></ele><time>2013-8-3T20:19:52Z</time></trkpt>
<trkpt lat="46.2152671813965" lon="6.97641849517822"><ele></ele><time>2013-8-3T20:19:55Z</time></trkpt>
<trkpt lat="46.2152824401856" lon="6.9763879776001"><ele></ele><time>2013-8-3T20:19:58Z</time></trkpt>
<trkpt lat="46.2153015136719" lon="6.9763593673706"><ele></ele><time>2013-8-3T20:20:1Z</time></trkpt>
<trkpt lat="46.2153167724609" lon="6.97633457183838"><ele></ele><time>2013-8-3T20:20:4Z</time></trkpt>
<trkpt lat="46.2153396606445" lon="6.97631311416626"><ele></ele><time>2013-8-3T20:20:7Z</time></trkpt>
<trkpt lat="46.2154006958008" lon="6.97626829147339"><ele></ele><time>2013-8-3T20:20:10Z</time></trkpt>
<trkpt lat="46.2154159545898" lon="6.97625732421875"><ele></ele><time>2013-8-3T20:20:13Z</time></trkpt>
<trkpt lat="46.2154388427734" lon="6.97624206542969"><ele></ele><time>2013-8-3T20:20:16Z</time></trkpt>
<trkpt lat="46.2154502868652" lon="6.97621965408325"><ele></ele><time>2013-8-3T20:20:19Z</time></trkpt>
<trkpt lat="46.2154693603516" lon="6.97620296478272"><ele></ele><time>2013-8-3T20:20:22Z</time></trkpt>
<trkpt lat="46.2154846191406" lon="6.97618246078491"><ele></ele><time>2013-8-3T20:20:25Z</time></trkpt>
<trkpt lat="46.2154998779297" lon="6.9761552810669"><ele></ele><time>2013-8-3T20:20:28Z</time></trkpt>
<trkpt lat="46.2155876159668" lon="6.97604322433472"><ele></ele><time>2013-8-3T20:20:31Z</time></trkpt>
<trkpt lat="46.2156028747559" lon="6.97603034973144"><ele></ele><time>2013-8-3T20:20:34Z</time></trkpt>
<trkpt lat="46.2156105041504" lon="6.97600507736206"><ele></ele><time>2013-8-3T20:20:37Z</time></trkpt>
<trkpt lat="46.2156219482422" lon="6.97599029541016"><ele></ele><time>2013-8-3T20:20:40Z</time></trkpt>
<trkpt lat="46.2156372070312" lon="6.97597932815552"><ele></ele><time>2013-8-3T20:20:43Z</time></trkpt>
<trkpt lat="46.215648651123" lon="6.97596502304077"><ele></ele><time>2013-8-3T20:20:46Z</time></trkpt>
<trkpt lat="46.2157974243164" lon="6.9757981300354"><ele></ele><time>2013-8-3T20:20:49Z</time></trkpt>
<trkpt lat="46.2158241271973" lon="6.97577953338623"><ele></ele><time>2013-8-3T20:20:52Z</time></trkpt>
<trkpt lat="46.2158508300781" lon="6.97575616836548"><ele></ele><time>2013-8-3T20:20:55Z</time></trkpt>
<trkpt lat="46.2159004211426" lon="6.97573232650757"><ele></ele><time>2013-8-3T20:20:58Z</time></trkpt>
<trkpt lat="46.2159309387207" lon="6.97571563720703"><ele></ele><time>2013-8-3T20:21:1Z</time></trkpt>
<trkpt lat="46.2160301208496" lon="6.97567462921143"><ele></ele><time>2013-8-3T20:21:4Z</time></trkpt>
<trkpt lat="46.2160606384277" lon="6.97566986083984"><ele></ele><time>2013-8-3T20:21:7Z</time></trkpt>
<trkpt lat="46.2160987854004" lon="6.97566032409668"><ele></ele><time>2013-8-3T20:21:10Z</time></trkpt>
<trkpt lat="46.2161331176758" lon="6.97564649581909"><ele></ele><time>2013-8-3T20:21:13Z</time></trkpt>
<trkpt lat="46.2161674499512" lon="6.97564172744751"><ele></ele><time>2013-8-3T20:21:16Z</time></trkpt>
<trkpt lat="46.216194152832" lon="6.97563743591309"><ele></ele><time>2013-8-3T20:21:19Z</time></trkpt>
<trkpt lat="46.2162246704102" lon="6.97563362121582"><ele></ele><time>2013-8-3T20:21:22Z</time></trkpt>
<trkpt lat="46.2163047790527" lon="6.97560405731201"><ele></ele><time>2013-8-3T20:21:25Z</time></trkpt>
<trkpt lat="46.2163543701172" lon="6.97558641433716"><ele></ele><time>2013-8-3T20:21:28Z</time></trkpt>
<trkpt lat="46.216381072998" lon="6.97557926177978"><ele></ele><time>2013-8-3T20:21:31Z</time></trkpt>
<trkpt lat="46.2164077758789" lon="6.97556447982788"><ele></ele><time>2013-8-3T20:21:34Z</time></trkpt>
<trkpt lat="46.2164344787598" lon="6.97555065155029"><ele></ele><time>2013-8-3T20:21:37Z</time></trkpt>
<trkpt lat="46.2164611816406" lon="6.97554206848144"><ele></ele><time>2013-8-3T20:21:40Z</time></trkpt>
<trkpt lat="46.2164840698242" lon="6.97552394866943"><ele></ele><time>2013-8-3T20:21:43Z</time></trkpt>
<trkpt lat="46.2165069580078" lon="6.9755072593689"><ele></ele><time>2013-8-3T20:21:46Z</time></trkpt>
<trkpt lat="46.2165832519531" lon="6.97540140151978"><ele></ele><time>2013-8-3T20:21:49Z</time></trkpt>
<trkpt lat="46.2165985107422" lon="6.9753737449646"><ele></ele><time>2013-8-3T20:21:52Z</time></trkpt>
<trkpt lat="46.216609954834" lon="6.97534227371216"><ele></ele><time>2013-8-3T20:21:55Z</time></trkpt>
<trkpt lat="46.2166328430176" lon="6.97531318664551"><ele></ele><time>2013-8-3T20:21:58Z</time></trkpt>
<trkpt lat="46.2166481018066" lon="6.97528839111328"><ele></ele><time>2013-8-3T20:22:1Z</time></trkpt>
<trkpt lat="46.2166748046875" lon="6.97526168823242"><ele></ele><time>2013-8-3T20:22:4Z</time></trkpt>
<trkpt lat="46.2167205810547" lon="6.9752197265625"><ele></ele><time>2013-8-3T20:22:7Z</time></trkpt>
<trkpt lat="46.2168655395508" lon="6.97506952285767"><ele></ele><time>2013-8-3T20:22:10Z</time></trkpt>
<trkpt lat="46.2168807983398" lon="6.97506237030029"><ele></ele><time>2013-8-3T20:22:13Z</time></trkpt>
<trkpt lat="46.2168884277344" lon="6.97505283355713"><ele></ele><time>2013-8-3T20:22:16Z</time></trkpt>
<trkpt lat="46.2168998718262" lon="6.97505140304565"><ele></ele><time>2013-8-3T20:22:19Z</time></trkpt>
<trkpt lat="46.216911315918" lon="6.9750452041626"><ele></ele><time>2013-8-3T20:22:22Z</time></trkpt>
<trkpt lat="46.216926574707" lon="6.97504997253418"><ele></ele><time>2013-8-3T20:22:25Z</time></trkpt>
<trkpt lat="46.2169952392578" lon="6.97507858276367"><ele></ele><time>2013-8-3T20:22:28Z</time></trkpt>
<trkpt lat="46.2170104980469" lon="6.97509098052978"><ele></ele><time>2013-8-3T20:22:31Z</time></trkpt>
<trkpt lat="46.2170372009277" lon="6.97510480880737"><ele></ele><time>2013-8-3T20:22:34Z</time></trkpt>
<trkpt lat="46.2170715332031" lon="6.97511529922485"><ele></ele><time>2013-8-3T20:22:37Z</time></trkpt>
<trkpt lat="46.217227935791" lon="6.97508811950684"><ele></ele><time>2013-8-3T20:22:40Z</time></trkpt>
<trkpt lat="46.2172584533691" lon="6.97508907318115"><ele></ele><time>2013-8-3T20:22:43Z</time></trkpt>
<trkpt lat="46.21728515625" lon="6.97509527206421"><ele></ele><time>2013-8-3T20:22:46Z</time></trkpt>
<trkpt lat="46.2173080444336" lon="6.97508811950684"><ele></ele><time>2013-8-3T20:22:49Z</time></trkpt>
<trkpt lat="46.2173194885254" lon="6.97507858276367"><ele></ele><time>2013-8-3T20:22:52Z</time></trkpt>
<trkpt lat="46.2173347473144" lon="6.97505950927734"><ele></ele><time>2013-8-3T20:22:55Z</time></trkpt>
<trkpt lat="46.2174263000488" lon="6.97502994537354"><ele></ele><time>2013-8-3T20:22:58Z</time></trkpt>
<trkpt lat="46.2174415588379" lon="6.97501707077026"><ele></ele><time>2013-8-3T20:23:1Z</time></trkpt>
<trkpt lat="46.217456817627" lon="6.97501087188721"><ele></ele><time>2013-8-3T20:23:4Z</time></trkpt>
<trkpt lat="46.217472076416" lon="6.97499847412109"><ele></ele><time>2013-8-3T20:23:7Z</time></trkpt>
<trkpt lat="46.2174949645996" lon="6.97499370574951"><ele></ele><time>2013-8-3T20:23:10Z</time></trkpt>
<trkpt lat="46.2175140380859" lon="6.97498655319214"><ele></ele><time>2013-8-3T20:23:13Z</time></trkpt>
<trkpt lat="46.2175369262695" lon="6.9749698638916"><ele></ele><time>2013-8-3T20:23:16Z</time></trkpt>
<trkpt lat="46.2175559997559" lon="6.97496557235718"><ele></ele><time>2013-8-3T20:23:19Z</time></trkpt>
<trkpt lat="46.2175674438477" lon="6.97495460510254"><ele></ele><time>2013-8-3T20:23:22Z</time></trkpt>
<trkpt lat="46.217586517334" lon="6.97495937347412"><ele></ele><time>2013-8-3T20:23:25Z</time></trkpt>
<trkpt lat="46.2176055908203" lon="6.97495079040527"><ele></ele><time>2013-8-3T20:23:28Z</time></trkpt>
<trkpt lat="46.217658996582" lon="6.97492933273315"><ele></ele><time>2013-8-3T20:23:31Z</time></trkpt>
<trkpt lat="46.2176856994629" lon="6.97492170333862"><ele></ele><time>2013-8-3T20:23:34Z</time></trkpt>
<trkpt lat="46.2177124023438" lon="6.97490739822388"><ele></ele><time>2013-8-3T20:23:37Z</time></trkpt>
<trkpt lat="46.2177238464356" lon="6.97490310668945"><ele></ele><time>2013-8-3T20:23:40Z</time></trkpt>
<trkpt lat="46.2177238464356" lon="6.97489213943482"><ele></ele><time>2013-8-3T20:23:43Z</time></trkpt>
<trkpt lat="46.2177238464356" lon="6.97489213943482"><ele></ele><time>2013-8-3T20:23:46Z</time></trkpt>
<trkpt lat="46.2178153991699" lon="6.97487449645996"><ele></ele><time>2013-8-3T20:23:49Z</time></trkpt>
<trkpt lat="46.217845916748" lon="6.97485971450806"><ele></ele><time>2013-8-3T20:23:52Z</time></trkpt>
<trkpt lat="46.2178726196289" lon="6.97485303878784"><ele></ele><time>2013-8-3T20:23:55Z</time></trkpt>
<trkpt lat="46.2178916931152" lon="6.97482872009277"><ele></ele><time>2013-8-3T20:23:58Z</time></trkpt>
<trkpt lat="46.2179183959961" lon="6.97481489181518"><ele></ele><time>2013-8-3T20:24:1Z</time></trkpt>
<trkpt lat="46.2179412841797" lon="6.97480869293213"><ele></ele><time>2013-8-3T20:24:4Z</time></trkpt>
<trkpt lat="46.2180633544922" lon="6.97472953796387"><ele></ele><time>2013-8-3T20:24:7Z</time></trkpt>
<trkpt lat="46.2180938720703" lon="6.97472476959228"><ele></ele><time>2013-8-3T20:24:10Z</time></trkpt>
<trkpt lat="46.2181434631348" lon="6.97472620010376"><ele></ele><time>2013-8-3T20:24:13Z</time></trkpt>
<trkpt lat="46.2181549072266" lon="6.97472858428955"><ele></ele><time>2013-8-3T20:24:16Z</time></trkpt>
<trkpt lat="46.2181663513184" lon="6.97473382949829"><ele></ele><time>2013-8-3T20:24:19Z</time></trkpt>
<trkpt lat="46.2181816101074" lon="6.97474145889282"><ele></ele><time>2013-8-3T20:24:22Z</time></trkpt>
<trkpt lat="46.2181930541992" lon="6.97474431991577"><ele></ele><time>2013-8-3T20:24:25Z</time></trkpt>
<trkpt lat="46.2182121276856" lon="6.97473478317261"><ele></ele><time>2013-8-3T20:24:28Z</time></trkpt>
<trkpt lat="46.2183647155762" lon="6.97465801239014"><ele></ele><time>2013-8-3T20:24:31Z</time></trkpt>
<trkpt lat="46.2183990478516" lon="6.97463321685791"><ele></ele><time>2013-8-3T20:24:34Z</time></trkpt>
<trkpt lat="46.2184295654297" lon="6.97461128234863"><ele></ele><time>2013-8-3T20:24:37Z</time></trkpt>
<trkpt lat="46.2184677124023" lon="6.9745945930481"><ele></ele><time>2013-8-3T20:24:40Z</time></trkpt>
<trkpt lat="46.218505859375" lon="6.97457408905029"><ele></ele><time>2013-8-3T20:24:43Z</time></trkpt>
<trkpt lat="46.2185325622559" lon="6.97456789016724"><ele></ele><time>2013-8-3T20:24:46Z</time></trkpt>
<trkpt lat="46.2185821533203" lon="6.97455644607544"><ele></ele><time>2013-8-3T20:24:49Z</time></trkpt>
<trkpt lat="46.2186546325684" lon="6.97454881668091"><ele></ele><time>2013-8-3T20:24:52Z</time></trkpt>
<trkpt lat="46.2186737060547" lon="6.97453927993774"><ele></ele><time>2013-8-3T20:24:55Z</time></trkpt>
<trkpt lat="46.218692779541" lon="6.97454833984375"><ele></ele><time>2013-8-3T20:24:58Z</time></trkpt>
<trkpt lat="46.2187080383301" lon="6.97455072402954"><ele></ele><time>2013-8-3T20:25:1Z</time></trkpt>
<trkpt lat="46.2187919616699" lon="6.97456216812134"><ele></ele><time>2013-8-3T20:25:4Z</time></trkpt>
<trkpt lat="46.218807220459" lon="6.97455596923828"><ele></ele><time>2013-8-3T20:25:7Z</time></trkpt>
<trkpt lat="46.2188339233398" lon="6.97456216812134"><ele></ele><time>2013-8-3T20:25:10Z</time></trkpt>
<trkpt lat="46.2188491821289" lon="6.97456455230713"><ele></ele><time>2013-8-3T20:25:13Z</time></trkpt>
<trkpt lat="46.218864440918" lon="6.97456502914429"><ele></ele><time>2013-8-3T20:25:16Z</time></trkpt>
<trkpt lat="46.2189331054688" lon="6.97457838058472"><ele></ele><time>2013-8-3T20:25:19Z</time></trkpt>
<trkpt lat="46.2190093994141" lon="6.97454977035522"><ele></ele><time>2013-8-3T20:25:22Z</time></trkpt>
<trkpt lat="46.2190399169922" lon="6.97454690933228"><ele></ele><time>2013-8-3T20:25:25Z</time></trkpt>
<trkpt lat="46.2190551757812" lon="6.97454929351807"><ele></ele><time>2013-8-3T20:25:28Z</time></trkpt>
<trkpt lat="46.219066619873" lon="6.97455644607544"><ele></ele><time>2013-8-3T20:25:31Z</time></trkpt>
<trkpt lat="46.2190818786621" lon="6.97456121444702"><ele></ele><time>2013-8-3T20:25:34Z</time></trkpt>
<trkpt lat="46.219108581543" lon="6.97454738616943"><ele></ele><time>2013-8-3T20:25:37Z</time></trkpt>
<trkpt lat="46.2191772460938" lon="6.97449445724487"><ele></ele><time>2013-8-3T20:25:40Z</time></trkpt>
<trkpt lat="46.2192115783691" lon="6.9744610786438"><ele></ele><time>2013-8-3T20:25:43Z</time></trkpt>
<trkpt lat="46.2192268371582" lon="6.97443914413452"><ele></ele><time>2013-8-3T20:25:46Z</time></trkpt>
<trkpt lat="46.2192459106445" lon="6.9744348526001"><ele></ele><time>2013-8-3T20:25:49Z</time></trkpt>
<trkpt lat="46.2192726135254" lon="6.97442197799683"><ele></ele><time>2013-8-3T20:25:52Z</time></trkpt>
<trkpt lat="46.2192993164062" lon="6.97440958023071"><ele></ele><time>2013-8-3T20:25:55Z</time></trkpt>
<trkpt lat="46.2194290161133" lon="6.97430801391602"><ele></ele><time>2013-8-3T20:25:58Z</time></trkpt>
<trkpt lat="46.2194442749023" lon="6.97429275512695"><ele></ele><time>2013-8-3T20:26:1Z</time></trkpt>
<trkpt lat="46.2194633483887" lon="6.9742865562439"><ele></ele><time>2013-8-3T20:26:4Z</time></trkpt>
<trkpt lat="46.2194709777832" lon="6.97427272796631"><ele></ele><time>2013-8-3T20:26:7Z</time></trkpt>
<trkpt lat="46.2194938659668" lon="6.97425651550293"><ele></ele><time>2013-8-3T20:26:10Z</time></trkpt>
<trkpt lat="46.219539642334" lon="6.97423648834228"><ele></ele><time>2013-8-3T20:26:13Z</time></trkpt>
<trkpt lat="46.2196197509766" lon="6.9742112159729"><ele></ele><time>2013-8-3T20:26:16Z</time></trkpt>
<trkpt lat="46.2196502685547" lon="6.97420120239258"><ele></ele><time>2013-8-3T20:26:19Z</time></trkpt>
<trkpt lat="46.2196578979492" lon="6.97419548034668"><ele></ele><time>2013-8-3T20:26:22Z</time></trkpt>
<trkpt lat="46.2196731567383" lon="6.97419309616089"><ele></ele><time>2013-8-3T20:26:25Z</time></trkpt>
<trkpt lat="46.2196922302246" lon="6.97418308258057"><ele></ele><time>2013-8-3T20:26:28Z</time></trkpt>
<trkpt lat="46.2197952270508" lon="6.97414970397949"><ele></ele><time>2013-8-3T20:26:31Z</time></trkpt>
<trkpt lat="46.2198066711426" lon="6.97414064407349"><ele></ele><time>2013-8-3T20:26:34Z</time></trkpt>
<trkpt lat="46.2198219299316" lon="6.97412824630737"><ele></ele><time>2013-8-3T20:26:37Z</time></trkpt>
<trkpt lat="46.2198486328125" lon="6.97411870956421"><ele></ele><time>2013-8-3T20:26:40Z</time></trkpt>
<trkpt lat="46.2198638916016" lon="6.9741039276123"><ele></ele><time>2013-8-3T20:26:43Z</time></trkpt>
<trkpt lat="46.2199287414551" lon="6.9740629196167"><ele></ele><time>2013-8-3T20:26:46Z</time></trkpt>
<trkpt lat="46.2200164794922" lon="6.974036693573"><ele></ele><time>2013-8-3T20:26:49Z</time></trkpt>
<trkpt lat="46.2200393676758" lon="6.97402429580688"><ele></ele><time>2013-8-3T20:26:52Z</time></trkpt>
<trkpt lat="46.2200698852539" lon="6.97402286529541"><ele></ele><time>2013-8-3T20:26:55Z</time></trkpt>
<trkpt lat="46.2201194763184" lon="6.97400522232056"><ele></ele><time>2013-8-3T20:26:58Z</time></trkpt>
<trkpt lat="46.2201499938965" lon="6.97399044036865"><ele></ele><time>2013-8-3T20:27:1Z</time></trkpt>
<trkpt lat="46.2202377319336" lon="6.97396659851074"><ele></ele><time>2013-8-3T20:27:4Z</time></trkpt>
<trkpt lat="46.2202949523926" lon="6.97395515441894"><ele></ele><time>2013-8-3T20:27:7Z</time></trkpt>
<trkpt lat="46.2203178405762" lon="6.97395896911621"><ele></ele><time>2013-8-3T20:27:10Z</time></trkpt>
<trkpt lat="46.2203330993652" lon="6.97397089004517"><ele></ele><time>2013-8-3T20:27:13Z</time></trkpt>
<trkpt lat="46.2203521728516" lon="6.97397375106812"><ele></ele><time>2013-8-3T20:27:16Z</time></trkpt>
<trkpt lat="46.220401763916" lon="6.97398376464844"><ele></ele><time>2013-8-3T20:27:19Z</time></trkpt>
<trkpt lat="46.2204360961914" lon="6.97400140762329"><ele></ele><time>2013-8-3T20:27:22Z</time></trkpt>
<trkpt lat="46.2204475402832" lon="6.97401189804077"><ele></ele><time>2013-8-3T20:27:25Z</time></trkpt>
<trkpt lat="46.2204627990723" lon="6.97402143478394"><ele></ele><time>2013-8-3T20:27:28Z</time></trkpt>
<trkpt lat="46.2204856872559" lon="6.97402763366699"><ele></ele><time>2013-8-3T20:27:31Z</time></trkpt>
<trkpt lat="46.220516204834" lon="6.9740252494812"><ele></ele><time>2013-8-3T20:27:34Z</time></trkpt>
<trkpt lat="46.2206726074219" lon="6.97398948669434"><ele></ele><time>2013-8-3T20:27:37Z</time></trkpt>
<trkpt lat="46.220703125" lon="6.9739818572998"><ele></ele><time>2013-8-3T20:27:40Z</time></trkpt>
<trkpt lat="46.2207221984863" lon="6.97398090362549"><ele></ele><time>2013-8-3T20:27:43Z</time></trkpt>
<trkpt lat="46.2207489013672" lon="6.97398805618286"><ele></ele><time>2013-8-3T20:27:46Z</time></trkpt>
<trkpt lat="46.2207717895508" lon="6.97398662567139"><ele></ele><time>2013-8-3T20:27:49Z</time></trkpt>
<trkpt lat="46.2208480834961" lon="6.97400951385498"><ele></ele><time>2013-8-3T20:27:52Z</time></trkpt>
<trkpt lat="46.2208862304688" lon="6.97400617599487"><ele></ele><time>2013-8-3T20:27:55Z</time></trkpt>
<trkpt lat="46.2208938598633" lon="6.97400665283203"><ele></ele><time>2013-8-3T20:27:58Z</time></trkpt>
<trkpt lat="46.2209167480469" lon="6.97400951385498"><ele></ele><time>2013-8-3T20:28:1Z</time></trkpt>
<trkpt lat="46.2209320068359" lon="6.97400808334351"><ele></ele><time>2013-8-3T20:28:4Z</time></trkpt>
<trkpt lat="46.2209587097168" lon="6.97401189804077"><ele></ele><time>2013-8-3T20:28:7Z</time></trkpt>
<trkpt lat="46.221019744873" lon="6.97402763366699"><ele></ele><time>2013-8-3T20:28:10Z</time></trkpt>
<trkpt lat="46.2210273742676" lon="6.97403287887573"><ele></ele><time>2013-8-3T20:28:13Z</time></trkpt>
<trkpt lat="46.2210426330566" lon="6.97403049468994"><ele></ele><time>2013-8-3T20:28:16Z</time></trkpt>
<trkpt lat="46.2210540771484" lon="6.97403478622436"><ele></ele><time>2013-8-3T20:28:19Z</time></trkpt>
<trkpt lat="46.2210807800293" lon="6.97402620315552"><ele></ele><time>2013-8-3T20:28:22Z</time></trkpt>
<trkpt lat="46.2211074829102" lon="6.97402954101562"><ele></ele><time>2013-8-3T20:28:25Z</time></trkpt>
<trkpt lat="46.2211494445801" lon="6.97405004501343"><ele></ele><time>2013-8-3T20:28:28Z</time></trkpt>
<trkpt lat="46.2211723327637" lon="6.97404623031616"><ele></ele><time>2013-8-3T20:28:31Z</time></trkpt>
<trkpt lat="46.2212066650391" lon="6.97403240203857"><ele></ele><time>2013-8-3T20:28:34Z</time></trkpt>
<trkpt lat="46.2212409973144" lon="6.97402191162109"><ele></ele><time>2013-8-3T20:28:37Z</time></trkpt>
<trkpt lat="46.2212753295898" lon="6.97400999069214"><ele></ele><time>2013-8-3T20:28:40Z</time></trkpt>
<trkpt lat="46.2213325500488" lon="6.97399139404297"><ele></ele><time>2013-8-3T20:28:43Z</time></trkpt>
<trkpt lat="46.2213973999023" lon="6.9739933013916"><ele></ele><time>2013-8-3T20:28:46Z</time></trkpt>
<trkpt lat="46.2214241027832" lon="6.97400140762329"><ele></ele><time>2013-8-3T20:28:49Z</time></trkpt>
<trkpt lat="46.2214469909668" lon="6.97399663925171"><ele></ele><time>2013-8-3T20:28:52Z</time></trkpt>
<trkpt lat="46.2214622497559" lon="6.97400712966919"><ele></ele><time>2013-8-3T20:28:55Z</time></trkpt>
<trkpt lat="46.2214851379394" lon="6.97398614883423"><ele></ele><time>2013-8-3T20:28:58Z</time></trkpt>
<trkpt lat="46.2215270996094" lon="6.97396516799927"><ele></ele><time>2013-8-3T20:29:1Z</time></trkpt>
<trkpt lat="46.2216987609863" lon="6.97388935089111"><ele></ele><time>2013-8-3T20:29:4Z</time></trkpt>
<trkpt lat="46.221736907959" lon="6.97388172149658"><ele></ele><time>2013-8-3T20:29:7Z</time></trkpt>
<trkpt lat="46.2217636108398" lon="6.97386646270752"><ele></ele><time>2013-8-3T20:29:10Z</time></trkpt>
<trkpt lat="46.2217864990234" lon="6.9738621711731"><ele></ele><time>2013-8-3T20:29:13Z</time></trkpt>
<trkpt lat="46.2218055725098" lon="6.97386693954468"><ele></ele><time>2013-8-3T20:29:16Z</time></trkpt>
<trkpt lat="46.221851348877" lon="6.97386312484741"><ele></ele><time>2013-8-3T20:29:19Z</time></trkpt>
<trkpt lat="46.2218971252441" lon="6.97384357452393"><ele></ele><time>2013-8-3T20:29:22Z</time></trkpt>
<trkpt lat="46.221923828125" lon="6.97385025024414"><ele></ele><time>2013-8-3T20:29:25Z</time></trkpt>
<trkpt lat="46.2219734191894" lon="6.97382926940918"><ele></ele><time>2013-8-3T20:29:28Z</time></trkpt>
<trkpt lat="46.2220191955566" lon="6.97381544113159"><ele></ele><time>2013-8-3T20:29:31Z</time></trkpt>
<trkpt lat="46.2220420837402" lon="6.97381401062012"><ele></ele><time>2013-8-3T20:29:34Z</time></trkpt>
<trkpt lat="46.2222099304199" lon="6.97375392913818"><ele></ele><time>2013-8-3T20:29:37Z</time></trkpt>
<trkpt lat="46.222225189209" lon="6.97374773025513"><ele></ele><time>2013-8-3T20:29:40Z</time></trkpt>
<trkpt lat="46.222240447998" lon="6.97374248504639"><ele></ele><time>2013-8-3T20:29:43Z</time></trkpt>
<trkpt lat="46.2222633361816" lon="6.97373628616333"><ele></ele><time>2013-8-3T20:29:46Z</time></trkpt>
<trkpt lat="46.2222938537598" lon="6.97373247146606"><ele></ele><time>2013-8-3T20:29:49Z</time></trkpt>
<trkpt lat="46.222339630127" lon="6.97371435165405"><ele></ele><time>2013-8-3T20:29:52Z</time></trkpt>
<trkpt lat="46.2224388122559" lon="6.97368574142456"><ele></ele><time>2013-8-3T20:29:55Z</time></trkpt>
<trkpt lat="46.2224731445312" lon="6.97367238998413"><ele></ele><time>2013-8-3T20:29:58Z</time></trkpt>
<trkpt lat="46.2225227355957" lon="6.97365617752075"><ele></ele><time>2013-8-3T20:30:1Z</time></trkpt>
<trkpt lat="46.2225341796875" lon="6.97365093231201"><ele></ele><time>2013-8-3T20:30:4Z</time></trkpt>
<trkpt lat="46.2225685119629" lon="6.97363615036011"><ele></ele><time>2013-8-3T20:30:7Z</time></trkpt>
<trkpt lat="46.2227058410644" lon="6.9735860824585"><ele></ele><time>2013-8-3T20:30:10Z</time></trkpt>
<trkpt lat="46.2227325439453" lon="6.97357416152954"><ele></ele><time>2013-8-3T20:30:13Z</time></trkpt>
<trkpt lat="46.2227973937988" lon="6.97355365753174"><ele></ele><time>2013-8-3T20:30:16Z</time></trkpt>
<trkpt lat="46.2228202819824" lon="6.97354555130005"><ele></ele><time>2013-8-3T20:30:19Z</time></trkpt>
<trkpt lat="46.2228393554688" lon="6.97353744506836"><ele></ele><time>2013-8-3T20:30:22Z</time></trkpt>
<trkpt lat="46.2228775024414" lon="6.97353029251099"><ele></ele><time>2013-8-3T20:30:25Z</time></trkpt>
<trkpt lat="46.2229042053223" lon="6.97351598739624"><ele></ele><time>2013-8-3T20:30:28Z</time></trkpt>
<trkpt lat="46.2229919433594" lon="6.97349309921265"><ele></ele><time>2013-8-3T20:30:31Z</time></trkpt>
<trkpt lat="46.2230224609375" lon="6.97347402572632"><ele></ele><time>2013-8-3T20:30:34Z</time></trkpt>
<trkpt lat="46.2230453491211" lon="6.97346305847168"><ele></ele><time>2013-8-3T20:30:37Z</time></trkpt>
<trkpt lat="46.223072052002" lon="6.97344779968262"><ele></ele><time>2013-8-3T20:30:40Z</time></trkpt>
<trkpt lat="46.2230987548828" lon="6.97343349456787"><ele></ele><time>2013-8-3T20:30:43Z</time></trkpt>
<trkpt lat="46.223258972168" lon="6.9733076095581"><ele></ele><time>2013-8-3T20:30:46Z</time></trkpt>
<trkpt lat="46.2232780456543" lon="6.97328758239746"><ele></ele><time>2013-8-3T20:30:49Z</time></trkpt>
<trkpt lat="46.2233047485352" lon="6.9732666015625"><ele></ele><time>2013-8-3T20:30:52Z</time></trkpt>
<trkpt lat="46.2233352661133" lon="6.97323894500732"><ele></ele><time>2013-8-3T20:30:55Z</time></trkpt>
<trkpt lat="46.2233657836914" lon="6.9732141494751"><ele></ele><time>2013-8-3T20:30:58Z</time></trkpt>
<trkpt lat="46.2234153747559" lon="6.97317218780518"><ele></ele><time>2013-8-3T20:31:1Z</time></trkpt>
<trkpt lat="46.2236366271973" lon="6.97304248809814"><ele></ele><time>2013-8-3T20:31:4Z</time></trkpt>
<trkpt lat="46.2236633300781" lon="6.97302198410034"><ele></ele><time>2013-8-3T20:31:7Z</time></trkpt>
<trkpt lat="46.2236862182617" lon="6.97300434112549"><ele></ele><time>2013-8-3T20:31:10Z</time></trkpt>
<trkpt lat="46.2237091064453" lon="6.97299098968506"><ele></ele><time>2013-8-3T20:31:13Z</time></trkpt>
<trkpt lat="46.2238159179688" lon="6.97293949127197"><ele></ele><time>2013-8-3T20:31:16Z</time></trkpt>
<trkpt lat="46.2238578796387" lon="6.97292470932007"><ele></ele><time>2013-8-3T20:31:19Z</time></trkpt>
<trkpt lat="46.2238807678223" lon="6.97292709350586"><ele></ele><time>2013-8-3T20:31:22Z</time></trkpt>
<trkpt lat="46.2238998413086" lon="6.97292613983154"><ele></ele><time>2013-8-3T20:31:25Z</time></trkpt>
<trkpt lat="46.2239227294922" lon="6.97292232513428"><ele></ele><time>2013-8-3T20:31:28Z</time></trkpt>
<trkpt lat="46.2239418029785" lon="6.97291326522827"><ele></ele><time>2013-8-3T20:31:31Z</time></trkpt>
<trkpt lat="46.2239646911621" lon="6.97290802001953"><ele></ele><time>2013-8-3T20:31:34Z</time></trkpt>
<trkpt lat="46.2240371704102" lon="6.97287940979004"><ele></ele><time>2013-8-3T20:31:37Z</time></trkpt>
<trkpt lat="46.224063873291" lon="6.97286558151245"><ele></ele><time>2013-8-3T20:31:40Z</time></trkpt>
<trkpt lat="46.2240867614746" lon="6.97284746170044"><ele></ele><time>2013-8-3T20:31:43Z</time></trkpt>
<trkpt lat="46.2241134643555" lon="6.97282409667969"><ele></ele><time>2013-8-3T20:31:46Z</time></trkpt>
<trkpt lat="46.2241363525391" lon="6.97280883789062"><ele></ele><time>2013-8-3T20:31:49Z</time></trkpt>
<trkpt lat="46.2241554260254" lon="6.97278881072998"><ele></ele><time>2013-8-3T20:31:52Z</time></trkpt>
<trkpt lat="46.2242240905762" lon="6.97271871566772"><ele></ele><time>2013-8-3T20:31:55Z</time></trkpt>
<trkpt lat="46.224235534668" lon="6.97271013259888"><ele></ele><time>2013-8-3T20:31:58Z</time></trkpt>
<trkpt lat="46.224250793457" lon="6.97270679473877"><ele></ele><time>2013-8-3T20:32:1Z</time></trkpt>
<trkpt lat="46.2242622375488" lon="6.97270345687866"><ele></ele><time>2013-8-3T20:32:4Z</time></trkpt>
<trkpt lat="46.2242774963379" lon="6.9726972579956"><ele></ele><time>2013-8-3T20:32:7Z</time></trkpt>
<trkpt lat="46.2243232727051" lon="6.97265863418579"><ele></ele><time>2013-8-3T20:32:10Z</time></trkpt>
<trkpt lat="46.2243385314941" lon="6.97264528274536"><ele></ele><time>2013-8-3T20:32:13Z</time></trkpt>
<trkpt lat="46.2243576049805" lon="6.97263717651367"><ele></ele><time>2013-8-3T20:32:16Z</time></trkpt>
<trkpt lat="46.2243804931641" lon="6.97262048721314"><ele></ele><time>2013-8-3T20:32:19Z</time></trkpt>
<trkpt lat="46.2244033813477" lon="6.97261381149292"><ele></ele><time>2013-8-3T20:32:22Z</time></trkpt>
<trkpt lat="46.2244300842285" lon="6.9726071357727"><ele></ele><time>2013-8-3T20:32:25Z</time></trkpt>
<trkpt lat="46.2244529724121" lon="6.97260284423828"><ele></ele><time>2013-8-3T20:32:28Z</time></trkpt>
<trkpt lat="46.2245101928711" lon="6.97259521484375"><ele></ele><time>2013-8-3T20:32:31Z</time></trkpt>
<trkpt lat="46.2245292663574" lon="6.97259616851807"><ele></ele><time>2013-8-3T20:32:34Z</time></trkpt>
<trkpt lat="46.224552154541" lon="6.97259950637817"><ele></ele><time>2013-8-3T20:32:37Z</time></trkpt>
<trkpt lat="46.2245712280273" lon="6.97260284423828"><ele></ele><time>2013-8-3T20:32:40Z</time></trkpt>
<trkpt lat="46.2245941162109" lon="6.9726071357727"><ele></ele><time>2013-8-3T20:32:43Z</time></trkpt>
<trkpt lat="46.2246513366699" lon="6.97260904312134"><ele></ele><time>2013-8-3T20:32:46Z</time></trkpt>
<trkpt lat="46.2247314453125" lon="6.97261810302734"><ele></ele><time>2013-8-3T20:32:49Z</time></trkpt>
<trkpt lat="46.2247581481934" lon="6.97261714935303"><ele></ele><time>2013-8-3T20:32:52Z</time></trkpt>
<trkpt lat="46.224781036377" lon="6.97261810302734"><ele></ele><time>2013-8-3T20:32:55Z</time></trkpt>
<trkpt lat="46.2248039245606" lon="6.97261714935303"><ele></ele><time>2013-8-3T20:32:58Z</time></trkpt>
<trkpt lat="46.2248268127441" lon="6.97261571884155"><ele></ele><time>2013-8-3T20:33:1Z</time></trkpt>
<trkpt lat="46.2249374389648" lon="6.97263669967651"><ele></ele><time>2013-8-3T20:33:4Z</time></trkpt>
<trkpt lat="46.2249717712402" lon="6.97264051437378"><ele></ele><time>2013-8-3T20:33:7Z</time></trkpt>
<trkpt lat="46.2249946594238" lon="6.97264575958252"><ele></ele><time>2013-8-3T20:33:10Z</time></trkpt>
<trkpt lat="46.2250175476074" lon="6.9726448059082"><ele></ele><time>2013-8-3T20:33:13Z</time></trkpt>
<trkpt lat="46.2250442504883" lon="6.9726448059082"><ele></ele><time>2013-8-3T20:33:16Z</time></trkpt>
<trkpt lat="46.2250785827637" lon="6.9726390838623"><ele></ele><time>2013-8-3T20:33:19Z</time></trkpt>
<trkpt lat="46.2252540588379" lon="6.97259473800659"><ele></ele><time>2013-8-3T20:33:22Z</time></trkpt>
<trkpt lat="46.225284576416" lon="6.97257661819458"><ele></ele><time>2013-8-3T20:33:25Z</time></trkpt>
<trkpt lat="46.2253265380859" lon="6.97255659103394"><ele></ele><time>2013-8-3T20:33:28Z</time></trkpt>
<trkpt lat="46.2253494262695" lon="6.97253608703613"><ele></ele><time>2013-8-3T20:33:31Z</time></trkpt>
<trkpt lat="46.2253723144531" lon="6.97251319885254"><ele></ele><time>2013-8-3T20:33:34Z</time></trkpt>
<trkpt lat="46.2253837585449" lon="6.97249126434326"><ele></ele><time>2013-8-3T20:33:37Z</time></trkpt>
<trkpt lat="46.2253952026367" lon="6.97246599197388"><ele></ele><time>2013-8-3T20:33:40Z</time></trkpt>
<trkpt lat="46.2254104614258" lon="6.97243881225586"><ele></ele><time>2013-8-3T20:33:43Z</time></trkpt>
<trkpt lat="46.2254409790039" lon="6.97235774993896"><ele></ele><time>2013-8-3T20:33:46Z</time></trkpt>
<trkpt lat="46.225456237793" lon="6.9723334312439"><ele></ele><time>2013-8-3T20:33:49Z</time></trkpt>
<trkpt lat="46.2254676818848" lon="6.9723072052002"><ele></ele><time>2013-8-3T20:33:52Z</time></trkpt>
<trkpt lat="46.2254829406738" lon="6.97227668762207"><ele></ele><time>2013-8-3T20:33:55Z</time></trkpt>
<trkpt lat="46.2255020141602" lon="6.97225141525268"><ele></ele><time>2013-8-3T20:33:58Z</time></trkpt>
<trkpt lat="46.225513458252" lon="6.97222566604614"><ele></ele><time>2013-8-3T20:34:1Z</time></trkpt>
<trkpt lat="46.2256126403809" lon="6.97214889526367"><ele></ele><time>2013-8-3T20:34:4Z</time></trkpt>
<trkpt lat="46.2256393432617" lon="6.97213268280029"><ele></ele><time>2013-8-3T20:34:7Z</time></trkpt>
<trkpt lat="46.2256622314453" lon="6.97211408615112"><ele></ele><time>2013-8-3T20:34:10Z</time></trkpt>
<trkpt lat="46.2256813049316" lon="6.97209930419922"><ele></ele><time>2013-8-3T20:34:13Z</time></trkpt>
<trkpt lat="46.2257041931152" lon="6.97208547592163"><ele></ele><time>2013-8-3T20:34:16Z</time></trkpt>
<trkpt lat="46.2257194519043" lon="6.97206735610962"><ele></ele><time>2013-8-3T20:34:19Z</time></trkpt>
<trkpt lat="46.2257423400879" lon="6.97205018997192"><ele></ele><time>2013-8-3T20:34:22Z</time></trkpt>
<trkpt lat="46.2258567810059" lon="6.97194623947144"><ele></ele><time>2013-8-3T20:34:25Z</time></trkpt>
<trkpt lat="46.2258682250977" lon="6.97190475463867"><ele></ele><time>2013-8-3T20:34:28Z</time></trkpt>
<trkpt lat="46.2258720397949" lon="6.97186326980591"><ele></ele><time>2013-8-3T20:34:31Z</time></trkpt>
<trkpt lat="46.2258796691894" lon="6.97182989120483"><ele></ele><time>2013-8-3T20:34:34Z</time></trkpt>
<trkpt lat="46.2259063720703" lon="6.97176647186279"><ele></ele><time>2013-8-3T20:34:37Z</time></trkpt>
<trkpt lat="46.2259216308594" lon="6.97176027297974"><ele></ele><time>2013-8-3T20:34:40Z</time></trkpt>
<trkpt lat="46.2259330749512" lon="6.97176027297974"><ele></ele><time>2013-8-3T20:34:43Z</time></trkpt>
<trkpt lat="46.2259483337402" lon="6.97175168991089"><ele></ele><time>2013-8-3T20:34:46Z</time></trkpt>
<trkpt lat="46.2259559631348" lon="6.97174310684204"><ele></ele><time>2013-8-3T20:34:49Z</time></trkpt>
<trkpt lat="46.2259674072266" lon="6.97173070907593"><ele></ele><time>2013-8-3T20:34:52Z</time></trkpt>
<trkpt lat="46.2259941101074" lon="6.97171926498413"><ele></ele><time>2013-8-3T20:34:55Z</time></trkpt>
<trkpt lat="46.2260360717773" lon="6.97170782089233"><ele></ele><time>2013-8-3T20:34:58Z</time></trkpt>
<trkpt lat="46.2260627746582" lon="6.97169637680054"><ele></ele><time>2013-8-3T20:35:1Z</time></trkpt>
<trkpt lat="46.2260894775391" lon="6.9716854095459"><ele></ele><time>2013-8-3T20:35:4Z</time></trkpt>
<trkpt lat="46.2261161804199" lon="6.97167921066284"><ele></ele><time>2013-8-3T20:35:7Z</time></trkpt>
<trkpt lat="46.2261505126953" lon="6.97168016433716"><ele></ele><time>2013-8-3T20:35:10Z</time></trkpt>
<trkpt lat="46.2262077331543" lon="6.97168254852295"><ele></ele><time>2013-8-3T20:35:13Z</time></trkpt>
<trkpt lat="46.2262916564941" lon="6.97168922424316"><ele></ele><time>2013-8-3T20:35:16Z</time></trkpt>
<trkpt lat="46.2263145446777" lon="6.9716968536377"><ele></ele><time>2013-8-3T20:35:19Z</time></trkpt>
<trkpt lat="46.2263374328613" lon="6.9717059135437"><ele></ele><time>2013-8-3T20:35:22Z</time></trkpt>
<trkpt lat="46.2263526916504" lon="6.97172403335571"><ele></ele><time>2013-8-3T20:35:25Z</time></trkpt>
<trkpt lat="46.2263793945312" lon="6.97173643112183"><ele></ele><time>2013-8-3T20:35:28Z</time></trkpt>
<trkpt lat="46.2264595031738" lon="6.97177791595459"><ele></ele><time>2013-8-3T20:35:31Z</time></trkpt>
<trkpt lat="46.2265129089356" lon="6.97181272506714"><ele></ele><time>2013-8-3T20:35:34Z</time></trkpt>
<trkpt lat="46.2265281677246" lon="6.9718222618103"><ele></ele><time>2013-8-3T20:35:37Z</time></trkpt>
<trkpt lat="46.2265548706055" lon="6.97183275222778"><ele></ele><time>2013-8-3T20:35:40Z</time></trkpt>
<trkpt lat="46.2265701293945" lon="6.97185134887695"><ele></ele><time>2013-8-3T20:35:43Z</time></trkpt>
<trkpt lat="46.2265930175781" lon="6.97186660766602"><ele></ele><time>2013-8-3T20:35:46Z</time></trkpt>
<trkpt lat="46.2267150878906" lon="6.97195100784302"><ele></ele><time>2013-8-3T20:35:49Z</time></trkpt>
<trkpt lat="46.2267417907715" lon="6.97196912765503"><ele></ele><time>2013-8-3T20:35:52Z</time></trkpt>
<trkpt lat="46.2267723083496" lon="6.97198915481567"><ele></ele><time>2013-8-3T20:35:55Z</time></trkpt>
<trkpt lat="46.2267913818359" lon="6.9720048904419"><ele></ele><time>2013-8-3T20:35:58Z</time></trkpt>
<trkpt lat="46.2268180847168" lon="6.97202348709106"><ele></ele><time>2013-8-3T20:36:1Z</time></trkpt>
<trkpt lat="46.2268371582031" lon="6.97204399108887"><ele></ele><time>2013-8-3T20:36:4Z</time></trkpt>
<trkpt lat="46.2269058227539" lon="6.9721531867981"><ele></ele><time>2013-8-3T20:36:7Z</time></trkpt>
<trkpt lat="46.226921081543" lon="6.97218370437622"><ele></ele><time>2013-8-3T20:36:10Z</time></trkpt>
<trkpt lat="46.226936340332" lon="6.97220659255982"><ele></ele><time>2013-8-3T20:36:13Z</time></trkpt>
<trkpt lat="46.2269592285156" lon="6.97222757339478"><ele></ele><time>2013-8-3T20:36:16Z</time></trkpt>
<trkpt lat="46.2269859313965" lon="6.97224569320679"><ele></ele><time>2013-8-3T20:36:19Z</time></trkpt>
<trkpt lat="46.2270278930664" lon="6.97226762771606"><ele></ele><time>2013-8-3T20:36:22Z</time></trkpt>
<trkpt lat="46.2271270751953" lon="6.97228336334228"><ele></ele><time>2013-8-3T20:36:25Z</time></trkpt>
<trkpt lat="46.227165222168" lon="6.97229099273682"><ele></ele><time>2013-8-3T20:36:28Z</time></trkpt>
<trkpt lat="46.2271957397461" lon="6.97229862213135"><ele></ele><time>2013-8-3T20:36:31Z</time></trkpt>
<trkpt lat="46.227222442627" lon="6.9723014831543"><ele></ele><time>2013-8-3T20:36:34Z</time></trkpt>
<trkpt lat="46.2272415161133" lon="6.97230339050293"><ele></ele><time>2013-8-3T20:36:37Z</time></trkpt>
<trkpt lat="46.2272758483887" lon="6.97230672836304"><ele></ele><time>2013-8-3T20:36:40Z</time></trkpt>
<trkpt lat="46.2272987365723" lon="6.9723072052002"><ele></ele><time>2013-8-3T20:36:43Z</time></trkpt>
<trkpt lat="46.2273635864258" lon="6.97230529785156"><ele></ele><time>2013-8-3T20:36:46Z</time></trkpt>
<trkpt lat="46.2273902893066" lon="6.97230625152588"><ele></ele><time>2013-8-3T20:36:49Z</time></trkpt>
<trkpt lat="46.227409362793" lon="6.97230052947998"><ele></ele><time>2013-8-3T20:36:52Z</time></trkpt>
<trkpt lat="46.2274322509766" lon="6.97229957580566"><ele></ele><time>2013-8-3T20:36:55Z</time></trkpt>
<trkpt lat="46.2274742126465" lon="6.97230434417725"><ele></ele><time>2013-8-3T20:36:58Z</time></trkpt>
<trkpt lat="46.2275085449219" lon="6.97231388092041"><ele></ele><time>2013-8-3T20:37:1Z</time></trkpt>
<trkpt lat="46.2275238037109" lon="6.97232532501221"><ele></ele><time>2013-8-3T20:37:4Z</time></trkpt>
<trkpt lat="46.2275390625" lon="6.97233486175537"><ele></ele><time>2013-8-3T20:37:7Z</time></trkpt>
<trkpt lat="46.2275581359863" lon="6.97234773635864"><ele></ele><time>2013-8-3T20:37:10Z</time></trkpt>
<trkpt lat="46.2275810241699" lon="6.9723596572876"><ele></ele><time>2013-8-3T20:37:13Z</time></trkpt>
<trkpt lat="46.2276000976562" lon="6.97237253189087"><ele></ele><time>2013-8-3T20:37:16Z</time></trkpt>
<trkpt lat="46.2276153564453" lon="6.97238636016846"><ele></ele><time>2013-8-3T20:37:19Z</time></trkpt>
<trkpt lat="46.2276763916016" lon="6.9724178314209"><ele></ele><time>2013-8-3T20:37:22Z</time></trkpt>
<trkpt lat="46.2276992797852" lon="6.97242784500122"><ele></ele><time>2013-8-3T20:37:25Z</time></trkpt>
<trkpt lat="46.2277221679688" lon="6.97243356704712"><ele></ele><time>2013-8-3T20:37:28Z</time></trkpt>
<trkpt lat="46.2277450561523" lon="6.97244167327881"><ele></ele><time>2013-8-3T20:37:31Z</time></trkpt>
<trkpt lat="46.2277641296387" lon="6.97244882583618"><ele></ele><time>2013-8-3T20:37:34Z</time></trkpt>
<trkpt lat="46.2278099060059" lon="6.97246885299683"><ele></ele><time>2013-8-3T20:37:37Z</time></trkpt>
<trkpt lat="46.2278633117676" lon="6.97248458862305"><ele></ele><time>2013-8-3T20:37:40Z</time></trkpt>
<trkpt lat="46.2278900146484" lon="6.97249174118042"><ele></ele><time>2013-8-3T20:37:43Z</time></trkpt>
<trkpt lat="46.2279205322266" lon="6.97249603271484"><ele></ele><time>2013-8-3T20:37:46Z</time></trkpt>
<trkpt lat="46.2279434204102" lon="6.97250127792358"><ele></ele><time>2013-8-3T20:37:49Z</time></trkpt>
<trkpt lat="46.227970123291" lon="6.97251081466675"><ele></ele><time>2013-8-3T20:37:52Z</time></trkpt>
<trkpt lat="46.2281455993652" lon="6.97253131866455"><ele></ele><time>2013-8-3T20:37:55Z</time></trkpt>
<trkpt lat="46.2281723022461" lon="6.97253131866455"><ele></ele><time>2013-8-3T20:37:58Z</time></trkpt>
<trkpt lat="46.2281951904297" lon="6.97253274917602"><ele></ele><time>2013-8-3T20:38:1Z</time></trkpt>
<trkpt lat="46.2282180786133" lon="6.97253704071045"><ele></ele><time>2013-8-3T20:38:4Z</time></trkpt>
<trkpt lat="46.2282447814941" lon="6.97254419326782"><ele></ele><time>2013-8-3T20:38:7Z</time></trkpt>
<trkpt lat="46.228271484375" lon="6.97255086898804"><ele></ele><time>2013-8-3T20:38:10Z</time></trkpt>
<trkpt lat="46.2282943725586" lon="6.97255659103394"><ele></ele><time>2013-8-3T20:38:13Z</time></trkpt>
<trkpt lat="46.2283630371094" lon="6.9725489616394"><ele></ele><time>2013-8-3T20:38:16Z</time></trkpt>
<trkpt lat="46.228385925293" lon="6.97254943847656"><ele></ele><time>2013-8-3T20:38:19Z</time></trkpt>
<trkpt lat="46.2284049987793" lon="6.97254848480225"><ele></ele><time>2013-8-3T20:38:22Z</time></trkpt>
<trkpt lat="46.2284202575684" lon="6.97254037857056"><ele></ele><time>2013-8-3T20:38:25Z</time></trkpt>
<trkpt lat="46.2284355163574" lon="6.97253179550171"><ele></ele><time>2013-8-3T20:38:28Z</time></trkpt>
<trkpt lat="46.2284812927246" lon="6.9725136756897"><ele></ele><time>2013-8-3T20:38:31Z</time></trkpt>
<trkpt lat="46.2285614013672" lon="6.97245740890503"><ele></ele><time>2013-8-3T20:38:34Z</time></trkpt>
<trkpt lat="46.2285957336426" lon="6.97242832183838"><ele></ele><time>2013-8-3T20:38:37Z</time></trkpt>
<trkpt lat="46.2286338806152" lon="6.97239685058594"><ele></ele><time>2013-8-3T20:38:40Z</time></trkpt>
<trkpt lat="46.2286682128906" lon="6.97237014770508"><ele></ele><time>2013-8-3T20:38:43Z</time></trkpt>
<trkpt lat="46.228702545166" lon="6.9723424911499"><ele></ele><time>2013-8-3T20:38:46Z</time></trkpt>
<trkpt lat="46.2288208007812" lon="6.97226190567017"><ele></ele><time>2013-8-3T20:38:49Z</time></trkpt>
<trkpt lat="46.2288665771484" lon="6.97222375869751"><ele></ele><time>2013-8-3T20:38:52Z</time></trkpt>
<trkpt lat="46.2288970947266" lon="6.97219848632812"><ele></ele><time>2013-8-3T20:38:55Z</time></trkpt>
<trkpt lat="46.2289276123047" lon="6.97217702865601"><ele></ele><time>2013-8-3T20:38:58Z</time></trkpt>
<trkpt lat="46.2289581298828" lon="6.97215461730957"><ele></ele><time>2013-8-3T20:39:1Z</time></trkpt>
<trkpt lat="46.2289848327637" lon="6.97213745117188"><ele></ele><time>2013-8-3T20:39:4Z</time></trkpt>
<trkpt lat="46.2290573120117" lon="6.97208738327026"><ele></ele><time>2013-8-3T20:39:7Z</time></trkpt>
<trkpt lat="46.2291259765625" lon="6.97204685211182"><ele></ele><time>2013-8-3T20:39:10Z</time></trkpt>
<trkpt lat="46.2291412353516" lon="6.97203636169434"><ele></ele><time>2013-8-3T20:39:13Z</time></trkpt>
<trkpt lat="46.2291641235352" lon="6.9720196723938"><ele></ele><time>2013-8-3T20:39:16Z</time></trkpt>
<trkpt lat="46.2291870117188" lon="6.97200298309326"><ele></ele><time>2013-8-3T20:39:19Z</time></trkpt>
<trkpt lat="46.2292709350586" lon="6.97191762924194"><ele></ele><time>2013-8-3T20:39:22Z</time></trkpt>
<trkpt lat="46.2293243408203" lon="6.97185325622559"><ele></ele><time>2013-8-3T20:39:25Z</time></trkpt>
<trkpt lat="46.2293510437012" lon="6.97183704376221"><ele></ele><time>2013-8-3T20:39:28Z</time></trkpt>
<trkpt lat="46.2293739318848" lon="6.97182083129883"><ele></ele><time>2013-8-3T20:39:31Z</time></trkpt>
<trkpt lat="46.2293968200684" lon="6.97180366516113"><ele></ele><time>2013-8-3T20:39:34Z</time></trkpt>
<trkpt lat="46.2294311523438" lon="6.97178506851196"><ele></ele><time>2013-8-3T20:39:37Z</time></trkpt>
<trkpt lat="46.2295455932617" lon="6.97165679931641"><ele></ele><time>2013-8-3T20:39:40Z</time></trkpt>
<trkpt lat="46.229564666748" lon="6.9716272354126"><ele></ele><time>2013-8-3T20:39:43Z</time></trkpt>
<trkpt lat="46.2295799255371" lon="6.97159242630005"><ele></ele><time>2013-8-3T20:39:46Z</time></trkpt>
<trkpt lat="46.2295951843262" lon="6.97155904769898"><ele></ele><time>2013-8-3T20:39:49Z</time></trkpt>
<trkpt lat="46.2296028137207" lon="6.97152328491211"><ele></ele><time>2013-8-3T20:39:52Z</time></trkpt>
<trkpt lat="46.2296142578125" lon="6.9714503288269"><ele></ele><time>2013-8-3T20:39:55Z</time></trkpt>
<trkpt lat="46.2296142578125" lon="6.9713454246521"><ele></ele><time>2013-8-3T20:39:58Z</time></trkpt>
<trkpt lat="46.2296142578125" lon="6.97131299972534"><ele></ele><time>2013-8-3T20:40:1Z</time></trkpt>
<trkpt lat="46.2296142578125" lon="6.97127771377564"><ele></ele><time>2013-8-3T20:40:4Z</time></trkpt>
<trkpt lat="46.2296104431152" lon="6.97124290466309"><ele></ele><time>2013-8-3T20:40:7Z</time></trkpt>
<trkpt lat="46.2296104431152" lon="6.97120571136475"><ele></ele><time>2013-8-3T20:40:10Z</time></trkpt>
<trkpt lat="46.2296104431152" lon="6.97116708755493"><ele></ele><time>2013-8-3T20:40:13Z</time></trkpt>
<trkpt lat="46.2296142578125" lon="6.97098684310913"><ele></ele><time>2013-8-3T20:40:16Z</time></trkpt>
<trkpt lat="46.2296180725098" lon="6.9709529876709"><ele></ele><time>2013-8-3T20:40:19Z</time></trkpt>
<trkpt lat="46.229621887207" lon="6.97091960906982"><ele></ele><time>2013-8-3T20:40:22Z</time></trkpt>
<trkpt lat="46.229621887207" lon="6.97088527679443"><ele></ele><time>2013-8-3T20:40:25Z</time></trkpt>
<trkpt lat="46.2296257019043" lon="6.97084903717041"><ele></ele><time>2013-8-3T20:40:28Z</time></trkpt>
<trkpt lat="46.2296257019043" lon="6.97066926956177"><ele></ele><time>2013-8-3T20:40:31Z</time></trkpt>
<trkpt lat="46.2296257019043" lon="6.97063446044922"><ele></ele><time>2013-8-3T20:40:34Z</time></trkpt>
<trkpt lat="46.2296257019043" lon="6.9705982208252"><ele></ele><time>2013-8-3T20:40:37Z</time></trkpt>
<trkpt lat="46.2296295166016" lon="6.9705662727356"><ele></ele><time>2013-8-3T20:40:40Z</time></trkpt>
<trkpt lat="46.2296333312988" lon="6.97053384780884"><ele></ele><time>2013-8-3T20:40:43Z</time></trkpt>
<trkpt lat="46.2296409606934" lon="6.97042989730835"><ele></ele><time>2013-8-3T20:40:46Z</time></trkpt>
<trkpt lat="46.2296409606934" lon="6.97039365768433"><ele></ele><time>2013-8-3T20:40:49Z</time></trkpt>
<trkpt lat="46.2296447753906" lon="6.97035837173462"><ele></ele><time>2013-8-3T20:40:52Z</time></trkpt>
<trkpt lat="46.2296485900879" lon="6.97032499313354"><ele></ele><time>2013-8-3T20:40:55Z</time></trkpt>
<trkpt lat="46.2296485900879" lon="6.97029161453247"><ele></ele><time>2013-8-3T20:40:58Z</time></trkpt>
<trkpt lat="46.2296295166016" lon="6.97008895874024"><ele></ele><time>2013-8-3T20:41:1Z</time></trkpt>
<trkpt lat="46.229621887207" lon="6.97005558013916"><ele></ele><time>2013-8-3T20:41:4Z</time></trkpt>
<trkpt lat="46.2296142578125" lon="6.97002172470093"><ele></ele><time>2013-8-3T20:41:7Z</time></trkpt>
<trkpt lat="46.2296028137207" lon="6.9699912071228"><ele></ele><time>2013-8-3T20:41:10Z</time></trkpt>
<trkpt lat="46.2295951843262" lon="6.96996259689331"><ele></ele><time>2013-8-3T20:41:13Z</time></trkpt>
<trkpt lat="46.2295608520508" lon="6.96987533569336"><ele></ele><time>2013-8-3T20:41:16Z</time></trkpt>
<trkpt lat="46.2295227050781" lon="6.96979665756226"><ele></ele><time>2013-8-3T20:41:19Z</time></trkpt>
<trkpt lat="46.2295074462891" lon="6.96977090835571"><ele></ele><time>2013-8-3T20:41:22Z</time></trkpt>
<trkpt lat="46.2294845581055" lon="6.96974229812622"><ele></ele><time>2013-8-3T20:41:25Z</time></trkpt>
<trkpt lat="46.2294616699219" lon="6.96971559524536"><ele></ele><time>2013-8-3T20:41:28Z</time></trkpt>
<trkpt lat="46.229362487793" lon="6.96959018707275"><ele></ele><time>2013-8-3T20:41:31Z</time></trkpt>
<trkpt lat="46.2293434143066" lon="6.96957063674927"><ele></ele><time>2013-8-3T20:41:34Z</time></trkpt>
<trkpt lat="46.2293243408203" lon="6.96955108642578"><ele></ele><time>2013-8-3T20:41:37Z</time></trkpt>
<trkpt lat="46.2293014526367" lon="6.96953105926514"><ele></ele><time>2013-8-3T20:41:40Z</time></trkpt>
<trkpt lat="46.2292823791504" lon="6.96950912475586"><ele></ele><time>2013-8-3T20:41:43Z</time></trkpt>
<trkpt lat="46.2292022705078" lon="6.96941518783569"><ele></ele><time>2013-8-3T20:41:46Z</time></trkpt>
<trkpt lat="46.2291374206543" lon="6.96933841705322"><ele></ele><time>2013-8-3T20:41:49Z</time></trkpt>
<trkpt lat="46.2291145324707" lon="6.96931028366089"><ele></ele><time>2013-8-3T20:41:52Z</time></trkpt>
<trkpt lat="46.2290954589844" lon="6.96928596496582"><ele></ele><time>2013-8-3T20:41:55Z</time></trkpt>
<trkpt lat="46.2290725708008" lon="6.96926259994507"><ele></ele><time>2013-8-3T20:41:58Z</time></trkpt>
<trkpt lat="46.2290496826172" lon="6.96923542022705"><ele></ele><time>2013-8-3T20:42:1Z</time></trkpt>
<trkpt lat="46.228889465332" lon="6.96904468536377"><ele></ele><time>2013-8-3T20:42:4Z</time></trkpt>
<trkpt lat="46.2287178039551" lon="6.9688138961792"><ele></ele><time>2013-8-3T20:42:7Z</time></trkpt>
<trkpt lat="46.2285461425781" lon="6.96855926513672"><ele></ele><time>2013-8-3T20:42:10Z</time></trkpt>
<trkpt lat="46.2283897399902" lon="6.96834707260132"><ele></ele><time>2013-8-3T20:42:13Z</time></trkpt>
<trkpt lat="46.2283134460449" lon="6.96826791763306"><ele></ele><time>2013-8-3T20:42:16Z</time></trkpt>
<trkpt lat="46.2281188964844" lon="6.96811866760254"><ele></ele><time>2013-8-3T20:42:19Z</time></trkpt>
<trkpt lat="46.2280807495117" lon="6.96808767318726"><ele></ele><time>2013-8-3T20:42:22Z</time></trkpt>
<trkpt lat="46.2278709411621" lon="6.96787357330322"><ele></ele><time>2013-8-3T20:42:25Z</time></trkpt>
<trkpt lat="46.2277297973633" lon="6.96769714355469"><ele></ele><time>2013-8-3T20:42:28Z</time></trkpt>
<trkpt lat="46.2276458740234" lon="6.9675989151001"><ele></ele><time>2013-8-3T20:42:31Z</time></trkpt>
<trkpt lat="46.2275276184082" lon="6.96746015548706"><ele></ele><time>2013-8-3T20:42:34Z</time></trkpt>
<trkpt lat="46.2274627685547" lon="6.967360496521"><ele></ele><time>2013-8-3T20:42:37Z</time></trkpt>
<trkpt lat="46.2274322509766" lon="6.96730852127075"><ele></ele><time>2013-8-3T20:42:40Z</time></trkpt>
<trkpt lat="46.227409362793" lon="6.96725225448608"><ele></ele><time>2013-8-3T20:42:43Z</time></trkpt>
<trkpt lat="46.2273826599121" lon="6.96719741821289"><ele></ele><time>2013-8-3T20:42:46Z</time></trkpt>
<trkpt lat="46.2273445129394" lon="6.96713876724243"><ele></ele><time>2013-8-3T20:42:49Z</time></trkpt>
<trkpt lat="46.2272071838379" lon="6.96691656112671"><ele></ele><time>2013-8-3T20:42:52Z</time></trkpt>
<trkpt lat="46.227165222168" lon="6.96687269210815"><ele></ele><time>2013-8-3T20:42:55Z</time></trkpt>
<trkpt lat="46.2270164489746" lon="6.96675872802734"><ele></ele><time>2013-8-3T20:42:58Z</time></trkpt>
<trkpt lat="46.2269325256348" lon="6.9666862487793"><ele></ele><time>2013-8-3T20:43:1Z</time></trkpt>
<trkpt lat="46.2268562316894" lon="6.96661710739136"><ele></ele><time>2013-8-3T20:43:4Z</time></trkpt>
<trkpt lat="46.2267570495606" lon="6.96654605865478"><ele></ele><time>2013-8-3T20:43:7Z</time></trkpt>
<trkpt lat="46.2265014648438" lon="6.96639013290405"><ele></ele><time>2013-8-3T20:43:10Z</time></trkpt>
<trkpt lat="46.2263565063477" lon="6.9663519859314"><ele></ele><time>2013-8-3T20:43:13Z</time></trkpt>
<trkpt lat="46.2263107299805" lon="6.96634578704834"><ele></ele><time>2013-8-3T20:43:16Z</time></trkpt>
<trkpt lat="46.2262687683106" lon="6.9663405418396"><ele></ele><time>2013-8-3T20:43:19Z</time></trkpt>
<trkpt lat="46.2262306213379" lon="6.96633577346802"><ele></ele><time>2013-8-3T20:43:22Z</time></trkpt>
<trkpt lat="46.226188659668" lon="6.9663290977478"><ele></ele><time>2013-8-3T20:43:25Z</time></trkpt>
<trkpt lat="46.2260398864746" lon="6.96628475189209"><ele></ele><time>2013-8-3T20:43:28Z</time></trkpt>
<trkpt lat="46.2260093688965" lon="6.9662766456604"><ele></ele><time>2013-8-3T20:43:31Z</time></trkpt>
<trkpt lat="46.2259788513184" lon="6.96626138687134"><ele></ele><time>2013-8-3T20:43:34Z</time></trkpt>
<trkpt lat="46.225944519043" lon="6.96624755859375"><ele></ele><time>2013-8-3T20:43:37Z</time></trkpt>
<trkpt lat="46.2259140014648" lon="6.966233253479"><ele></ele><time>2013-8-3T20:43:40Z</time></trkpt>
<trkpt lat="46.225887298584" lon="6.96620988845825"><ele></ele><time>2013-8-3T20:43:43Z</time></trkpt>
<trkpt lat="46.2258644104004" lon="6.96618127822876"><ele></ele><time>2013-8-3T20:43:46Z</time></trkpt>
<trkpt lat="46.2258415222168" lon="6.96614837646484"><ele></ele><time>2013-8-3T20:43:49Z</time></trkpt>
<trkpt lat="46.2258186340332" lon="6.96611309051514"><ele></ele><time>2013-8-3T20:43:52Z</time></trkpt>
<trkpt lat="46.2257919311523" lon="6.96606826782226"><ele></ele><time>2013-8-3T20:43:55Z</time></trkpt>
<trkpt lat="46.2257652282715" lon="6.96602201461792"><ele></ele><time>2013-8-3T20:43:58Z</time></trkpt>
<trkpt lat="46.2257423400879" lon="6.96597480773926"><ele></ele><time>2013-8-3T20:44:1Z</time></trkpt>
<trkpt lat="46.2257232666016" lon="6.96593189239502"><ele></ele><time>2013-8-3T20:44:4Z</time></trkpt>
<trkpt lat="46.2257041931152" lon="6.96588754653931"><ele></ele><time>2013-8-3T20:44:7Z</time></trkpt>
<trkpt lat="46.2256889343262" lon="6.96584558486938"><ele></ele><time>2013-8-3T20:44:10Z</time></trkpt>
<trkpt lat="46.2256736755371" lon="6.96580505371094"><ele></ele><time>2013-8-3T20:44:13Z</time></trkpt>
<trkpt lat="46.225658416748" lon="6.96576881408691"><ele></ele><time>2013-8-3T20:44:16Z</time></trkpt>
<trkpt lat="46.2256240844727" lon="6.96570634841919"><ele></ele><time>2013-8-3T20:44:19Z</time></trkpt>
<trkpt lat="46.2256050109863" lon="6.96567249298096"><ele></ele><time>2013-8-3T20:44:22Z</time></trkpt>
<trkpt lat="46.2255859375" lon="6.9656400680542"><ele></ele><time>2013-8-3T20:44:25Z</time></trkpt>
<trkpt lat="46.2255668640137" lon="6.96560955047607"><ele></ele><time>2013-8-3T20:44:28Z</time></trkpt>
<trkpt lat="46.2255477905273" lon="6.96557664871216"><ele></ele><time>2013-8-3T20:44:31Z</time></trkpt>
<trkpt lat="46.2254524230957" lon="6.96542406082153"><ele></ele><time>2013-8-3T20:44:34Z</time></trkpt>
<trkpt lat="46.2254257202148" lon="6.96537971496582"><ele></ele><time>2013-8-3T20:44:37Z</time></trkpt>
<trkpt lat="46.225399017334" lon="6.96534109115601"><ele></ele><time>2013-8-3T20:44:40Z</time></trkpt>
<trkpt lat="46.2253799438477" lon="6.96529293060303"><ele></ele><time>2013-8-3T20:44:43Z</time></trkpt>
<trkpt lat="46.2253570556641" lon="6.96525192260742"><ele></ele><time>2013-8-3T20:44:46Z</time></trkpt>
<trkpt lat="46.2253265380859" lon="6.96518754959106"><ele></ele><time>2013-8-3T20:44:49Z</time></trkpt>
<trkpt lat="46.2253112792969" lon="6.96516418457031"><ele></ele><time>2013-8-3T20:44:52Z</time></trkpt>
<trkpt lat="46.2252922058106" lon="6.96513843536377"><ele></ele><time>2013-8-3T20:44:55Z</time></trkpt>
<trkpt lat="46.2252731323242" lon="6.96510696411133"><ele></ele><time>2013-8-3T20:44:58Z</time></trkpt>
<trkpt lat="46.2252464294434" lon="6.96506929397583"><ele></ele><time>2013-8-3T20:45:1Z</time></trkpt>
<trkpt lat="46.2251625061035" lon="6.96493577957153"><ele></ele><time>2013-8-3T20:45:4Z</time></trkpt>
<trkpt lat="46.2251472473144" lon="6.96490621566772"><ele></ele><time>2013-8-3T20:45:7Z</time></trkpt>
<trkpt lat="46.2251358032227" lon="6.96487379074097"><ele></ele><time>2013-8-3T20:45:10Z</time></trkpt>
<trkpt lat="46.2251205444336" lon="6.96483564376831"><ele></ele><time>2013-8-3T20:45:13Z</time></trkpt>
<trkpt lat="46.2251014709473" lon="6.96479749679565"><ele></ele><time>2013-8-3T20:45:16Z</time></trkpt>
<trkpt lat="46.2250709533691" lon="6.96474981307983"><ele></ele><time>2013-8-3T20:45:19Z</time></trkpt>
<trkpt lat="46.2249870300293" lon="6.96465492248535"><ele></ele><time>2013-8-3T20:45:22Z</time></trkpt>
<trkpt lat="46.2249717712402" lon="6.96461963653564"><ele></ele><time>2013-8-3T20:45:25Z</time></trkpt>
<trkpt lat="46.2249488830566" lon="6.9645824432373"><ele></ele><time>2013-8-3T20:45:28Z</time></trkpt>
<trkpt lat="46.224925994873" lon="6.96454048156738"><ele></ele><time>2013-8-3T20:45:31Z</time></trkpt>
<trkpt lat="46.2248992919922" lon="6.96450138092041"><ele></ele><time>2013-8-3T20:45:34Z</time></trkpt>
<trkpt lat="46.2248191833496" lon="6.96437788009644"><ele></ele><time>2013-8-3T20:45:37Z</time></trkpt>
<trkpt lat="46.2247772216797" lon="6.96430397033691"><ele></ele><time>2013-8-3T20:45:40Z</time></trkpt>
<trkpt lat="46.2247467041016" lon="6.96426677703857"><ele></ele><time>2013-8-3T20:45:43Z</time></trkpt>
<trkpt lat="46.2247276306152" lon="6.96422481536865"><ele></ele><time>2013-8-3T20:45:46Z</time></trkpt>
<trkpt lat="46.2247123718262" lon="6.96418142318726"><ele></ele><time>2013-8-3T20:45:49Z</time></trkpt>
<trkpt lat="46.2246932983398" lon="6.96413564682007"><ele></ele><time>2013-8-3T20:45:52Z</time></trkpt>
<trkpt lat="46.2246284484863" lon="6.96396780014038"><ele></ele><time>2013-8-3T20:45:55Z</time></trkpt>
<trkpt lat="46.2246131896973" lon="6.96392869949341"><ele></ele><time>2013-8-3T20:45:58Z</time></trkpt>
<trkpt lat="46.2246017456055" lon="6.96389055252075"><ele></ele><time>2013-8-3T20:46:1Z</time></trkpt>
<trkpt lat="46.2245941162109" lon="6.96385145187378"><ele></ele><time>2013-8-3T20:46:4Z</time></trkpt>
<trkpt lat="46.2245864868164" lon="6.96381187438965"><ele></ele><time>2013-8-3T20:46:7Z</time></trkpt>
<trkpt lat="46.2245788574219" lon="6.9637713432312"><ele></ele><time>2013-8-3T20:46:10Z</time></trkpt>
<trkpt lat="46.2245712280273" lon="6.96369361877441"><ele></ele><time>2013-8-3T20:46:13Z</time></trkpt>
<trkpt lat="46.2245712280273" lon="6.96365547180176"><ele></ele><time>2013-8-3T20:46:16Z</time></trkpt>
<trkpt lat="46.2245635986328" lon="6.9636173248291"><ele></ele><time>2013-8-3T20:46:19Z</time></trkpt>
<trkpt lat="46.2245597839356" lon="6.96357870101929"><ele></ele><time>2013-8-3T20:46:22Z</time></trkpt>
<trkpt lat="46.2245559692383" lon="6.96353912353516"><ele></ele><time>2013-8-3T20:46:25Z</time></trkpt>
<trkpt lat="46.2245559692383" lon="6.96349811553955"><ele></ele><time>2013-8-3T20:46:28Z</time></trkpt>
<trkpt lat="46.2245483398438" lon="6.96341800689697"><ele></ele><time>2013-8-3T20:46:31Z</time></trkpt>
<trkpt lat="46.2245483398438" lon="6.96325063705444"><ele></ele><time>2013-8-3T20:46:34Z</time></trkpt>
<trkpt lat="46.224552154541" lon="6.9632158279419"><ele></ele><time>2013-8-3T20:46:37Z</time></trkpt>
<trkpt lat="46.2245597839356" lon="6.9631814956665"><ele></ele><time>2013-8-3T20:46:40Z</time></trkpt>
<trkpt lat="46.2245635986328" lon="6.96314668655396"><ele></ele><time>2013-8-3T20:46:43Z</time></trkpt>
<trkpt lat="46.2245712280273" lon="6.96311378479004"><ele></ele><time>2013-8-3T20:46:46Z</time></trkpt>
<trkpt lat="46.224609375" lon="6.96294927597046"><ele></ele><time>2013-8-3T20:46:49Z</time></trkpt>
<trkpt lat="46.2246322631836" lon="6.96288251876831"><ele></ele><time>2013-8-3T20:46:52Z</time></trkpt>
<trkpt lat="46.2246437072754" lon="6.96286773681641"><ele></ele><time>2013-8-3T20:46:55Z</time></trkpt>
<trkpt lat="46.2246513366699" lon="6.96285629272461"><ele></ele><time>2013-8-3T20:46:58Z</time></trkpt>
<trkpt lat="46.2246627807617" lon="6.96284103393555"><ele></ele><time>2013-8-3T20:47:1Z</time></trkpt>
<trkpt lat="46.2246780395508" lon="6.96280813217163"><ele></ele><time>2013-8-3T20:47:4Z</time></trkpt>
</trkseg></trk></gpx>